[[{"header":{"parameterUnit":"m.s-1","parameterCategory":1,"la1":31.0,"la2":29.5877,"lo1":-88.7671,"lo2":-86.6584,"dy":0.0162,"dx":0.0185,"nx":115,"ny":88,"refTime":"2023-06-18T18:00:00:Z","depth":0,"parameterNumber":2,"parameterNumberName":"U-component_of_WINDS"},"data":[0.0,0.0,0.0,0.0,0.0,0.0,0.0,0.0,0.0,0.0,0.0,0.0,0.0,0.0,0.0,0.0,0.0,0.0,0.0,0.0,0.0,0.0,0.0,0.0,0.0,0.0,0.0,0.0,0.0,0.0,0.0,0.0,0.0,0.0,0.0,0.0,0.0,0.0,0.0,0.0,0.0,0.0,0.0,0.0,0.0,0.0,0.0,0.0,0.0,0.0,0.0,0.0,0.0,0.0,0.0,0.0,0.0,0.0,0.0,0.0,0.0,0.0,0.0,0.0,0.0,0.0,0.0,0.0,0.0,0.0,0.0,0.0,0.0,0.0,0.0,0.0,0.0,0.0,0.0,0.0,0.0,0.0,0.0,0.0,0.0,0.0,0.0,0.0,0.0,0.0,0.0,0.0,0.0,0.0,0.0,0.0,0.0,0.0,0.0,0.0,0.0,0.0,0.0,0.0,0.0,0.0,0.0,0.0,0.0,0.0,0.0,0.0,0.0,0.0,0.0,0.0,0.0,0.0,0.0,0.0,0.0,0.0,0.0,0.0,0.0,0.0,0.0,0.0,0.0,0.0,0.0,0.0,0.0,0.0,0.0,0.0,0.0,0.0,0.0,0.0,0.0,0.0,0.0,0.0,0.0,0.0,0.0,0.0,0.0,0.0,0.0,0.0,0.0,0.0,0.0,0.0,0.0,0.0,0.0,0.0,0.0,0.0,0.0,0.0,0.0,0.0,0.0,0.0,0.0,0.0,0.0,0.0,0.0,0.0,0.0,0.0,0.0,0.0,0.0,0.0,0.0,0.0,0.0,0.0,0.0,0.0,0.0,0.0,0.0,0.0,0.0,0.0,0.0,0.0,0.0,0.0,0.0,0.0,0.0,0.0,0.0,0.0,0.0,0.0,0.0,0.0,0.0,0.0,0.0,0.0,0.0,0.0,0.0,0.0,0.0,0.0,0.0,0.0,0.0,0.0,0.0,0.0,0.0,0.0,0.0,0.0,0.0,0.0,0.0,0.0,0.0,0.0,0.0,0.0,0.0,0.0,0.0,0.0,0.0,0.0,0.0,0.0,0.0,0.0,0.0,0.0,0.0,0.0,0.0,0.0,0.0,0.0,0.0,0.0,0.0,0.0,0.0,0.0,0.0,0.0,0.0,0.0,0.0,0.0,0.0,0.0,0.0,0.0,0.0,0.0,0.0,0.0,0.0,0.0,0.0,0.0,0.0,0.0,0.0,0.0,0.0,0.0,0.0,0.0,0.0,0.0,0.0,0.0,0.0,0.0,0.0,0.0,0.0,0.0,0.0,0.0,0.0,0.0,0.0,0.0,0.0,0.0,0.0,0.0,0.0,0.0,0.0,0.0,0.0,0.0,0.0,0.0,0.0,0.0,0.0,0.0,0.0,0.0,0.0,0.0,0.0,0.0,0.0,0.0,0.0,0.0,0.0,0.0,0.0,0.0,0.0,0.0,0.0,0.0,0.0,0.0,0.0,0.0,0.0,0.0,0.0,0.0,0.0,0.0,0.0,0.0,0.0,0.0,0.0,0.0,0.0,0.0,0.0,0.0,0.0,0.0,0.0,0.0,0.0,0.0,0.0,0.0,0.0,0.0,0.0,0.0,0.0,0.0,0.0,0.0,0.0,0.0,0.0,0.0,0.0,0.0,0.0,0.0,0.0,0.0,0.0,0.0,0.0,0.0,0.0,0.0,0.0,0.0,0.0,0.0,0.0,0.0,0.0,0.0,0.0,0.0,0.0,0.0,0.0,0.0,0.0,0.0,0.0,0.0,0.0,0.0,0.0,0.0,0.0,0.0,0.0,0.0,0.0,0.0,0.0,0.0,0.0,0.0,0.0,0.0,0.0,0.0,0.0,0.0,0.0,0.0,0.0,0.0,0.0,0.0,0.0,0.0,0.0,0.0,0.0,0.0,0.0,0.0,0.0,0.0,0.0,0.0,0.0,0.0,0.0,0.0,0.0,0.0,0.0,0.0,0.0,0.0,0.0,0.0,0.0,0.0,0.0,0.0,0.0,0.0,0.0,0.0,0.0,0.0,0.0,0.0,0.0,0.0,0.0,0.0,0.0,0.0,0.0,0.0,0.0,0.0,0.0,0.0,0.0,0.0,0.0,0.0,0.0,0.0,0.0,0.0,0.0,0.0,0.0,0.0,0.0,0.0,0.0,0.0,0.0,0.0,0.0,0.0,0.0,0.0,0.0,0.0,0.0,0.0,0.0,0.0,0.0,0.0,0.0,0.0,0.0,0.0,0.0,0.0,0.0,0.0,0.0,0.0,0.0,0.0,0.0,0.0,0.0,0.0,0.0,0.0,0.0,0.0,0.0,0.0,0.0,0.0,0.0,0.0,0.0,0.0,0.0,0.0,0.0,0.0,0.0,0.0,0.0,0.0,0.0,0.0,0.0,0.0,0.0,0.0,0.0,0.0,0.0,0.0,0.0,0.0,0.0,0.0,0.0,0.0,0.0,0.0,0.0,0.0,0.0,0.0,0.0,0.0,0.0,0.0,0.0,0.0,0.0,0.0,0.0,0.0,0.0,0.0,0.0,0.0,0.0,0.0,0.0,0.0,0.0,0.0,0.0,0.0,0.0,0.0,0.0,0.0,0.0,0.0,0.0,0.0,0.0,0.0,0.0,0.0,0.0,0.0,0.0,0.0,0.0,0.0,0.0,0.0,0.0,0.0,0.0,0.0,0.0,0.0,0.0,0.0,0.0,0.0,0.0,0.0,0.0,0.0,0.0,0.0,0.0,0.0,0.0,0.0,0.0,0.0,0.0,0.0,0.0,0.0,0.0,0.0,0.0,0.0,0.0,0.0,0.0,0.0,0.0,0.0,0.0,0.0,0.0,0.0,0.0,0.0,0.0,0.0,0.0,0.0,0.0,0.0,0.0,0.0,0.0,0.0,0.0,0.0,0.0,0.0,0.0,0.0,0.0,0.0,0.0,0.0,0.0,0.0,0.0,0.0,0.0,0.0,0.0,0.0,0.0,0.0,0.0,0.0,0.0,0.0,0.0,0.0,0.0,0.0,0.0,0.0,0.0,0.0,0.0,0.0,0.0,0.0,0.0,0.0,0.0,0.0,0.0,0.0,0.0,0.0,0.0,0.0,0.0,0.0,0.0,0.0,0.0,0.0,0.0,0.0,0.0,0.0,0.0,0.0,0.0,0.0,0.0,0.0,0.0,0.0,0.0,0.0,0.0,0.0,0.0,0.0,0.0,0.0,0.0,0.0,0.0,0.0,0.0,0.0,0.0,0.0,0.0,0.0,0.0,0.0,0.0,0.0,0.0,0.0,0.0,0.0,0.0,0.0,0.0,0.0,0.0,0.0,0.0,0.0,0.0,0.0,0.0,0.0,0.0,0.0,0.0,0.0,0.0,0.0,0.0,0.0,0.0,0.0,0.0,0.0,0.0,0.0,0.0,0.0,0.0,0.0,0.0,0.0,0.0,0.0,0.0,0.0,0.0,0.0,0.0,0.0,0.0,0.0,0.0,0.0,0.0,0.0,0.0,0.0,0.0,0.0,0.0,0.0,0.0,0.0,0.0,0.0,0.0,0.0,0.0,0.0,0.0,0.0,0.0,0.0,0.0,0.0,0.0,0.0,0.0,0.0,0.0,0.0,0.0,0.0,0.0,0.0,0.0,0.0,0.0,0.0,0.0,0.0,0.0,0.0,0.0,0.0,0.0,0.0,0.0,0.0,0.0,0.0,0.0,0.0,0.0,0.0,0.0,0.0,0.0,0.0,0.0,0.0,0.0,0.0,0.0,0.0,0.0,0.0,0.0,0.0,0.0,0.0,0.0,0.0,0.0,0.0,0.0,0.0,0.0,0.0,0.0,0.0,0.0,0.0,0.0,0.0,0.0,0.0,0.0,0.0,0.0,0.0,0.0,0.0,0.0,0.0,0.0,0.0,0.0,0.0,0.0,0.0,0.0,0.0,0.0,0.0,0.0,0.0,0.0,0.0,0.0,0.0,0.0,0.0,0.0,0.0,0.0,0.0,0.0,0.0,0.0,0.0,0.0,0.0,0.0,0.0,0.0,0.0,0.0,0.0,0.0,0.0,0.0,0.0,0.0,0.0,0.0,0.0,0.0,0.0,0.0,0.0,0.0,0.0,0.0,0.0,0.0,0.0,0.0,0.0,0.0,0.0,0.0,0.0,0.0,0.0,0.0,0.0,0.0,0.0,0.0,0.0,0.0,0.0,0.0,0.0,0.0,0.0,0.0,0.0,0.0,0.0,0.0,0.0,0.0,0.0,-2.991,0.0,0.0,0.0,0.0,0.0,0.0,0.0,0.0,0.0,0.0,0.0,0.0,0.0,0.0,0.0,0.0,0.0,0.0,0.0,0.0,0.0,0.0,0.0,0.0,0.0,0.0,0.0,0.0,0.0,0.0,0.0,0.0,0.0,0.0,0.0,0.0,0.0,0.0,0.0,0.0,0.0,0.0,0.0,0.0,0.0,0.0,0.0,0.0,0.0,0.0,0.0,0.0,0.0,0.0,0.0,0.0,0.0,0.0,0.0,0.0,0.0,0.0,0.0,0.0,0.0,0.0,0.0,0.0,0.0,0.0,0.0,0.0,0.0,0.0,0.0,0.0,0.0,0.0,0.0,0.0,0.0,0.0,0.0,0.0,0.0,0.0,0.0,0.0,0.0,0.0,0.0,0.0,0.0,0.0,0.0,0.0,0.0,0.0,0.0,0.0,0.0,0.0,0.0,0.0,0.0,0.0,0.0,0.0,0.0,0.0,-3.0091,-3.0076,-2.9991,-2.9926,-2.9885,0.0,0.0,0.0,0.0,0.0,0.0,0.0,0.0,0.0,0.0,0.0,0.0,0.0,0.0,0.0,0.0,0.0,0.0,0.0,0.0,0.0,0.0,0.0,0.0,0.0,0.0,0.0,0.0,0.0,0.0,0.0,0.0,0.0,0.0,0.0,0.0,0.0,0.0,0.0,0.0,0.0,0.0,0.0,0.0,0.0,0.0,0.0,0.0,0.0,0.0,0.0,0.0,0.0,0.0,0.0,0.0,0.0,0.0,0.0,0.0,0.0,0.0,0.0,0.0,0.0,0.0,0.0,0.0,0.0,0.0,0.0,0.0,0.0,0.0,0.0,0.0,0.0,0.0,0.0,0.0,0.0,0.0,0.0,0.0,0.0,0.0,0.0,0.0,0.0,0.0,0.0,0.0,0.0,0.0,0.0,0.0,0.0,0.0,0.0,0.0,0.0,0.0,0.0,0.0,0.0,0.0,0.0,0.0,0.0,0.0,0.0,0.0,-3.0511,-3.0435,-3.0391,0.0,0.0,0.0,0.0,0.0,0.0,0.0,0.0,0.0,0.0,0.0,0.0,0.0,0.0,0.0,0.0,0.0,0.0,0.0,0.0,0.0,0.0,0.0,0.0,0.0,0.0,0.0,0.0,0.0,0.0,0.0,0.0,0.0,0.0,0.0,0.0,0.0,0.0,0.0,0.0,0.0,0.0,0.0,0.0,0.0,0.0,0.0,0.0,0.0,0.0,0.0,0.0,0.0,0.0,0.0,0.0,0.0,0.0,0.0,0.0,0.0,0.0,0.0,0.0,0.0,0.0,0.0,0.0,0.0,0.0,0.0,0.0,0.0,0.0,0.0,0.0,0.0,0.0,0.0,0.0,0.0,0.0,0.0,0.0,0.0,0.0,0.0,0.0,0.0,0.0,0.0,0.0,0.0,0.0,0.0,0.0,0.0,0.0,0.0,0.0,0.0,0.0,0.0,0.0,0.0,0.0,0.0,0.0,0.0,0.0,-3.2344,-3.2294,-3.2199,0.0,-3.1927,0.0,0.0,0.0,0.0,0.0,0.0,0.0,0.0,0.0,0.0,0.0,0.0,0.0,0.0,0.0,0.0,0.0,0.0,0.0,0.0,0.0,0.0,0.0,0.0,0.0,0.0,0.0,0.0,0.0,0.0,0.0,0.0,0.0,0.0,0.0,0.0,0.0,0.0,0.0,0.0,0.0,0.0,0.0,0.0,0.0,0.0,0.0,0.0,0.0,0.0,0.0,0.0,0.0,0.0,0.0,0.0,0.0,0.0,0.0,0.0,0.0,0.0,0.0,0.0,0.0,0.0,0.0,0.0,0.0,0.0,0.0,0.0,0.0,0.0,0.0,0.0,0.0,0.0,0.0,0.0,0.0,0.0,0.0,0.0,0.0,0.0,0.0,0.0,0.0,0.0,0.0,0.0,0.0,0.0,0.0,0.0,0.0,0.0,0.0,0.0,0.0,0.0,0.0,0.0,0.0,0.0,0.0,0.0,0.0,0.0,-3.2522,-3.2433,-3.2317,-3.2162,0.0,0.0,0.0,0.0,0.0,0.0,0.0,0.0,0.0,0.0,0.0,0.0,0.0,0.0,0.0,0.0,0.0,0.0,0.0,0.0,0.0,0.0,0.0,0.0,0.0,0.0,0.0,0.0,0.0,0.0,0.0,0.0,0.0,0.0,0.0,0.0,0.0,0.0,0.0,0.0,0.0,0.0,0.0,0.0,0.0,0.0,0.0,0.0,0.0,0.0,0.0,0.0,0.0,0.0,0.0,0.0,0.0,0.0,0.0,0.0,0.0,0.0,0.0,0.0,0.0,0.0,0.0,0.0,0.0,0.0,0.0,0.0,0.0,0.0,0.0,0.0,0.0,0.0,0.0,0.0,0.0,0.0,0.0,0.0,0.0,0.0,0.0,0.0,0.0,0.0,0.0,0.0,0.0,0.0,0.0,0.0,0.0,0.0,0.0,0.0,0.0,0.0,0.0,0.0,0.0,0.0,0.0,0.0,0.0,0.0,-3.3266,-3.3153,-3.3006,-3.2821,-3.2713,-3.2627,0.0,0.0,0.0,0.0,0.0,0.0,0.0,0.0,0.0,0.0,0.0,0.0,0.0,0.0,0.0,0.0,0.0,0.0,0.0,0.0,0.0,0.0,0.0,0.0,0.0,0.0,0.0,0.0,0.0,0.0,0.0,0.0,0.0,0.0,0.0,0.0,0.0,0.0,0.0,0.0,0.0,0.0,0.0,0.0,0.0,0.0,0.0,0.0,0.0,0.0,0.0,0.0,0.0,0.0,0.0,0.0,0.0,0.0,0.0,0.0,0.0,0.0,0.0,0.0,0.0,0.0,0.0,0.0,0.0,0.0,0.0,0.0,0.0,0.0,0.0,0.0,0.0,0.0,0.0,0.0,0.0,0.0,0.0,0.0,0.0,0.0,0.0,0.0,0.0,0.0,0.0,0.0,0.0,0.0,0.0,0.0,0.0,0.0,0.0,0.0,0.0,0.0,0.0,0.0,0.0,0.0,0.0,0.0,-3.5068,-3.4969,-3.4756,-3.4492,-3.4371,-3.4269,0.0,0.0,0.0,0.0,0.0,0.0,0.0,0.0,0.0,0.0,0.0,0.0,0.0,0.0,0.0,0.0,0.0,0.0,0.0,0.0,0.0,0.0,0.0,0.0,0.0,0.0,0.0,0.0,0.0,0.0,0.0,0.0,0.0,0.0,0.0,0.0,0.0,0.0,0.0,0.0,0.0,0.0,0.0,0.0,0.0,0.0,0.0,0.0,0.0,0.0,0.0,0.0,0.0,0.0,0.0,0.0,0.0,0.0,0.0,0.0,0.0,0.0,0.0,0.0,0.0,0.0,0.0,0.0,0.0,0.0,0.0,0.0,0.0,0.0,0.0,0.0,0.0,0.0,0.0,0.0,0.0,0.0,0.0,0.0,0.0,0.0,0.0,0.0,0.0,0.0,0.0,0.0,0.0,0.0,0.0,0.0,0.0,0.0,0.0,0.0,0.0,0.0,0.0,0.0,0.0,0.0,0.0,0.0,0.0,-3.5836,-3.6154,-3.622,-3.595,-3.5392,-3.507,0.0,0.0,0.0,0.0,0.0,0.0,0.0,0.0,0.0,0.0,0.0,0.0,0.0,0.0,0.0,0.0,0.0,0.0,0.0,0.0,0.0,0.0,0.0,0.0,0.0,0.0,0.0,0.0,0.0,0.0,0.0,0.0,0.0,0.0,0.0,0.0,0.0,0.0,0.0,0.0,0.0,0.0,0.0,0.0,0.0,0.0,0.0,0.0,0.0,0.0,0.0,0.0,0.0,0.0,0.0,0.0,0.0,0.0,0.0,0.0,0.0,0.0,0.0,0.0,0.0,0.0,0.0,0.0,0.0,0.0,0.0,0.0,0.0,0.0,0.0,0.0,0.0,0.0,0.0,0.0,0.0,0.0,0.0,0.0,0.0,0.0,0.0,0.0,0.0,0.0,0.0,0.0,0.0,0.0,0.0,0.0,0.0,0.0,0.0,0.0,0.0,0.0,0.0,0.0,0.0,0.0,0.0,0.0,0.0,-3.6797,0.0,-3.7367,0.0,-3.6613,-3.6128,0.0,0.0,0.0,0.0,0.0,0.0,0.0,0.0,0.0,0.0,0.0,0.0,0.0,0.0,0.0,0.0,0.0,0.0,0.0,0.0,0.0,0.0,0.0,0.0,0.0,0.0,0.0,0.0,0.0,0.0,0.0,0.0,0.0,0.0,0.0,0.0,0.0,0.0,0.0,0.0,0.0,0.0,0.0,0.0,0.0,0.0,0.0,0.0,0.0,0.0,0.0,0.0,0.0,0.0,0.0,0.0,0.0,0.0,0.0,0.0,0.0,0.0,0.0,0.0,0.0,0.0,0.0,0.0,0.0,0.0,0.0,0.0,0.0,0.0,0.0,0.0,0.0,0.0,0.0,0.0,0.0,0.0,0.0,0.0,0.0,0.0,0.0,0.0,0.0,0.0,0.0,0.0,0.0,0.0,0.0,0.0,0.0,0.0,0.0,0.0,0.0,0.0,0.0,0.0,0.0,0.0,0.0,0.0,-3.6927,-3.8151,-3.8085,-3.8451,-3.8987,-3.814,-3.7632,0.0,0.0,0.0,0.0,0.0,0.0,0.0,0.0,0.0,0.0,0.0,0.0,0.0,0.0,0.0,0.0,0.0,0.0,0.0,0.0,0.0,0.0,0.0,0.0,0.0,0.0,0.0,0.0,0.0,0.0,0.0,0.0,0.0,0.0,0.0,0.0,0.0,0.0,0.0,0.0,0.0,0.0,0.0,0.0,0.0,0.0,0.0,0.0,0.0,0.0,0.0,0.0,0.0,0.0,0.0,0.0,0.0,0.0,0.0,0.0,0.0,0.0,0.0,0.0,0.0,0.0,0.0,0.0,0.0,0.0,0.0,0.0,0.0,0.0,0.0,0.0,0.0,0.0,0.0,0.0,0.0,0.0,0.0,0.0,0.0,0.0,0.0,0.0,0.0,0.0,0.0,0.0,0.0,0.0,0.0,0.0,0.0,0.0,0.0,0.0,0.0,0.0,0.0,0.0,0.0,0.0,0.0,0.0,0.0,-4.0273,-4.1678,-4.2472,-4.2608,-4.1277,-4.0101,0.0,0.0,0.0,0.0,0.0,0.0,0.0,0.0,0.0,0.0,0.0,0.0,0.0,0.0,0.0,0.0,0.0,0.0,0.0,0.0,0.0,0.0,0.0,0.0,0.0,0.0,0.0,0.0,0.0,0.0,0.0,0.0,0.0,0.0,0.0,0.0,0.0,0.0,0.0,0.0,0.0,0.0,0.0,0.0,0.0,0.0,0.0,0.0,0.0,0.0,0.0,0.0,0.0,0.0,0.0,0.0,0.0,0.0,0.0,0.0,0.0,0.0,0.0,0.0,0.0,0.0,0.0,0.0,0.0,0.0,0.0,0.0,0.0,0.0,0.0,0.0,0.0,0.0,0.0,0.0,0.0,0.0,0.0,0.0,0.0,0.0,0.0,0.0,0.0,0.0,0.0,0.0,0.0,0.0,0.0,0.0,0.0,0.0,0.0,0.0,0.0,0.0,0.0,0.0,0.0,0.0,0.0,0.0,0.0,-4.5148,-4.5727,-4.6226,-4.6757,-4.522,-4.3594,-4.1954,0.0,0.0,0.0,0.0,0.0,0.0,0.0,0.0,0.0,0.0,0.0,0.0,0.0,0.0,0.0,0.0,0.0,0.0,0.0,0.0,0.0,0.0,0.0,0.0,0.0,0.0,0.0,0.0,0.0,0.0,0.0,0.0,0.0,0.0,0.0,0.0,0.0,0.0,0.0,0.0,0.0,0.0,0.0,0.0,0.0,0.0,0.0,0.0,0.0,0.0,0.0,0.0,0.0,0.0,0.0,0.0,0.0,0.0,0.0,0.0,0.0,0.0,0.0,0.0,0.0,0.0,0.0,0.0,0.0,0.0,0.0,0.0,0.0,0.0,0.0,0.0,0.0,0.0,0.0,0.0,0.0,0.0,0.0,0.0,0.0,0.0,0.0,0.0,0.0,0.0,0.0,0.0,0.0,0.0,0.0,0.0,0.0,0.0,0.0,0.0,0.0,0.0,0.0,0.0,0.0,0.0,0.0,0.0,-5.222,-5.0354,-5.0018,-5.1251,-4.9706,-4.7825,0.0,0.0,0.0,0.0,0.0,0.0,0.0,0.0,0.0,0.0,0.0,0.0,0.0,0.0,0.0,0.0,0.0,0.0,0.0,0.0,0.0,0.0,0.0,0.0,0.0,0.0,0.0,0.0,0.0,0.0,0.0,0.0,0.0,0.0,0.0,0.0,0.0,0.0,0.0,0.0,0.0,0.0,0.0,0.0,0.0,0.0,0.0,0.0,0.0,0.0,0.0,0.0,0.0,0.0,0.0,0.0,0.0,0.0,0.0,0.0,0.0,0.0,0.0,0.0,0.0,0.0,0.0,0.0,0.0,0.0,0.0,0.0,0.0,0.0,0.0,0.0,0.0,0.0,0.0,0.0,0.0,0.0,0.0,0.0,0.0,0.0,0.0,0.0,0.0,0.0,0.0,0.0,0.0,0.0,0.0,0.0,0.0,0.0,0.0,0.0,0.0,0.0,0.0,0.0,0.0,0.0,0.0,0.0,0.0,-5.553,-5.8154,-5.8502,-5.6502,-5.4296,-5.1722,0.0,0.0,0.0,0.0,0.0,0.0,0.0,0.0,0.0,0.0,0.0,0.0,0.0,0.0,0.0,0.0,0.0,0.0,0.0,0.0,0.0,0.0,0.0,0.0,0.0,0.0,0.0,0.0,0.0,0.0,0.0,0.0,0.0,0.0,0.0,0.0,0.0,0.0,0.0,0.0,0.0,0.0,0.0,0.0,0.0,0.0,0.0,0.0,0.0,0.0,0.0,0.0,0.0,0.0,0.0,0.0,0.0,0.0,0.0,0.0,0.0,0.0,0.0,0.0,0.0,0.0,0.0,0.0,0.0,0.0,0.0,0.0,0.0,0.0,0.0,0.0,0.0,0.0,0.0,0.0,0.0,0.0,0.0,0.0,0.0,0.0,0.0,0.0,0.0,0.0,0.0,0.0,0.0,0.0,0.0,0.0,0.0,0.0,0.0,0.0,0.0,0.0,0.0,0.0,0.0,0.0,0.0,0.0,-5.4099,-5.9284,-6.3446,-6.4988,-6.372,-6.007,-5.6177,0.0,0.0,0.0,0.0,0.0,0.0,0.0,0.0,0.0,0.0,0.0,0.0,0.0,0.0,0.0,0.0,0.0,0.0,0.0,0.0,0.0,0.0,0.0,0.0,0.0,0.0,0.0,0.0,0.0,0.0,0.0,0.0,0.0,0.0,0.0,0.0,0.0,0.0,0.0,0.0,0.0,0.0,0.0,0.0,0.0,0.0,0.0,0.0,0.0,0.0,0.0,0.0,0.0,0.0,0.0,0.0,0.0,0.0,0.0,0.0,0.0,0.0,0.0,0.0,0.0,0.0,0.0,0.0,0.0,0.0,0.0,0.0,0.0,0.0,0.0,0.0,0.0,0.0,0.0,0.0,0.0,0.0,0.0,0.0,0.0,0.0,0.0,0.0,0.0,0.0,0.0,0.0,0.0,0.0,0.0,0.0,0.0,0.0,0.0,0.0,0.0,0.0,0.0,0.0,0.0,0.0,0.0,0.0,-5.7085,-6.2939,-6.7043,-6.9871,-7.1161,-6.604,-6.0764,0.0,0.0,0.0,0.0,0.0,0.0,0.0,0.0,0.0,0.0,0.0,0.0,0.0,0.0,0.0,0.0,0.0,0.0,0.0,0.0,0.0,0.0,0.0,0.0,0.0,0.0,0.0,0.0,0.0,0.0,0.0,0.0,0.0,0.0,0.0,0.0,0.0,0.0,0.0,0.0,0.0,0.0,0.0,0.0,0.0,0.0,0.0,0.0,0.0,0.0,0.0,0.0,0.0,0.0,0.0,0.0,0.0,0.0,0.0,0.0,0.0,0.0,0.0,0.0,0.0,0.0,0.0,0.0,0.0,0.0,0.0,0.0,0.0,0.0,0.0,0.0,0.0,0.0,0.0,0.0,0.0,0.0,0.0,0.0,0.0,0.0,0.0,0.0,0.0,0.0,0.0,0.0,0.0,0.0,0.0,0.0,0.0,0.0,0.0,0.0,0.0,0.0,0.0,0.0,0.0,0.0,0.0,0.0,-5.928,-6.5365,-7.0153,-7.3092,-7.4032,-6.867,-6.3724,0.0,0.0,0.0,0.0,0.0,0.0,0.0,0.0,0.0,0.0,0.0,0.0,0.0,0.0,0.0,0.0,0.0,0.0,0.0,0.0,0.0,0.0,0.0,0.0,0.0,0.0,0.0,0.0,0.0,0.0,0.0,0.0,0.0,0.0,0.0,0.0,0.0,0.0,0.0,0.0,0.0,0.0,0.0,0.0,0.0,0.0,0.0,0.0,-3.6323,0.0,0.0,0.0,0.0,0.0,0.0,0.0,0.0,0.0,0.0,0.0,0.0,0.0,0.0,0.0,0.0,0.0,0.0,0.0,0.0,0.0,0.0,0.0,0.0,0.0,0.0,0.0,0.0,0.0,0.0,0.0,0.0,0.0,0.0,0.0,0.0,0.0,0.0,0.0,0.0,0.0,0.0,0.0,0.0,0.0,0.0,0.0,0.0,0.0,0.0,0.0,0.0,0.0,0.0,0.0,0.0,0.0,0.0,0.0,-6.125,-6.7527,-7.1779,-7.4528,-7.5588,-7.1711,-6.7185,0.0,0.0,0.0,0.0,0.0,0.0,0.0,0.0,0.0,0.0,0.0,0.0,0.0,0.0,0.0,0.0,0.0,0.0,0.0,0.0,0.0,0.0,0.0,0.0,0.0,0.0,0.0,0.0,0.0,0.0,0.0,0.0,0.0,0.0,0.0,0.0,0.0,0.0,0.0,0.0,0.0,0.0,0.0,0.0,0.0,0.0,0.0,0.0,0.0,0.0,0.0,0.0,0.0,0.0,0.0,0.0,0.0,0.0,0.0,0.0,0.0,0.0,0.0,0.0,0.0,0.0,0.0,0.0,0.0,0.0,0.0,0.0,0.0,0.0,0.0,0.0,0.0,0.0,0.0,0.0,0.0,0.0,0.0,0.0,0.0,0.0,0.0,0.0,0.0,0.0,0.0,0.0,0.0,0.0,0.0,0.0,0.0,0.0,0.0,0.0,0.0,0.0,0.0,0.0,0.0,0.0,0.0,-5.6772,-6.313,-6.9457,-7.2946,-7.5402,-7.6965,-7.4377,-7.0218,-6.4354,0.0,0.0,0.0,0.0,0.0,0.0,0.0,0.0,0.0,0.0,0.0,0.0,0.0,0.0,0.0,0.0,0.0,0.0,0.0,0.0,0.0,0.0,0.0,0.0,0.0,0.0,0.0,0.0,0.0,0.0,0.0,0.0,0.0,0.0,0.0,0.0,0.0,0.0,-3.5135,-3.7711,0.0,0.0,0.0,0.0,0.0,0.0,0.0,0.0,-3.7796,0.0,0.0,0.0,0.0,0.0,0.0,0.0,0.0,0.0,0.0,0.0,0.0,0.0,0.0,0.0,0.0,0.0,0.0,0.0,0.0,0.0,0.0,0.0,0.0,0.0,0.0,0.0,0.0,0.0,0.0,0.0,0.0,0.0,0.0,0.0,0.0,0.0,0.0,0.0,0.0,0.0,0.0,0.0,0.0,0.0,0.0,0.0,0.0,0.0,0.0,0.0,0.0,0.0,0.0,0.0,0.0,-5.2662,-5.8859,-6.5034,-7.1156,-7.4832,-7.7121,-7.7918,-7.5056,-7.1191,-6.6389,0.0,0.0,0.0,0.0,0.0,0.0,0.0,0.0,0.0,0.0,0.0,0.0,0.0,0.0,0.0,0.0,0.0,0.0,0.0,0.0,0.0,0.0,0.0,0.0,0.0,0.0,0.0,0.0,0.0,0.0,0.0,0.0,0.0,0.0,0.0,0.0,0.0,0.0,0.0,-4.0295,-4.1789,0.0,0.0,0.0,0.0,0.0,0.0,0.0,0.0,-3.8693,0.0,0.0,0.0,0.0,0.0,0.0,0.0,0.0,0.0,0.0,0.0,0.0,0.0,0.0,0.0,0.0,0.0,0.0,0.0,0.0,0.0,0.0,0.0,0.0,0.0,0.0,0.0,0.0,0.0,0.0,0.0,0.0,0.0,0.0,0.0,0.0,0.0,0.0,0.0,0.0,0.0,0.0,0.0,0.0,0.0,0.0,0.0,0.0,0.0,0.0,0.0,0.0,0.0,0.0,0.0,-5.3927,-5.9668,-6.5659,-7.1841,-7.4972,-7.6946,-7.7638,-7.4911,-7.1132,0.0,0.0,0.0,0.0,0.0,0.0,0.0,0.0,0.0,0.0,0.0,0.0,0.0,0.0,0.0,0.0,0.0,0.0,0.0,0.0,0.0,0.0,0.0,0.0,0.0,0.0,0.0,0.0,0.0,0.0,0.0,0.0,0.0,0.0,0.0,0.0,0.0,0.0,0.0,0.0,-4.1364,-4.2776,-4.2882,0.0,0.0,0.0,0.0,0.0,0.0,-4.1707,-4.1042,0.0,0.0,0.0,0.0,0.0,0.0,0.0,0.0,0.0,0.0,0.0,0.0,0.0,0.0,0.0,0.0,0.0,0.0,0.0,0.0,0.0,0.0,0.0,0.0,0.0,0.0,0.0,0.0,0.0,0.0,0.0,0.0,0.0,0.0,0.0,0.0,0.0,0.0,0.0,0.0,0.0,0.0,0.0,0.0,0.0,0.0,0.0,0.0,0.0,0.0,0.0,0.0,0.0,0.0,0.0,-5.4758,-6.0367,-6.6144,-7.2039,-7.4832,-7.649,-7.7126,-7.4446,-7.0691,0.0,0.0,0.0,0.0,0.0,0.0,0.0,0.0,0.0,0.0,0.0,0.0,0.0,0.0,0.0,0.0,0.0,0.0,0.0,0.0,0.0,0.0,0.0,0.0,0.0,0.0,0.0,0.0,0.0,0.0,0.0,0.0,0.0,0.0,0.0,0.0,0.0,0.0,0.0,0.0,0.0,-4.3555,-4.434,-4.4993,0.0,0.0,0.0,0.0,-4.4068,-4.3819,0.0,0.0,0.0,0.0,0.0,0.0,0.0,0.0,0.0,0.0,0.0,0.0,0.0,0.0,0.0,0.0,0.0,0.0,0.0,0.0,0.0,0.0,0.0,0.0,0.0,0.0,0.0,0.0,0.0,0.0,0.0,0.0,0.0,0.0,0.0,0.0,0.0,0.0,0.0,0.0,0.0,0.0,0.0,0.0,0.0,0.0,0.0,0.0,0.0,0.0,0.0,0.0,0.0,0.0,0.0,0.0,-5.5171,-6.1564,-6.7244,-7.2056,-7.5122,-7.6775,-7.7045,-7.39,-7.0258,0.0,0.0,0.0,0.0,0.0,0.0,0.0,0.0,0.0,0.0,0.0,0.0,0.0,0.0,0.0,0.0,0.0,0.0,0.0,0.0,0.0,0.0,0.0,0.0,0.0,0.0,0.0,0.0,0.0,0.0,0.0,0.0,0.0,0.0,0.0,0.0,0.0,0.0,0.0,0.0,0.0,-4.4493,-4.6145,-4.6921,-4.7285,0.0,0.0,0.0,-4.5888,-4.5245,0.0,0.0,0.0,0.0,0.0,0.0,0.0,0.0,0.0,0.0,0.0,0.0,0.0,0.0,0.0,0.0,0.0,0.0,0.0,0.0,0.0,0.0,0.0,0.0,0.0,0.0,0.0,0.0,0.0,0.0,0.0,0.0,0.0,0.0,0.0,0.0,0.0,0.0,0.0,0.0,0.0,0.0,0.0,0.0,0.0,0.0,0.0,0.0,0.0,0.0,0.0,0.0,0.0,0.0,0.0,-5.1,-5.6063,-6.1957,-6.719,-7.1688,-7.4596,-7.6092,-7.6173,-7.348,-7.0089,0.0,0.0,0.0,0.0,0.0,0.0,0.0,0.0,0.0,0.0,0.0,0.0,0.0,0.0,0.0,0.0,0.0,0.0,0.0,0.0,0.0,0.0,0.0,0.0,0.0,0.0,0.0,0.0,0.0,0.0,0.0,0.0,0.0,0.0,0.0,0.0,0.0,0.0,0.0,0.0,0.0,0.0,-4.6436,-4.7773,0.0,0.0,0.0,-4.8242,-4.7893,0.0,0.0,0.0,0.0,0.0,0.0,0.0,0.0,0.0,0.0,0.0,0.0,0.0,0.0,0.0,0.0,0.0,0.0,0.0,0.0,0.0,0.0,0.0,0.0,0.0,0.0,0.0,0.0,0.0,0.0,0.0,0.0,0.0,0.0,0.0,0.0,0.0,0.0,0.0,0.0,0.0,0.0,0.0,0.0,0.0,0.0,0.0,0.0,0.0,0.0,0.0,0.0,0.0,0.0,0.0,0.0,0.0,-5.679,-6.204,-6.6911,-7.1355,-7.3966,-7.5324,-7.5327,-7.3098,0.0,0.0,0.0,0.0,0.0,0.0,0.0,0.0,0.0,0.0,0.0,0.0,0.0,0.0,0.0,0.0,0.0,0.0,0.0,0.0,0.0,0.0,0.0,0.0,0.0,0.0,0.0,-3.6375,0.0,0.0,0.0,0.0,0.0,0.0,0.0,0.0,0.0,0.0,0.0,0.0,0.0,0.0,-4.6374,-4.7315,-4.8653,-4.9611,0.0,0.0,-4.9768,-4.9595,-4.8938,-4.8023,0.0,0.0,0.0,0.0,0.0,0.0,0.0,0.0,0.0,0.0,0.0,0.0,0.0,0.0,0.0,0.0,0.0,0.0,0.0,0.0,0.0,0.0,0.0,0.0,0.0,0.0,0.0,0.0,0.0,0.0,0.0,0.0,0.0,0.0,0.0,0.0,0.0,0.0,0.0,0.0,0.0,0.0,0.0,0.0,0.0,0.0,0.0,0.0,0.0,0.0,0.0,0.0,0.0,0.0,0.0,-5.7193,-6.2045,-6.6726,-7.118,-7.3501,-7.48,-7.4995,-7.2713,-6.9961,0.0,0.0,0.0,0.0,0.0,0.0,0.0,0.0,0.0,0.0,0.0,0.0,0.0,0.0,0.0,0.0,0.0,0.0,0.0,0.0,0.0,0.0,0.0,0.0,0.0,0.0,0.0,0.0,0.0,0.0,0.0,0.0,0.0,0.0,0.0,0.0,0.0,0.0,0.0,0.0,0.0,-4.7484,-4.9714,-4.9935,-5.0268,0.0,0.0,-5.1278,-5.0594,-4.9876,-4.9154,-4.8362,0.0,0.0,0.0,0.0,0.0,0.0,0.0,0.0,0.0,0.0,0.0,0.0,0.0,0.0,0.0,0.0,0.0,0.0,0.0,0.0,0.0,0.0,0.0,0.0,0.0,0.0,0.0,0.0,0.0,0.0,0.0,0.0,0.0,0.0,0.0,0.0,0.0,0.0,0.0,0.0,0.0,0.0,0.0,0.0,0.0,0.0,0.0,0.0,0.0,0.0,0.0,0.0,0.0,-5.2943,-5.7548,-6.2585,-6.7102,-7.0982,-7.2407,-7.3554,-7.4503,-7.213,-6.9508,0.0,0.0,0.0,0.0,0.0,0.0,0.0,0.0,0.0,0.0,0.0,0.0,0.0,0.0,0.0,0.0,0.0,0.0,0.0,0.0,0.0,0.0,0.0,0.0,0.0,0.0,0.0,0.0,-3.9914,-3.9949,-4.0365,0.0,0.0,0.0,0.0,0.0,0.0,0.0,0.0,0.0,0.0,-4.896,-5.0638,-5.1365,0.0,0.0,-5.2409,-5.2275,-5.1999,-5.0943,-4.9919,-4.9197,-4.8054,0.0,0.0,0.0,0.0,0.0,0.0,0.0,0.0,0.0,0.0,0.0,0.0,0.0,0.0,0.0,0.0,0.0,0.0,0.0,0.0,0.0,0.0,0.0,0.0,0.0,0.0,0.0,0.0,0.0,0.0,0.0,0.0,0.0,0.0,0.0,0.0,0.0,0.0,0.0,0.0,0.0,0.0,0.0,0.0,0.0,0.0,0.0,0.0,0.0,0.0,0.0,0.0,-5.3818,-5.7999,-6.2799,-6.7001,-7.0546,-7.1489,-7.2482,-7.3483,-7.1392,-6.9054,0.0,0.0,0.0,0.0,0.0,0.0,0.0,0.0,0.0,0.0,0.0,0.0,0.0,0.0,0.0,0.0,0.0,0.0,0.0,0.0,0.0,0.0,0.0,0.0,0.0,0.0,0.0,0.0,-4.1655,-4.1636,-4.1772,0.0,0.0,0.0,0.0,0.0,0.0,0.0,0.0,0.0,0.0,-5.0645,-5.1839,-5.2775,-5.3474,-5.3646,-5.368,-5.351,-5.3101,-5.2147,-5.1128,-5.0175,0.0,0.0,0.0,0.0,0.0,0.0,0.0,0.0,0.0,0.0,0.0,0.0,0.0,0.0,0.0,0.0,0.0,0.0,0.0,0.0,0.0,0.0,0.0,0.0,0.0,0.0,0.0,0.0,0.0,0.0,0.0,0.0,0.0,0.0,0.0,0.0,0.0,0.0,0.0,0.0,0.0,0.0,0.0,0.0,0.0,0.0,0.0,0.0,0.0,0.0,0.0,0.0,0.0,0.0,-5.8452,-6.2437,-6.6116,-6.9525,-7.0728,-7.162,-7.2248,-7.0417,-6.8692,-6.7151,0.0,0.0,0.0,0.0,0.0,0.0,0.0,0.0,0.0,0.0,0.0,0.0,0.0,0.0,0.0,0.0,0.0,0.0,0.0,0.0,0.0,0.0,0.0,0.0,0.0,0.0,-4.4549,-4.4812,-4.4859,0.0,0.0,0.0,0.0,0.0,0.0,0.0,0.0,0.0,0.0,-5.1071,-5.2636,-5.3671,-5.4362,-5.4941,-5.5515,-5.5581,-5.5141,-5.3754,-5.345,-5.2942,0.0,0.0,0.0,0.0,0.0,0.0,0.0,0.0,0.0,0.0,0.0,0.0,0.0,0.0,0.0,0.0,0.0,0.0,0.0,0.0,0.0,0.0,0.0,0.0,0.0,0.0,0.0,-4.8299,-4.8418,0.0,0.0,0.0,0.0,0.0,0.0,0.0,0.0,0.0,0.0,0.0,-5.8513,-5.8507,0.0,0.0,0.0,0.0,0.0,0.0,0.0,0.0,0.0,0.0,0.0,0.0,-5.634,-5.9591,-6.3095,-6.6472,-6.9533,-6.9484,-7.0036,-7.1303,-6.9339,-6.7198,-6.4851,0.0,0.0,0.0,0.0,0.0,0.0,0.0,0.0,0.0,0.0,0.0,0.0,0.0,0.0,0.0,0.0,0.0,0.0,0.0,0.0,0.0,0.0,0.0,0.0,0.0,-4.5114,0.0,0.0,0.0,0.0,0.0,0.0,0.0,0.0,0.0,0.0,0.0,-5.1402,-5.205,-5.3418,-5.4548,-5.5313,-5.5519,-5.5689,0.0,0.0,0.0,0.0,0.0,0.0,0.0,0.0,0.0,0.0,0.0,0.0,0.0,0.0,-4.5295,-4.4777,-4.45,-4.4042,-4.3138,0.0,0.0,0.0,0.0,0.0,0.0,0.0,0.0,0.0,0.0,0.0,0.0,0.0,0.0,0.0,0.0,-5.2787,0.0,0.0,0.0,0.0,0.0,0.0,0.0,0.0,-5.7935,-6.0027,-6.2386,-6.1755,-6.1997,0.0,-6.1963,-6.0065,0.0,0.0,0.0,0.0,0.0,0.0,0.0,0.0,-5.8118,-6.0391,-6.3677,-6.6595,-6.8878,-6.8743,-6.9081,-7.0151,-6.7679,-6.5419,-6.3693,-5.987,-5.7778,0.0,0.0,0.0,0.0,0.0,0.0,0.0,0.0,0.0,0.0,0.0,0.0,0.0,0.0,0.0,0.0,0.0,0.0,0.0,0.0,0.0,0.0,0.0,-4.7262,0.0,0.0,0.0,0.0,0.0,0.0,0.0,0.0,0.0,-5.0497,-5.2025,-5.3433,-5.3949,-5.5101,-5.6064,-5.6371,0.0,0.0,0.0,0.0,0.0,0.0,0.0,-5.4194,-5.3923,-5.2841,-5.1826,-5.1285,-5.0328,-4.943,-4.8771,0.0,0.0,-4.5706,-4.5348,-4.4921,-4.4062,-4.3915,-4.4027,-4.4449,-4.4421,-4.47,0.0,0.0,0.0,0.0,0.0,0.0,0.0,0.0,-5.896,-5.9019,0.0,-5.7934,0.0,0.0,0.0,0.0,0.0,0.0,0.0,0.0,-6.2516,-6.4041,-6.5294,-6.4352,-6.4633,-6.5982,-6.4232,-6.3437,-6.3444,-5.9613,0.0,0.0,0.0,0.0,0.0,0.0,-5.9696,-6.1016,-6.4154,-6.6364,-6.7697,-6.8409,-6.8797,-6.8732,-6.5406,-6.3577,-6.3517,-6.006,-5.8184,-5.8298,-5.6132,0.0,0.0,0.0,0.0,0.0,0.0,0.0,0.0,0.0,0.0,0.0,0.0,0.0,0.0,0.0,0.0,0.0,0.0,0.0,0.0,-4.8457,0.0,0.0,0.0,0.0,0.0,0.0,0.0,0.0,0.0,0.0,-5.3117,-5.3791,-5.4583,-5.5005,0.0,0.0,0.0,0.0,-5.7918,-5.7884,-5.7884,-5.7577,-5.69,-5.6121,-5.5343,-5.4634,0.0,0.0,-5.142,-5.0701,-5.0045,-4.9297,-4.8596,-4.7888,-4.6494,-4.5807,-4.5405,-4.5302,-4.5267,-4.531,-4.5203,-4.5001,-4.5138,-6.8125,0.0,0.0,0.0,0.0,-6.2471,-6.3088,-6.3608,-6.4337,-6.4379,-6.3858,-6.2659,0.0,0.0,0.0,0.0,0.0,0.0,-6.2047,-6.4091,-6.4769,-6.6389,-6.8752,-6.7762,-6.7528,-6.7927,-6.7108,-6.5827,-6.422,-6.3371,-6.1475,-5.8791,0.0,0.0,0.0,0.0,-6.1715,-6.2837,-6.4882,-6.6547,-6.7759,-6.7574,-6.7258,-6.6765,-6.3578,-6.2125,-6.2549,-5.8813,-5.7057,-5.7708,-5.5823,0.0,0.0,0.0,0.0,0.0,0.0,0.0,0.0,0.0,0.0,0.0,0.0,0.0,0.0,0.0,0.0,0.0,0.0,0.0,-4.9901,-5.1017,-5.1836,0.0,0.0,0.0,0.0,0.0,0.0,0.0,0.0,0.0,-5.6335,-5.6711,-5.6917,0.0,0.0,-5.8441,-5.7895,-5.7997,-5.8133,-5.8099,0.0,0.0,0.0,-5.5538,-5.446,-5.3719,-5.2606,-5.1588,-5.0767,-5.0048,-4.9362,-4.8733,-4.7683,-4.6741,-4.6419,-4.609,-4.572,-4.5267,-4.513,-4.5103,-4.5042,-4.5015,-4.52,-7.3182,-6.965,-6.7874,-6.6855,-6.6454,-6.7157,-6.7732,-6.8232,-6.8903,-6.87,-6.7895,-6.708,-6.5769,-6.4011,-6.2294,0.0,0.0,0.0,-6.5329,-6.6921,-6.7512,-6.883,-7.0562,-6.9623,-6.9534,-7.0116,-6.8857,-6.7613,-6.6538,-6.6216,-6.4966,-6.2725,0.0,0.0,-6.124,-6.2503,-6.3494,-6.4207,-6.5468,-6.6533,-6.7354,-6.6523,-6.6114,-6.5979,-6.265,-6.137,-6.2415,-5.8327,-5.6473,-5.7452,-5.578,-5.4756,0.0,0.0,0.0,0.0,0.0,0.0,0.0,0.0,0.0,0.0,0.0,-4.4998,0.0,0.0,0.0,0.0,-4.9292,-5.0743,-5.2317,-5.3053,0.0,0.0,0.0,0.0,0.0,0.0,0.0,-5.6639,-5.7342,-5.7701,-5.7621,-5.7806,-5.7782,-5.727,-5.7944,-5.8214,-5.7507,0.0,-5.7446,-5.7107,-5.6428,-5.5884,-5.5778,-5.4495,-5.3247,-5.2505,-5.1254,-5.0299,-4.998,-4.909,-4.8362,-4.7991,-4.714,-4.6399,-4.6399,-4.6103,-4.5706,-4.526,-4.5157,-4.5157,-4.5157,-4.513,-4.524,-7.6977,-7.5585,-7.2938,-7.1384,-7.0854,-7.1572,-7.1855,-7.1918,-7.258,-7.2139,-7.0998,-7.1098,-6.9603,-6.6997,-6.5873,0.0,0.0,-6.7672,-6.8499,-6.9477,-7.0411,-7.1111,-7.1466,-7.0548,-7.0947,-7.2302,-6.9763,-6.8918,-6.9636,-6.8351,-6.7332,-6.6596,-6.5269,-6.4395,-6.4108,-6.4835,-6.5271,-6.5386,-6.6017,-6.6439,-6.6698,-6.5496,-6.5269,-6.6102,-6.2281,-6.1014,-6.2625,-5.8374,-5.6447,-5.7357,-5.6018,-5.5101,-5.4953,0.0,0.0,0.0,0.0,0.0,0.0,0.0,0.0,0.0,0.0,0.0,0.0,0.0,0.0,0.0,-5.2361,0.0,-5.395,-5.4735,0.0,0.0,0.0,-5.6265,-5.6877,-5.6693,-5.678,-5.7419,0.0,0.0,0.0,0.0,-5.7379,-5.7092,-5.7159,-5.6958,-5.6188,-5.6236,-5.6073,-5.5404,-5.4767,-5.4431,-5.4329,-5.2977,-5.1659,-5.0916,-4.9731,-4.8911,-4.8893,-4.8021,-4.7278,-4.7408,-4.69,-4.6466,-4.6493,-4.588,-4.5397,-4.5397,-4.5397,-4.5397,-4.5371,-4.5318,-4.5238,-7.9028,-7.8195,-7.7524,-7.565,-7.3182,-7.3807,-7.4149,-7.4212,-7.49,-7.4712,-7.3868,-7.3427,-7.1956,-6.9797,-6.9008,-6.9102,-6.9828,-6.9484,-7.0188,-7.1581,-7.1397,-7.1715,-7.2583,-7.2368,-7.2214,-7.1997,-7.0857,-6.9957,-6.9414,-6.882,-6.8256,-6.784,-6.7896,-6.7298,-6.614,-6.6552,-6.685,-6.6857,-6.7684,-6.7597,-6.6698,-6.525,-6.4669,-6.5062,-6.1726,-6.0456,-6.1307,-5.8717,-5.7058,-5.6765,-5.621,-5.5804,-5.5545,-5.5166,0.0,0.0,0.0,0.0,0.0,0.0,0.0,0.0,0.0,-4.8615,-5.0556,0.0,-5.2117,0.0,-5.345,-5.4227,-5.5003,-5.5712,0.0,0.0,-5.6865,-5.7027,-5.6655,-5.6549,-5.6505,-5.6526,-5.6633,-5.6637,-5.6526,-5.6526,-5.6087,-5.5013,-5.6003,-5.6453,-5.5204,-5.5003,-5.4801,-5.4058,-5.3315,-5.2841,-5.2505,-5.0923,-4.934,-4.8565,-4.7845,-4.7416,-4.7646,-4.6982,-4.648,-4.6701,-4.6197,-4.5742,-4.5707,-4.55,-4.5432,-4.5397,-4.5397,-4.5397,-4.5397,-4.5371,-4.5371,-8.0155,-7.954,-7.957,-7.8076,-7.5771,-7.6112,-7.6112,-7.5864,-7.6236,-7.6019,-7.5369,-7.4346,-7.3292,-7.2207,-7.1495,-7.1588,-7.2176,-7.1835,-7.2054,-7.2614,-7.2583,-7.2583,-7.2552,-7.2829,-7.2798,-7.2398,-7.1383,-7.0581,-6.9988,-6.941,-6.8857,-6.8482,-6.8981,-6.8901,-6.8368,-6.8316,-6.8136,-6.7744,-6.7641,-6.7134,-6.623,-6.492,-6.4496,-6.4978,-6.2347,-6.1232,-6.2075,-5.9777,-5.8382,-5.7921,-5.7302,-5.6765,-5.6376,-5.6087,-5.5696,0.0,0.0,0.0,0.0,0.0,0.0,0.0,0.0,0.0,0.0,0.0,-5.4056,0.0,-5.5394,-5.5794,-5.6197,-5.6298,-5.6438,-5.6586,-5.6508,-5.6371,-5.6039,-5.5934,-5.5859,-5.5749,-5.5822,-5.5895,-5.5825,-5.5255,-5.4619,-5.385,-5.4091,-5.4092,-5.3516,-5.3416,-5.3214,-5.2504,-5.149,-5.0543,-4.9907,-4.8695,-4.775,-4.7278,-4.6727,-4.6399,-4.6618,-4.6122,-4.5692,-4.5964,-4.5707,-4.5397,-4.5397,-4.5397,-4.5397,-4.5397,-4.5397,-4.5397,-4.5397,-4.5397,-4.5328,-8.074,-8.0217,-8.0155,-7.9355,-7.8154,-7.8062,-7.7631,-7.7016,-7.7016,-7.6677,-7.6061,-7.4799,-7.4276,-7.4214,-7.3537,-7.3599,-7.4245,-7.4153,-7.3753,-7.3168,-7.3722,-7.326,-7.2029,-7.2645,-7.2952,-7.2798,-7.1536,-7.0859,-7.0736,-6.9859,-6.9219,-6.8794,-6.9133,-6.9517,-6.9995,-6.9606,-6.9053,-6.8267,-6.6922,-6.6085,-6.5777,-6.4821,-6.4673,-6.531,-6.3417,-6.2683,-6.3402,-6.1291,-6.001,-5.9783,-5.8743,-5.791,-5.7364,-5.6962,-5.6553,0.0,-5.4828,0.0,0.0,0.0,0.0,0.0,0.0,0.0,0.0,-5.4979,-5.5773,-5.6943,-5.708,-5.7014,-5.6909,-5.6378,-5.6121,-5.6233,-5.5554,-5.5152,-5.5228,-5.5051,-5.4946,-5.4879,-5.4845,-5.4953,-5.5028,-5.3919,-5.3146,-5.3011,-5.2064,-5.139,-5.1396,-5.153,-5.136,-5.0687,-4.9533,-4.8376,-4.7225,-4.6786,-4.665,-4.6481,-4.5974,-4.5654,-4.5896,-4.5337,-4.4966,-4.5206,-4.5225,-4.5251,-4.5259,-4.5328,-4.5397,-4.5397,-4.5397,-4.5397,-4.5397,-4.5397,-4.5156,-8.0986,-8.0832,-8.034,-7.9632,-7.8862,-7.8278,-7.7631,-7.7016,-7.7016,-7.6954,-7.6769,-7.5969,-7.563,-7.5569,-7.4922,-7.4984,-7.56,-7.5046,-7.4461,-7.3783,-7.3937,-7.326,-7.206,-7.2675,-7.2706,-7.2121,-7.1321,-7.0613,-7.009,-6.9642,-6.9073,-6.851,-6.902,-6.9185,-6.897,0.0,0.0,0.0,-6.7089,-6.6299,-6.6396,-6.566,-6.5152,-6.4964,-6.4111,0.0,-6.3038,-6.2378,-6.1502,-6.0314,-5.9891,0.0,0.0,0.0,0.0,0.0,0.0,0.0,0.0,0.0,0.0,0.0,-5.4679,-5.4763,-5.5492,-5.6112,-5.6188,-5.5742,-5.5819,-5.5591,-5.4882,-5.4978,-5.5095,-5.5132,-5.5071,-5.4912,-5.4379,-5.4351,-5.4219,-5.3649,-5.3719,-5.3821,-5.3822,-5.3045,-5.2267,-5.1726,-5.0879,-5.0137,-4.9634,-4.9634,-4.9328,-4.8551,-4.777,-4.6921,-4.6041,-4.5906,-4.5703,-4.5162,-4.4953,-4.493,-4.5043,-4.4612,-4.4213,-4.444,-4.4518,-4.4492,-4.4492,-4.4975,-4.5363,-4.5397,-4.5397,-4.5397,-4.5397,-4.5397,-4.5156,-8.1048,0.0,-8.0371,-7.9724,0.0,-7.8339,-7.7662,-7.7016,-7.7016,-7.7016,-7.6985,-7.6646,-7.6523,-7.6492,-7.6154,-7.6184,-7.6461,-7.5815,-7.5138,-7.4491,-7.4153,-7.3445,-7.2491,-7.2829,-7.2645,-7.1967,-7.1229,-7.0551,-6.9874,-6.9065,-6.859,-6.8422,-6.8307,-6.8301,-6.8257,-6.8052,-6.8166,-6.8595,-6.7123,-6.6269,-6.608,-6.554,-6.4945,-6.4429,0.0,0.0,0.0,0.0,0.0,0.0,0.0,0.0,0.0,0.0,0.0,-5.6409,-5.5523,-5.493,-5.4809,-5.4579,-5.4782,-5.5496,-5.5725,-5.5996,-5.6264,-5.6188,-5.5979,-5.5501,-5.5213,-5.4887,-5.4527,-5.4379,-5.4328,-5.4508,-5.4313,-5.4015,-5.3817,-5.3853,-5.3753,-5.345,-5.3416,-5.3382,-5.2942,-5.2266,-5.1488,-5.0744,-5.0033,-4.9424,-4.9052,-4.868,-4.8105,-4.7022,-4.6549,-4.6007,-4.5331,-4.5162,-4.4891,-4.4215,-4.4067,-4.4034,-4.3875,-4.3613,-4.3503,-4.3708,-4.3759,-4.3759,-4.3828,-4.438,-4.4837,-4.4906,-4.5156,-4.5397,-4.5397,-4.5397,-4.5052,-8.1048,-8.0986,-8.0248,-7.9601,-7.9047,-7.8216,-7.7539,-7.7016,0.0,0.0,0.0,-7.7016,-7.7016,-7.7016,-7.7016,-7.7016,-7.6985,-7.6308,-7.5569,-7.4799,-7.4245,-7.3568,-7.2829,-7.2798,-7.2429,-7.1783,-7.1075,-7.0367,-6.969,-6.852,-6.7958,-6.806,-6.744,-6.7262,-6.7385,-6.6854,-6.6892,-6.7462,-6.6712,-6.6049,-6.5628,-6.5065,-6.4501,-6.3961,-6.3838,-6.3415,-6.2704,-6.2483,-6.1869,-6.0975,-6.0173,-5.9371,-5.8475,-5.7592,-5.685,-5.6344,-5.5458,-5.5072,-5.5287,-5.5122,-5.5278,-5.5806,-5.6113,-5.636,-5.6481,-5.5913,-5.5483,-5.518,-5.4692,-5.4372,-5.4349,-5.3925,-5.3737,-5.4053,-5.3583,-5.3314,-5.3484,-5.3518,-5.3484,-5.3518,-5.3518,-5.3213,-5.2435,-5.1725,-5.0947,-5.0202,-4.9526,-4.8849,-4.8612,-4.8071,-4.7192,-4.5872,-4.5534,-4.5297,-4.4818,-4.4649,-4.4248,-4.3639,-4.3545,-4.3374,-4.2919,-4.2706,-4.279,-4.294,-4.2965,-4.2965,-4.3034,-4.3621,-4.4069,-4.4104,-4.4561,-4.4983,-4.5044,-4.5121,-4.4803,-8.1048,-8.1055,-7.9755,-7.9201,-7.9016,-7.7724,-7.7108,-7.7016,-7.7016,-7.7016,-7.7016,-7.7016,-7.7016,-7.7016,-7.7016,-7.7016,-7.6985,-7.6338,-7.5323,0.0,-7.403,-7.3322,-7.2152,-7.2121,-7.1752,-7.1044,-7.0367,-6.969,-6.9012,-6.8274,-6.7627,-6.7099,-6.6703,-6.633,-6.6043,-6.5887,-6.5598,-6.5196,-6.5017,-6.5236,-6.562,-6.4748,-6.416,-6.4055,-6.3345,-6.262,-6.1918,-6.1498,-6.0977,-6.0192,-5.9324,-5.8518,-5.7739,-5.6288,-5.5482,-5.5559,-5.4751,-5.4528,-5.5113,-5.498,-5.5196,-5.5974,-5.6035,-5.5937,-5.5752,-5.5648,-5.5015,-5.3643,-5.3705,-5.3482,-5.2776,-5.3068,-5.3312,-5.3415,-5.3416,-5.3484,-5.3518,-5.3518,-5.3518,-5.3518,-5.3518,-5.3179,-5.2334,-5.1657,-5.0913,-5.0168,-4.9455,-4.8578,-4.756,-4.7022,-4.6312,-4.5156,-4.475,-4.4716,-4.4615,-4.4581,-4.4242,-4.3538,-4.3478,-4.3299,-4.2612,-4.2218,-4.2034,-4.2147,-4.2206,-4.2206,-4.2206,-4.2792,-4.3241,-4.3345,-4.3552,-4.3655,-4.369,-4.4138,-4.4414,-8.1048,-8.0894,-7.9632,-7.9109,-7.8986,-7.76,-7.7016,-7.7016,-7.7016,-7.7016,-7.7016,-7.7016,-7.7016,-7.7016,-7.7016,-7.6831,-7.6431,-7.5754,-7.4922,-7.3999,-7.3599,-7.3106,-7.2521,-7.2152,-7.1598,-7.089,-7.0213,-6.9536,-6.8858,-6.7873,-6.7227,-6.6858,-6.5985,-6.5441,-6.5273,-6.5242,-6.4956,-6.4274,-6.4511,-6.4639,-6.4608,-6.3798,-6.313,-6.2754,-6.2153,-6.1308,-6.0218,-5.982,-5.9214,-5.8332,-5.7544,-5.6902,-5.6451,-5.5372,-5.5008,-5.5576,-5.4573,-5.4421,-5.5409,-5.5422,-5.5604,-5.6172,-5.5974,-5.5609,-5.5355,-5.4955,-5.4419,-5.3648,-5.3428,-5.3166,-5.2832,-5.3041,-5.328,-5.3348,-5.345,-5.3518,-5.3518,-5.3518,-5.3518,-5.3518,-5.3518,-5.3044,-5.186,-5.142,-5.0744,-4.9763,-4.9215,-4.8531,-4.714,-4.6869,-4.6331,-4.4981,-4.4581,-4.4615,-4.4581,-4.4581,-4.4141,-4.3112,-4.3042,-4.2688,-4.1893,-4.1391,-4.1385,-4.1388,-4.1412,-4.1412,-4.1447,-4.2033,-4.2447,-4.2585,-4.2965,-4.3138,-4.3276,-4.3793,-4.4276,-8.0986,-8.074,-7.957,-7.8924,-7.8555,-7.7477,-7.7016,-7.7016,-7.7016,-7.7016,-7.7016,-7.7016,-7.7016,-7.7016,-7.7016,-7.6646,-7.5969,-7.5292,-7.4645,-7.3968,-7.3291,-7.2983,-7.2891,-7.2152,-7.1444,-7.0859,-7.0059,-6.932,-6.8581,-6.7473,-6.6765,-6.6396,-6.5411,-6.4888,-6.4888,-6.4888,-6.4549,-6.3872,-6.4088,-6.4044,-6.3462,-6.2706,-6.2021,-6.1461,-6.0821,-5.992,-5.8731,-5.8248,-5.7557,-5.6682,-5.5917,-5.5388,-5.5082,-5.4383,-5.4456,-5.5225,-5.4562,-5.4577,-5.5794,-5.6033,-5.6144,-5.6177,-5.5747,-5.5318,-5.4912,-5.4315,-5.3844,-5.3707,-5.3273,-5.3075,-5.3144,-5.3247,-5.3348,-5.3484,-5.3518,-5.3518,-5.3518,-5.3518,-5.3518,-5.3518,-5.3348,-5.2672,-5.1589,-5.1048,-5.0439,-4.9419,-4.9168,-4.8715,-4.7622,-4.7214,-4.6442,-4.5343,-4.4744,-4.4615,-4.4581,-4.4581,-4.4128,-4.2947,-4.2773,-4.2287,-4.1445,-4.104,-4.0905,-4.0963,-4.0929,-4.0963,-4.0963,-4.1343,-4.1723,-4.1792,-4.2171,-4.262,-4.2861,-4.3483,-4.4104,-8.074,-8.0124,-7.9386,-7.837,-7.7293,-7.7077,-7.7016,-7.7016,-7.7016,-7.7016,-7.7016,-7.7016,-7.7016,-7.7016,-7.7016,-7.6646,-7.5969,-7.5323,-7.4645,-7.3937,-7.3291,-7.2983,-7.2829,-7.1629,-7.0952,-7.0736,-6.9597,-6.8705,-6.8058,-6.7258,-6.6273,-6.5226,-6.4949,-6.4888,-6.4888,-6.4888,-6.4549,-6.3787,-6.3279,-6.294,-6.2817,-6.1668,-6.0959,-6.0897,-5.9633,-5.8696,-5.7973,-5.7276,-5.6614,-5.5857,-5.5162,-5.4515,-5.3959,-5.3236,-5.3369,-5.4469,-5.4674,-5.5182,-5.6311,-5.6784,-5.6566,-5.5776,-5.5388,-5.4946,-5.4421,-5.3888,-5.3382,-5.3176,-5.3143,-5.3179,-5.3213,-5.3348,-5.3484,-5.3484,-5.3518,-5.3518,-5.3518,-5.3518,-5.3518,-5.3518,-5.2976,-5.2097,-5.132,-5.0642,-4.9961,-4.9304,-4.935,-4.9133,-4.828,-4.7665,-4.692,-4.5926,-4.5168,-4.4682,-4.4615,-4.4581,-4.4264,-4.3654,-4.3079,-4.2484,-4.1847,-4.1247,-4.0894,-4.0929,-4.0894,-4.0894,-4.0894,-4.0998,-4.1032,-4.117,-4.1309,-4.1412,-4.1999,-4.2792,-4.3483,-8.0679,-8.0063,-7.9355,-7.8278,-7.7108,-7.7016,-7.7016,-7.7016,-7.7016,-7.7016,-7.7016,-7.7016,-7.7016,-7.7016,-7.7016,-7.6431,-7.5415,-7.5107,-7.4399,-7.3445,-7.3106,-7.2768,-7.2306,-7.1383,-7.0705,-7.0244,-6.932,-6.8551,-6.7843,-6.6858,-6.5842,-6.5011,-6.4888,-6.4888,-6.4888,-6.4888,-6.4549,-6.3787,-6.3564,-6.3041,-6.221,-6.1317,-6.0794,-6.064,-5.947,-5.8454,-5.7795,-5.6779,-5.5992,-5.5653,-5.4699,-5.3976,-5.3699,-5.3203,-5.3551,-5.4937,-5.6068,-5.6805,-5.7116,-5.676,-5.6481,-5.643,-5.5199,-5.445,-5.4462,-5.3924,-5.3517,-5.3416,-5.3382,-5.3382,-5.3382,-5.345,-5.3518,-5.3518,-5.3518,-5.3518,-5.3518,-5.3518,-5.3518,-5.3484,-5.3213,-5.2503,-5.1352,-5.0232,-4.9576,-4.9385,-4.953,-4.9311,-4.866,-4.8214,-4.7501,-4.6418,-4.5759,-4.5252,-4.4772,-4.4699,-4.4442,-4.3966,-4.3655,-4.3263,-4.2221,-4.1788,-4.1447,-4.0998,-4.0929,-4.0894,-4.0894,-4.0894,-4.0894,-4.0894,-4.0894,-4.1032,-4.1309,-4.2344,-4.3207,-8.0586,-7.9755,-7.8862,-7.7842,-7.7046,-7.7016,-7.7016,-7.7016,-7.7016,-7.7016,-7.7016,-7.7016,-7.6923,-7.6769,-7.6739,-7.6092,-7.5076,-7.4799,-7.4122,-7.3076,-7.2983,-7.2645,-7.1967,-7.1259,-7.0551,-6.9874,-6.9228,-6.8458,-6.7596,-6.6304,-6.538,-6.4949,-6.4888,-6.4888,-6.4888,-6.4888,-6.4641,-6.4149,-6.3933,-6.3256,-6.2179,-6.1409,-6.0886,-6.0455,-5.9408,-5.8454,-5.7826,-5.6638,-5.5899,-5.5684,-5.4607,-5.3899,-5.3714,-5.3324,-5.3899,-5.566,-5.709,-5.7956,-5.804,-5.6996,-5.6455,-5.654,-5.5001,-5.4082,-5.416,-5.3923,-5.3751,-5.3783,-5.3718,-5.3618,-5.3551,-5.3517,-5.3518,-5.3518,-5.3518,-5.3484,-5.3551,-5.3551,-5.3584,-5.3618,-5.3414,-5.2736,-5.131,-5.028,-4.9752,-4.9599,-4.9679,-4.9629,-4.9079,-4.8804,-4.8186,-4.7093,-4.6535,-4.5747,-4.4918,-4.4776,-4.4606,-4.4407,-4.4197,-4.3718,-4.2674,-4.2482,-4.1964,-4.1447,-4.1136,-4.0929,-4.0894,-4.0894,-4.0894,-4.0894,-4.0894,-4.0894,-4.0998,-4.2206,-4.3,-8.0309,-7.9016,-7.7693,-7.7108,-7.7016,-7.7016,-7.7016,-7.7016,-7.7016,-7.7016,-7.7016,-7.6985,-7.6646,-7.6092,-7.6031,-7.5661,-7.4953,-7.4368,-7.3691,-7.3014,-7.2983,-7.2614,-7.1937,-7.1229,-7.0551,-6.9782,-6.9105,-6.8181,-6.6919,-6.5626,-6.4949,-6.4918,-6.4888,-6.4888,-6.4888,-6.4888,-6.4888,-6.4734,-6.421,-6.3472,-6.2764,-6.2086,-6.1163,-6.0024,-5.9193,-5.8566,-5.7857,-5.7148,-5.6471,-5.5715,-5.5037,-5.4345,-5.3775,-5.3355,-5.4197,-5.6252,-5.7368,-5.8323,-5.8857,-5.7879,-5.6817,-5.6008,-5.4868,-5.3881,-5.3619,-5.3685,-5.3817,-5.3982,-5.405,-5.395,-5.3818,-5.3652,-5.3551,-5.3551,-5.3518,-5.3584,-5.3684,-5.3684,-5.3783,-5.3813,-5.3369,-5.2482,-5.0977,-5.0784,-5.0369,-4.9983,-4.9894,-4.9913,-4.9775,-4.9258,-4.8753,-4.822,-4.7271,-4.6014,-4.5227,-4.4995,-4.5015,-4.4883,-4.4524,-4.413,-4.3683,-4.3172,-4.2516,-4.1861,-4.1412,-4.1136,-4.0963,-4.0894,-4.0894,-4.0894,-4.0894,-4.0894,-4.0894,-4.2206,-4.3,-7.9663,-7.8339,-7.7416,-7.7016,-7.7016,-7.7016,-7.7016,-7.7016,-7.7016,-7.7016,-7.6954,-7.6585,-7.6246,-7.5969,-7.5107,-7.4584,-7.4338,-7.4091,-7.363,-7.3045,-7.2983,-7.2398,-7.1352,-7.1013,-7.0305,-6.9289,-6.8581,-6.7566,-6.6304,-6.5319,-6.4888,-6.4888,-6.4888,-6.4888,-6.4888,-6.4888,-6.4888,-6.4857,-6.4641,-6.3964,-6.2887,-6.2579,-6.1809,-6.0486,-5.9778,-5.9101,-5.8423,-5.7826,-5.7148,-5.644,-5.5345,-5.4684,-5.4591,-5.4438,-5.4913,-5.6253,-5.7483,-5.8486,-5.9072,-5.8371,-5.7394,-5.6453,-5.5362,-5.4317,-5.3653,-5.3717,-5.4151,-5.4693,-5.4862,-5.483,-5.4661,-5.4189,-5.385,-5.3817,-5.3817,-5.385,-5.3882,-5.3882,-5.3915,-5.3878,-5.3331,-5.2646,-5.2155,-5.1463,-5.0867,-5.0582,-5.0257,-5.008,-4.9976,-4.9735,-4.9361,-4.8822,-4.8271,-4.7451,-4.6185,-4.5459,-4.515,-4.5142,-4.4947,-4.4621,-4.4216,-4.3966,-4.3379,-4.2758,-4.2137,-4.1619,-4.155,-4.117,-4.1101,-4.0894,-4.0894,-4.0894,-4.0894,-4.2206,-4.2896,-7.9109,-7.8001,-7.7293,-7.7016,-7.7016,-7.7016,-7.7016,-7.7016,-7.7016,-7.6892,-7.6615,-7.6184,-7.5784,-7.5292,-7.4399,-7.3845,-7.366,-7.366,-7.3414,-7.2983,-7.2768,-7.2029,-7.1044,-7.0675,-6.9967,-6.8889,-6.7997,-6.6981,-6.5934,-6.5226,-6.4918,-6.4888,-6.4888,-6.4888,-6.4888,-6.4888,-6.4888,-6.4888,-6.4888,-6.421,-6.301,-6.2825,-6.2148,-6.0948,-6.0332,-5.9686,-5.8824,-5.8165,-5.7518,-5.6748,-5.5468,-5.4653,-5.4677,-5.4788,-5.5282,-5.624,-5.7215,-5.8193,-5.8805,-5.8167,-5.7343,-5.6785,-5.5603,-5.4488,-5.3924,-5.3986,-5.4419,-5.4958,-5.5369,-5.5438,-5.5369,-5.4893,-5.4384,-5.4081,-5.398,-5.4013,-5.4045,-5.4078,-5.411,-5.4108,-5.3798,-5.3418,-5.3135,-5.2306,-5.1783,-5.1498,-5.0838,-5.039,-5.0355,-5.0114,-4.9873,-4.9286,-4.8913,-4.8327,-4.7369,-4.6556,-4.5635,-4.5455,-4.5249,-4.5018,-4.4768,-4.4552,-4.4207,-4.3621,-4.3034,-4.2482,-4.1964,-4.1585,-4.1274,-4.1032,-4.0894,-4.0894,-4.1412,-4.2171,-4.2861,-7.8647,-7.7908,-7.7293,-7.7016,-7.7016,-7.7016,-7.7016,-7.7016,-7.6985,-7.6615,-7.6154,-7.5938,-7.5169,-7.4276,-7.3968,-7.3599,-7.3168,-7.3106,-7.3076,-7.2952,-7.2337,-7.166,-7.089,-7.0274,-6.9505,-6.8643,-6.7535,-6.6581,-6.5811,-6.5195,-6.4888,-6.4888,-6.4888,-6.4888,-6.4888,-6.4888,-6.4888,-6.4888,-6.4857,-6.4149,-6.301,-6.2764,-6.2117,-6.0948,-6.0701,-6.0055,-5.8824,-5.8177,-5.758,-5.6779,-5.5499,-5.4435,-5.411,-5.4283,-5.5069,-5.6201,-5.6717,-5.7438,-5.8264,-5.7416,-5.6981,-5.6806,-5.5518,-5.4866,-5.4771,-5.4561,-5.448,-5.4743,-5.5221,-5.56,-5.5669,-5.5602,-5.5195,-5.4249,-5.4114,-5.411,-5.4175,-5.4207,-5.4271,-5.4399,-5.4328,-5.4118,-5.3667,-5.3187,-5.2843,-5.2257,-5.1597,-5.1114,-5.1045,-5.0597,-5.0114,-4.9873,-4.9465,-4.8844,-4.8258,-4.7603,-4.6569,-4.5742,-4.5474,-4.5259,-4.5087,-4.4906,-4.4699,-4.4182,-4.369,-4.3138,-4.2482,-4.2102,-4.1895,-4.1654,-4.1343,-4.124,-4.1861,-4.2551,-4.3,-7.797,-7.7323,-7.7108,-7.7016,-7.7016,-7.7016,-7.7016,-7.6954,-7.6523,-7.6215,-7.5877,-7.5015,-7.4368,-7.3968,-7.3537,-7.3199,-7.2983,-7.2983,-7.2983,-7.286,-7.2275,-7.1567,-7.089,-7.0213,-6.9043,-6.772,-6.7135,-6.6304,-6.5349,-6.5011,-6.4888,-6.4888,-6.4888,-6.4888,-6.4888,-6.4888,-6.4888,-6.4857,-6.4395,-6.3687,-6.2856,-6.2364,-6.1686,-6.0886,-6.0363,-5.9686,-5.8824,-5.8577,-5.7949,-5.6871,-5.6089,-5.5347,-5.4844,-5.4826,-5.526,-5.6059,-5.6711,-5.7281,-5.7906,-5.7932,-5.7674,-5.7559,-5.7172,-5.6578,-5.5721,-5.5621,-5.5478,-5.5327,-5.5495,-5.5773,-5.6288,-5.6426,-5.5981,-5.5195,-5.4645,-5.437,-5.4367,-5.4399,-5.4431,-5.4463,-5.4494,-5.4391,-5.4149,-5.3839,-5.3356,-5.3046,-5.2356,-5.1873,-5.177,-5.1252,-5.0804,-5.07,-5.0016,-4.9361,-4.881,-4.8327,-4.7575,-4.6611,-4.606,-4.5707,-4.55,-4.5225,-4.5044,-4.4803,-4.4285,-4.3759,-4.3103,-4.2758,-4.2585,-4.2344,-4.2102,-4.2206,-4.2447,-4.2861,-4.3379,-7.7631,-7.7046,-7.7016,-7.7016,-7.7016,-7.7016,-7.6862,-7.6615,-7.6215,-7.5754,-7.5138,-7.4399,-7.3845,-7.3568,-7.3168,-7.2983,-7.2952,-7.2768,-7.2583,-7.2491,-7.1906,-7.1198,-7.0459,-6.9566,-6.8427,-6.7135,-6.6673,-6.5965,-6.4949,-6.4888,-6.4888,-6.4888,-6.4888,-6.4888,-6.4888,-6.4888,-6.4888,-6.4795,-6.421,-6.3502,-6.2825,-6.2148,-6.1471,-6.0855,-6.0393,-5.9716,-5.8885,-5.8793,-5.8196,-5.7012,-5.6512,-5.6039,-5.5459,-5.5683,-5.5986,-5.6271,-5.681,-5.7264,-5.7487,-5.7707,-5.8071,-5.8008,-5.8084,-5.7961,-5.732,-5.726,-5.6883,-5.6188,-5.6357,-5.646,-5.6357,-5.6357,-5.6219,-5.6115,-5.5359,-5.4839,-5.4598,-5.4494,-5.4494,-5.4494,-5.4494,-5.4494,-5.4391,-5.4184,-5.3804,-5.3701,-5.3149,-5.2666,-5.2494,-5.2011,-5.1632,-5.1218,-5.07,-5.0045,-4.9396,-4.8919,-4.8518,-4.7651,-4.6783,-4.6362,-4.5983,-4.5535,-4.5225,-4.519,-4.4811,-4.4423,-4.3802,-4.3655,-4.3448,-4.3172,-4.2861,-4.2827,-4.2965,-4.3379,-4.3828,-7.76,-7.7046,-7.7016,-7.7016,-7.7016,-7.6954,-7.6585,-7.6092,-7.5846,-7.5138,-7.4245,-7.3937,-7.3568,-7.3106,-7.3014,-7.2952,-7.2829,-7.2337,-7.1906,-7.166,-7.1136,-7.049,-6.9751,-6.8705,-6.775,-6.695,-6.6273,-6.5596,-6.4918,-6.4888,-6.4888,-6.4888,-6.4888,-6.4888,-6.4888,-6.4888,-6.4888,-6.4795,-6.4118,-6.3325,-6.2794,-6.2056,-6.144,-6.0794,-6.064,-6.0055,-5.9131,-5.8781,-5.8153,-5.7047,-5.684,-5.6573,-5.6317,-5.6741,-5.6894,-5.6939,-5.7196,-5.7168,-5.7096,-5.711,-5.7553,-5.8346,-5.8203,-5.8248,-5.913,-5.8937,-5.8256,-5.722,-5.7322,-5.715,-5.6219,-5.577,-5.6046,-5.6529,-5.5943,-5.5253,-5.4632,-5.4494,-5.4494,-5.4494,-5.4494,-5.4494,-5.4494,-5.4425,-5.4425,-5.4322,-5.3839,-5.3529,-5.3287,-5.2804,-5.208,-5.1666,-5.1459,-5.0745,-5.0125,-4.9756,-4.932,-4.8541,-4.7642,-4.7045,-4.6542,-4.6052,-4.5466,-4.5432,-4.5294,-4.4906,-4.4665,-4.4423,-4.4207,-4.3931,-4.3621,-4.3379,-4.3552,-4.4035,-4.4242,-7.7169,-7.7016,-7.7016,-7.7016,-7.6954,-7.6523,-7.6184,-7.5877,-7.4922,-7.4368,-7.3907,-7.3445,-7.3199,-7.2983,-7.2983,-7.2737,-7.2306,-7.2029,-7.1321,-7.0521,-7.0274,-6.9782,-6.9135,-6.8335,-6.7566,-6.6888,-6.618,-6.5565,-6.4949,-6.4888,-6.4888,-6.4888,-6.4888,-6.4888,-6.4888,-6.4888,-6.4888,-6.4703,-6.3656,-6.3071,-6.2702,-6.1686,-6.1009,-6.0794,-6.0363,-5.9932,-5.9459,-5.8715,-5.8045,-5.7416,-5.7166,-5.7584,-5.816,-5.7688,-5.7621,-5.8196,-5.7625,-5.7139,-5.7172,-5.6982,-5.7471,-5.8831,-5.8897,-5.9342,-6.0075,-6.023,-5.9592,-5.8531,-5.7771,-5.7219,-5.7047,-5.6253,-5.6115,-5.6529,-5.6081,-5.5391,-5.477,-5.4494,-5.4494,-5.4494,-5.4494,-5.4494,-5.4494,-5.4494,-5.4494,-5.446,-5.4322,-5.4149,-5.3942,-5.3598,-5.2873,-5.2701,-5.236,-5.1576,-5.0931,-5.0592,-5.0056,-4.932,-4.8562,-4.7866,-4.7264,-4.6652,-4.606,-4.5604,-4.5432,-4.5087,-4.5156,-4.5113,-4.4872,-4.4527,-4.432,-4.4078,-4.4389,-4.4768,-4.4734,-7.7016,-7.7016,-7.7016,-7.6862,-7.6585,-7.6184,-7.5692,-7.5076,-7.4368,-7.3814,-7.3537,-7.3168,-7.2983,-7.2952,-7.2675,-7.2368,-7.1937,-7.1352,-7.0644,-7.0028,-6.9597,-6.9259,-6.8735,-6.7997,-6.7289,-6.6858,-6.5934,-6.5288,-6.4949,-6.4888,-6.4888,-6.4888,-6.4888,-6.4888,-6.4888,-6.4888,-6.4888,-6.4703,-6.3779,-6.3133,-6.2733,-6.1809,-6.1132,-6.0855,-6.0363,-6.0116,-5.9706,-5.8801,-5.8086,-5.7825,-5.7864,-5.8384,-5.9188,-5.8847,-5.8767,-5.9415,-5.8624,-5.8127,-5.7716,-5.7453,-5.7703,-5.8586,-5.9148,-5.9977,-6.0778,-6.1316,-6.1199,-6.0081,-5.915,-5.8357,-5.7357,-5.6322,-5.577,-5.577,-5.5977,-5.5736,-5.5046,-5.4701,-5.4529,-5.4494,-5.4494,-5.4494,-5.4494,-5.4494,-5.4494,-5.4494,-5.4494,-5.446,-5.4391,-5.4046,-5.3701,-5.3391,-5.3084,-5.2368,-5.1695,-5.1261,-5.0727,-4.9991,-4.9364,-4.8641,-4.7969,-4.732,-4.6611,-4.6052,-4.5673,-4.5432,-4.55,-4.55,-4.5259,-4.501,-4.4872,-4.4872,-4.5079,-4.5113,-4.5113,-7.7016,-7.7016,-7.6954,-7.6554,-7.6061,-7.5815,-7.5076,-7.4184,-7.3907,-7.3537,-7.3137,-7.3014,-7.2983,-7.2952,-7.2368,-7.1937,-7.1752,-7.0613,-7.0028,-6.9597,-6.9259,-6.892,-6.8766,-6.7781,-6.7165,-6.6765,-6.5596,-6.5103,-6.4949,-6.4888,-6.4888,-6.4888,-6.4888,-6.4888,-6.4888,-6.4888,-6.4888,-6.4764,-6.4118,-6.3448,-6.2948,-6.2179,-6.1502,-6.1071,-6.0794,-6.0363,-5.9838,-5.9117,-5.859,-5.8075,-5.8673,-5.9161,-5.9539,-6.0076,-6.0205,-6.0024,-5.9761,-5.918,-5.8595,-5.8236,-5.8119,-5.8458,-5.9154,-6.0112,-6.1291,-6.2169,-6.2398,-6.1632,-6.1427,-5.9633,-5.7357,-5.615,-5.5598,-5.5322,-5.5908,-5.6081,-5.5805,-5.5081,-5.4598,-5.4494,-5.4494,-5.4494,-5.4494,-5.4494,-5.4494,-5.4494,-5.4494,-5.4494,-5.4494,-5.4322,-5.4011,-5.3736,-5.3463,-5.3191,-5.2554,-5.1956,-5.1322,-5.0655,-5.0059,-4.9364,-4.866,-4.7951,-4.7238,-4.6665,-4.6259,-4.5949,-4.5742,-4.5673,-4.5535,-4.5363,-4.5156,-4.5225,-4.5363,-4.5294,-4.5259,-7.7016,-7.6985,-7.6461,-7.6154,-7.5846,-7.4892,-7.4276,-7.3937,-7.3414,-7.3168,-7.3014,-7.2983,-7.2983,-7.2922,-7.2214,-7.169,-7.1105,-7.0213,-6.9659,-6.9074,-6.9012,-6.8889,-6.8735,-6.8027,-6.7442,-6.6888,-6.6119,-6.5442,-6.5103,-6.5072,-6.4918,-6.498,-6.5103,-6.4918,-6.4949,-6.498,-6.4918,-6.4764,-6.421,-6.381,-6.3356,-6.2487,-6.1809,-6.1502,-6.1071,-6.0455,-6.0034,-6.0035,-5.975,-5.9207,-5.9202,-5.9802,-6.0509,-6.0481,-6.0719,-6.0998,-6.0259,-5.9538,-5.9193,-5.8636,-5.8352,-5.8825,-5.9304,-6.0266,-6.1397,-6.234,-6.2915,-6.2802,-6.1979,-6.0116,-5.7667,-5.6771,-5.615,-5.5667,-5.5322,-5.5598,-5.6115,-5.5805,-5.515,-5.4736,-5.4563,-5.4529,-5.4529,-5.4494,-5.4494,-5.4494,-5.4494,-5.4494,-5.4494,-5.4494,-5.4322,-5.4011,-5.3946,-5.3676,-5.3046,-5.2477,-5.1843,-5.1272,-5.0748,-5.0154,-4.9423,-4.8913,-4.8333,-4.7596,-4.6837,-4.6535,-4.6328,-4.5914,-4.5776,-4.5604,-4.5466,-4.5466,-4.55,-4.5466,-4.5397,-7.7016,-7.6954,-7.6277,-7.5815,-7.5415,-7.4461,-7.3814,-7.3506,-7.3168,-7.2983,-7.2983,-7.2983,-7.2798,-7.246,-7.1783,-7.1075,-7.0398,-6.9751,-6.9228,-6.8951,-6.8889,-6.8889,-6.8858,-6.852,-6.8027,-6.735,-6.6704,-6.618,-6.5903,-6.5811,-6.5934,-6.5842,-6.5811,-6.5719,-6.5411,-6.538,-6.5195,-6.4918,-6.4549,-6.421,-6.3718,-6.3195,-6.2302,-6.1809,-6.1194,-6.0661,-6.0506,-6.064,-6.089,-6.0852,-6.0495,-6.0402,-6.1061,-6.1086,-6.1408,-6.1761,-6.1385,-6.0415,-5.9968,-5.9248,-5.8769,-5.8685,-5.9074,-5.9663,-6.0442,-6.1385,-6.2059,-6.2352,-6.1979,-6.0944,-5.9116,-5.7702,-5.7081,-5.6322,-5.5839,-5.5736,-5.5736,-5.5632,-5.5529,-5.5115,-5.5081,-5.4839,-5.4701,-5.4632,-5.4529,-5.4529,-5.4494,-5.4494,-5.4494,-5.4494,-5.4494,-5.4391,-5.4425,-5.4161,-5.353,-5.2929,-5.2292,-5.1851,-5.1435,-5.0847,-5.0253,-4.988,-4.9533,-4.8603,-4.7665,-4.732,-4.7017,-4.6569,-4.6224,-4.6155,-4.6017,-4.5776,-4.5569,-4.5535,-4.5466,-7.6954,-7.68,-7.6154,-7.5476,-7.4799,-7.4122,-7.3506,-7.3076,-7.2983,-7.2983,-7.2952,-7.2891,-7.246,-7.1906,-7.1105,-7.0398,-6.9751,-6.9289,-6.892,-6.892,-6.8889,-6.8889,-6.8858,-6.8766,-6.8551,-6.8027,-6.7381,-6.7012,-6.6827,-6.6919,-6.6642,-6.6827,-6.6858,-6.6488,-6.6119,-6.6027,-6.575,-6.5226,-6.5103,-6.4703,-6.4118,-6.381,-6.3041,-6.1933,-6.1483,-6.1103,-6.1133,-6.1265,-6.1687,-6.2876,-6.2145,-6.1655,-6.1475,-6.1465,-6.1911,-6.2341,-6.1902,-6.1434,-6.0778,-6.0063,-5.9321,-5.843,-5.8744,-5.9059,-5.9599,-6.0364,-6.1065,-6.1488,-6.1599,-6.1703,-6.1047,-5.9495,-5.8012,-5.7219,-5.6978,-5.6357,-5.5529,-5.5598,-5.5943,-5.5598,-5.5632,-5.5598,-5.5115,-5.4874,-5.4701,-5.4563,-5.4563,-5.4529,-5.4563,-5.4494,-5.4494,-5.4494,-5.4494,-5.4335,-5.3772,-5.3376,-5.2771,-5.2465,-5.2085,-5.1665,-5.1145,-5.0944,-5.0533,-4.9327,-4.8528,-4.812,-4.7741,-4.7362,-4.7086,-4.6879,-4.6672,-4.65,-4.6121,-4.5638,-4.5569,-7.6677,-7.6123,-7.5446,-7.4799,-7.4122,-7.3445,-7.3106,-7.3014,-7.2922,-7.2952,-7.286,-7.2368,-7.206,-7.1629,-7.0582,-6.972,-6.9228,-6.8951,-6.8889,-6.8889,-6.8889,-6.8889,-6.8889,-6.8889,-6.8797,-6.8612,-6.8058,-6.7535,-6.7135,-6.6919,-6.7165,-6.7012,-6.7042,-6.6888,-6.6827,-6.6704,-6.6427,-6.5811,-6.5657,-6.5257,-6.4764,-6.4057,-6.3318,-6.2086,-6.1875,-6.1681,-6.1483,-6.1841,-6.2199,-6.2364,-6.3464,-6.3594,-6.3154,-6.2356,-6.2146,-6.229,-6.2064,-6.1656,-6.1341,-6.0772,-6.0069,-5.9572,-5.9472,-5.9583,-5.9745,-6.0164,-6.0585,-6.1077,-6.1289,-6.122,-6.0461,-5.9944,-5.915,-5.8254,-5.7702,-5.7564,-5.7288,-5.715,-5.6874,-5.615,-5.6253,-5.6357,-5.5805,-5.5426,-5.5322,-5.5115,-5.4874,-5.4805,-5.477,-5.4632,-5.4494,-5.4494,-5.4494,-5.4303,-5.4011,-5.3649,-5.3247,-5.311,-5.2835,-5.2586,-5.2198,-5.2073,-5.1468,-5.0361,-4.943,-4.8879,-4.8499,-4.8161,-4.7823,-4.752,-4.7375,-4.7258,-4.6714,-4.6232,-4.588,-7.6308,-7.5907,-7.4922,-7.4307,-7.3907,-7.326,-7.2768,-7.2491,-7.246,-7.2244,-7.1906,-7.1567,-7.1198,-7.0798,-7.0274,-6.9536,-6.9043,-6.8889,-6.8889,-6.8889,-6.8889,-6.8889,-6.8889,-6.8889,-6.8889,-6.8797,-6.852,-6.8243,-6.7966,-6.7966,-6.7873,-6.7935,-6.7935,-6.7781,-6.7504,-6.7412,-6.7042,-6.655,-6.6088,-6.575,-6.5319,-6.4426,-6.341,-6.3002,-6.2443,-6.2177,-6.2277,-6.2509,-6.3276,-6.3894,-6.4342,-6.4697,-6.4552,-6.391,-6.3006,-6.2904,-6.234,-6.179,-6.1649,-6.1086,-6.0388,-5.9605,-5.9616,-5.9349,-5.9202,-5.938,-5.9968,-6.0528,-6.0771,-6.0771,-6.0806,-6.0703,-6.0185,-5.9323,-5.8771,-5.8357,-5.8047,-5.7978,-5.7529,-5.6943,-5.7185,-5.7116,-5.646,-5.615,-5.6012,-5.5701,-5.5322,-5.5184,-5.5049,-5.4839,-5.4667,-5.4431,-5.4399,-5.4207,-5.398,-5.3718,-5.3517,-5.3449,-5.3479,-5.32,-5.3051,-5.2826,-5.2299,-5.1464,-5.0636,-4.9918,-4.9344,-4.9011,-4.8598,-4.8192,-4.8117,-4.787,-4.7279,-4.6825,-4.6439,-7.5723,-7.5507,-7.4461,-7.3937,-7.3691,-7.3076,-7.2491,-7.209,-7.1813,-7.1475,-7.0952,-7.0767,-7.0428,-6.9997,-6.972,-6.9382,-6.8889,-6.8889,-6.8889,-6.8889,-6.8889,-6.8889,-6.8889,-6.8889,-6.8889,-6.8889,-6.8828,-6.8889,-6.8735,-6.8705,-6.8828,-6.8735,-6.8828,-6.8674,-6.8212,-6.812,-6.7689,-6.7135,-6.6457,-6.6088,-6.5472,-6.4672,-6.3933,-6.3865,-6.3114,-6.2882,-6.2856,-6.3348,-6.4062,-6.4798,-6.5234,-6.539,-6.6119,-6.5446,-6.4551,-6.393,-6.2898,-6.2186,-6.1703,-6.1474,-6.0841,-6.0052,-5.9519,-5.9186,-5.8863,-5.9007,-5.9114,-5.9736,-5.9978,-6.0289,-6.0703,-6.1013,-6.0703,-6.0289,-5.9668,-5.9288,-5.8875,-5.8737,-5.8875,-5.853,-5.8392,-5.7943,-5.7322,-5.6943,-5.6805,-5.6391,-5.5977,-5.5943,-5.577,-5.5184,-5.4876,-5.4502,-5.4303,-5.411,-5.3882,-5.3718,-5.3584,-5.355,-5.3648,-5.3673,-5.356,-5.3444,-5.2853,-5.2364,-5.1989,-5.1305,-5.0562,-4.9718,-4.9203,-4.8831,-4.8763,-4.8478,-4.7917,-4.732,-4.6825,-7.4769,-7.4214,-7.4061,-7.366,-7.3045,-7.2398,-7.206,-7.1844,-7.1259,-7.1013,-7.0705,-7.0274,-6.9936,-6.9751,-6.9259,-6.9012,-6.892,-6.8889,-6.8889,-6.8889,-6.8889,-6.8889,-6.8889,-6.8889,-6.8889,-6.8889,-6.8889,-6.8889,-6.8889,-6.8889,-6.8889,-6.8889,-6.8889,-6.8828,-6.8674,-6.8643,-6.8427,-6.7812,-6.7135,-6.6211,-6.5257,-6.4857,-6.4395,-6.4127,-6.4048,-6.3964,-6.3519,-6.4009,-6.4671,-6.4964,-6.6055,-6.6554,-6.6745,-6.6669,-6.6253,-6.5372,-6.4167,-6.2737,-6.2159,-6.1862,-6.1425,-6.0684,-6.0385,-5.9973,-5.9481,-5.9148,-5.9116,-5.9047,-5.9185,-5.953,-6.0151,-6.0358,-6.0254,-6.0392,-6.0392,-6.022,-5.9944,-5.915,-5.9323,-5.9599,-5.9323,-5.8806,-5.8254,-5.7909,-5.7564,-5.7081,-5.6736,-5.6702,-5.646,-5.5908,-5.546,-5.5189,-5.4682,-5.4419,-5.4184,-5.392,-5.3718,-5.3684,-5.3815,-5.3977,-5.3935,-5.3822,-5.3716,-5.3232,-5.2891,-5.2145,-5.1059,-5.0245,-4.9701,-4.93,-4.9095,-4.8876,-4.8609,-4.7951,-4.732,-7.3907,-7.3968,-7.3568,-7.3045,-7.2429,-7.2091,-7.1506,-7.0828,-7.0459,-7.009,-6.9782,-6.9474,-6.932,-6.9289,-6.8982,-6.8889,-6.8889,-6.8889,-6.8889,-6.8889,-6.8889,-6.8889,-6.8889,-6.8889,-6.8889,-6.8889,-6.8889,-6.8889,-6.8889,-6.8889,-6.8889,-6.8889,-6.8889,-6.8889,-6.8889,-6.8889,-6.8735,-6.8243,-6.7473,-6.6457,-6.5626,-6.5103,-6.4789,-6.4614,-6.4706,-6.4622,-6.4729,-6.4753,-6.531,-6.5672,-6.6579,-6.6853,-6.704,-6.7071,-6.6848,-6.5977,-6.5318,-6.4201,-6.2912,-6.234,-6.1694,-6.1239,-6.0935,-6.0663,-5.9999,-5.9735,-5.9426,-5.9047,-5.9012,-5.9254,-5.9599,-5.9944,-6.0151,-6.0323,-6.053,-6.0496,-6.0254,-5.9909,-5.9633,-5.9944,-6.0185,-5.9633,-5.915,-5.8806,-5.8495,-5.8219,-5.7736,-5.746,-5.7219,-5.6736,-5.6357,-5.6046,-5.547,-5.4897,-5.4626,-5.4357,-5.3984,-5.3916,-5.398,-5.4108,-5.4173,-5.41,-5.3992,-5.3722,-5.3215,-5.2398,-5.1415,-5.0605,-4.9899,-4.9562,-4.926,-4.9074,-4.8851,-4.8581,-4.7876,-7.2768,-7.3168,-7.286,-7.2337,-7.169,-7.1536,-7.0859,-6.9967,-6.972,-6.9351,-6.9012,-6.892,-6.892,-6.8889,-6.892,-6.8889,-6.8889,-6.8889,-6.8889,-6.8889,-6.8889,-6.8889,-6.8889,-6.8889,-6.8889,-6.8889,-6.8889,-6.8889,-6.8889,-6.8889,-6.8889,-6.8889,-6.8889,-6.8889,-6.8889,-6.8858,-6.8766,-6.8397,-6.7442,-6.6581,-6.5873,-6.5195,-6.5115,-6.5111,-6.521,-6.5334,-6.5867,-6.5853,-6.6078,-6.6398,-6.6661,-6.6922,-6.7222,-6.7319,-6.7189,-6.6602,-6.618,-6.544,-6.418,-6.3248,-6.215,-6.1699,-6.1427,-6.1294,-6.0557,-6.0356,-6.0323,-5.9806,-5.9461,-5.9392,-5.9392,-5.9771,-5.9668,-5.9875,-6.0082,-6.0151,-6.0185,-6.0047,-5.9909,-6.0047,-6.0254,-6.0427,-5.9978,-5.9668,-5.9426,-5.9254,-5.8875,-5.8357,-5.7874,-5.7426,-5.7047,-5.6667,-5.6158,-5.5545,-5.5101,-5.4795,-5.4388,-5.4114,-5.4209,-5.4239,-5.4303,-5.4335,-5.4264,-5.3928,-5.3528,-5.2855,-5.2075,-5.1063,-5.0088,-4.9579,-4.9172,-4.9168,-4.9018,-4.8817,-4.8398,-7.1075,-7.1167,-7.1783,-7.1629,-7.0952,-7.0305,-6.9997,-6.9751,-6.9228,-6.8982,-6.8889,-6.8889,-6.8889,-6.8889,-6.8889,-6.8889,-6.8889,-6.8889,-6.8889,-6.8889,-6.8889,-6.8889,-6.8889,-6.8889,-6.8889,-6.8889,-6.8889,-6.8889,-6.8889,-6.8889,-6.8889,-6.8889,-6.8889,-6.8889,-6.8889,-6.8889,-6.8581,-6.815,-6.7381,-6.6673,-6.5965,-6.5405,-6.5146,-6.5406,-6.5768,-6.6122,-6.6262,-6.6566,-6.6705,-6.6956,-6.7045,-6.7056,-6.7387,-6.7516,-6.7461,-6.7289,-6.6832,-6.6268,-6.5459,-6.4307,-6.3278,-6.2693,-6.2279,-6.1927,-6.1251,-6.1184,-6.1116,-6.0909,-6.0358,-6.0151,-5.9909,-5.9633,-5.953,-5.9599,-5.984,-5.984,-6.0047,-6.0461,-6.0323,-6.0254,-6.0289,-6.0427,-6.0806,-6.0496,-6.0289,-6.0116,-5.9668,-5.9185,-5.8564,-5.8081,-5.7598,-5.7186,-5.6743,-5.6229,-5.5613,-5.5236,-5.4861,-5.4484,-5.4409,-5.4404,-5.4431,-5.4431,-5.4431,-5.4203,-5.3802,-5.3265,-5.2694,-5.1743,-5.0728,-4.9554,-4.9049,-4.9107,-4.9127,-4.8992,-4.8546,-7.0644,-7.0336,-7.0582,-7.0521,-7.0274,-6.9997,-6.9659,-6.9289,-6.9012,-6.8889,-6.8889,-6.8889,-6.8889,-6.8889,-6.8889,-6.8889,-6.8889,-6.8889,-6.8889,-6.8889,-6.8889,-6.8889,-6.8889,-6.8889,-6.8889,-6.8889,-6.8889,-6.8889,-6.8889,-6.8889,-6.8889,-6.8889,-6.8889,-6.8889,-6.8889,-6.8858,-6.852,-6.8058,-6.7596,-6.7042,-6.6027,-6.5911,-6.5675,-6.5569,-6.6108,-6.6722,-6.7162,-6.7509,-6.7551,-6.7557,-6.7699,-6.7698,-6.7544,-6.7713,-6.7799,-6.7839,-6.7342,-6.7021,-6.6388,-6.5306,-6.4386,-6.379,-6.3227,-6.2655,-6.2151,-6.2048,-6.1703,-6.1392,-6.1116,-6.0909,-6.0771,-6.0254,-5.984,-5.9737,-5.9702,-5.9737,-5.984,-6.0254,-6.0289,-6.0013,-6.022,-6.0461,-6.0944,-6.1358,-6.1151,-6.0944,-6.0461,-5.9978,-5.9323,-5.8771,-5.8323,-5.7909,-5.7532,-5.7223,-5.664,-5.6055,-5.5369,-5.4989,-5.4645,-5.4571,-5.4532,-5.4463,-5.4431,-5.4271,-5.4106,-5.3601,-5.3026,-5.235,-5.1335,-5.0057,-4.9385,-4.908,-4.9093,-4.9104,-4.8802,-7.0028,-6.9597,-6.9597,-6.9597,-6.9597,-6.9597,-6.9351,-6.8951,-6.8889,-6.8889,-6.8889,-6.8889,-6.8889,-6.8889,-6.8889,-6.8889,-6.8889,-6.8889,-6.8889,-6.8889,-6.8889,-6.8889,-6.8889,-6.8889,-6.8889,-6.8889,-6.8889,-6.8889,-6.8889,-6.8889,-6.8889,-6.8889,-6.8889,-6.8889,-6.8889,-6.8858,-6.8643,-6.8304,-6.7689,-6.7531,-6.6689,-6.6115,-6.6371,-6.6166,-6.6638,-6.7181,-6.7792,-6.8094,-6.8115,-6.8149,-6.819,-6.8103,-6.7912,-6.7799,-6.7965,-6.7925,-6.7811,-6.7525,-6.6896,-6.5926,-6.5143,-6.429,-6.4027,-6.3417,-6.3011,-6.2841,-6.2599,-6.222,-6.1875,-6.1634,-6.1599,-6.0978,-6.0565,-6.0496,-6.0323,-6.0289,-5.9875,-5.9978,-5.9875,-5.9702,-5.9909,-6.0047,-6.0909,-6.1427,-6.1875,-6.1565,-6.1082,-6.0565,-5.9944,-5.9495,-5.9185,-5.8771,-5.8392,-5.8116,-5.784,-5.7118,-5.6362,-5.5398,-5.5051,-5.4741,-5.4701,-5.4632,-5.4497,-5.4367,-5.4168,-5.3866,-5.3428,-5.2853,-5.1773,-5.0495,-4.982,-4.9111,-4.9165,-4.921,-4.9257,-6.8889,-6.892,-6.8858,-6.8889,-6.892,-6.892,-6.892,-6.8889,-6.8889,-6.8889,-6.8889,-6.8889,-6.8889,-6.8889,-6.8889,-6.8889,-6.8889,-6.8889,-6.8889,-6.8889,-6.8889,-6.8889,-6.8889,-6.8889,-6.8889,-6.8889,-6.8889,-6.8889,-6.8889,-6.8889,-6.8889,-6.8889,-6.8889,-6.8889,-6.8889,-6.8889,-6.8858,-6.8674,-6.7596,-6.7615,-6.7471,-6.6499,-6.6652,-6.695,-6.7261,-6.7766,-6.8239,-6.8529,-6.8493,-6.8339,-6.8472,-6.822,-6.7653,-6.7879,-6.8044,-6.8044,-6.8044,-6.8009,-6.7906,-6.6475,-6.5572,-6.4885,-6.4759,-6.439,-6.3841,-6.36,-6.3565,-6.322,-6.2841,-6.2496,-6.2186,-6.1806,-6.1461,-6.122,-6.1047,-6.0737,-6.0323,-6.0151,-6.0151,-6.0151,-5.9633,-5.9495,-6.0496,-6.1392,-6.2186,-6.2186,-6.1668,-6.1151,-6.0634,-6.0047,-5.9702,-5.9392,-5.8978,-5.8599,-5.8288,-5.8012,-5.7255,-5.6253,-5.5563,-5.5322,-5.5012,-5.4839,-5.4704,-5.45,-5.4365,-5.41,-5.383,-5.346,-5.224,-5.1023,-4.9783,-4.9141,-4.9229,-4.9316,-4.9393,-6.7566,-6.7566,-6.7566,-6.7843,-6.8274,-6.8735,-6.8889,-6.8889,-6.8889,-6.8889,-6.8889,-6.8889,-6.8889,-6.8889,-6.8889,-6.8889,-6.8889,-6.8889,-6.8889,-6.8889,-6.8889,-6.8889,-6.8889,-6.8889,-6.8889,-6.8889,-6.8889,-6.8889,-6.8889,-6.8889,-6.8889,-6.8889,-6.8889,-6.8889,-6.8889,-6.8858,-6.8735,-6.8332,-6.7923,-6.7817,-6.7646,-6.736,-6.7331,-6.766,-6.7926,-6.8299,-6.8682,-6.8866,-6.8677,-6.8428,-6.8515,-6.822,-6.7728,-6.7879,-6.8083,-6.8083,-6.8083,-6.8083,-6.8049,-6.7384,-6.6971,-6.6282,-6.5665,-6.5359,-6.5083,-6.4565,-6.4427,-6.4186,-6.3634,-6.3324,-6.3082,-6.2496,-6.2117,-6.1944,-6.1703,-6.1254,-6.0944,-6.0909,-6.0909,-6.0909,-6.0599,-6.084,-6.1565,-6.1806,-6.2393,-6.2806,-6.2427,-6.2117,-6.1668,-6.0668,-6.0013,-5.9771,-5.9426,-5.9012,-5.8668,-5.8357,-5.8012,-5.715,-5.646,-5.6081,-5.5736,-5.5322,-5.4945,-5.4807,-5.4603,-5.4399,-5.4095,-5.3621,-5.2735,-5.1617,-5.0434,-4.9494,-4.935,-4.9471,-4.9585,-6.6919,-6.6919,-6.6919,-6.7165,-6.7658,-6.8274,-6.8643,-6.8858,-6.8889,-6.8889,-6.8889,-6.8889,-6.8889,-6.8889,-6.8889,-6.8889,-6.8889,-6.8889,-6.8889,-6.8889,-6.8889,-6.8889,-6.8889,-6.8889,-6.8889,-6.8889,-6.8889,-6.8889,-6.8889,-6.8889,-6.8889,-6.8889,-6.8889,-6.8889,-6.8889,-6.8828,-6.8794,-6.851,-6.8374,-6.8262,-6.8202,-6.8099,-6.817,-6.8362,-6.8592,-6.8909,-6.9125,-6.9093,-6.886,-6.865,-6.8472,-6.8302,-6.7918,-6.7879,-6.8083,-6.8083,-6.8083,-6.8083,-6.8049,-6.8049,-6.7596,-6.7359,-6.6669,-6.6186,-6.5911,-6.5359,-6.5186,-6.491,-6.4393,-6.4117,-6.3876,-6.3255,-6.2875,-6.2703,-6.2496,-6.2082,-6.1703,-6.1703,-6.153,-6.153,-6.1496,-6.191,-6.2358,-6.2461,-6.2668,-6.2944,-6.3151,-6.2875,-6.2565,-6.1599,-6.0599,-6.022,-5.9909,-5.9495,-5.9081,-5.8668,-5.8323,-5.7943,-5.7391,-5.6805,-5.6426,-5.6012,-5.5529,-5.5115,-5.5014,-5.481,-5.4394,-5.3779,-5.3063,-5.2241,-5.1184,-5.0373,-4.9701,-4.959,-4.9742,-6.6827,-6.6858,-6.6858,-6.6827,-6.6981,-6.7596,-6.8243,-6.8828,-6.8828,-6.8858,-6.8889,-6.8889,-6.8889,-6.8889,-6.8889,-6.8889,-6.8889,-6.8889,-6.8889,-6.8889,-6.8889,-6.8889,-6.8889,-6.8889,-6.8889,-6.8889,-6.8889,-6.8889,-6.8889,-6.8889,-6.8889,-6.8889,-6.8889,-6.8948,-6.8948,-6.9006,-6.9062,-6.8962,-6.8598,-6.8607,-6.8701,-6.8571,-6.878,-6.8968,-6.9206,-6.9603,-6.9698,-6.9561,-6.9142,-6.887,-6.8685,-6.8302,-6.8074,-6.7999,-6.8044,-6.8083,-6.8083,-6.8083,-6.8083,-6.8083,-6.8083,-6.7807,-6.7394,-6.6704,-6.629,-6.6083,-6.5911,-6.5669,-6.5221,-6.4945,-6.4634,-6.4117,-6.3634,-6.3531,-6.3462,-6.3082,-6.2599,-6.2393,-6.2151,-6.1979,-6.1806,-6.2082,-6.2599,-6.2806,-6.2979,-6.3186,-6.3358,-6.322,-6.2875,-6.253,-6.1565,-6.0806,-6.0461,-5.9978,-5.9564,-5.9323,-5.9012,-5.8806,-5.8012,-5.7426,-5.7081,-5.6702,-5.6184,-5.5805,-5.5632,-5.5255,-5.4566,-5.4049,-5.3566,-5.2674,-5.1955,-5.1103,-5.0399,-4.9816,-4.9801,-6.5472,-6.5472,-6.5472,-6.575,-6.6273,-6.6919,-6.7596,-6.815,-6.8212,-6.8427,-6.8889,-6.8889,-6.8766,-6.8889,-6.8889,-6.8889,-6.8889,-6.8889,-6.8889,-6.8889,-6.8889,-6.8889,-6.8889,-6.8948,-6.8889,-6.8948,-6.8948,-6.8948,-6.8889,-6.8889,-6.8889,-6.8889,-6.8889,-6.9006,-6.9123,-6.924,-6.9356,-6.9162,-6.867,-6.8826,-6.913,-6.8941,-6.9178,-6.9404,-6.9969,-7.033,-7.0337,-6.9816,-6.939,-6.9002,-6.8727,-6.8309,-6.7902,-6.7965,-6.8083,-6.8083,-6.8083,-6.8083,-6.8083,-6.8083,-6.8083,-6.8083,-6.7842,-6.7807,-6.7394,-6.698,-6.6669,-6.6393,-6.5979,-6.5635,-6.5359,-6.491,-6.4496,-6.4358,-6.4186,-6.3772,-6.3393,-6.3186,-6.2944,-6.2737,-6.253,-6.2599,-6.3082,-6.3186,-6.3324,-6.3496,-6.3531,-6.3393,-6.322,-6.2875,-6.2393,-6.1599,-6.1185,-6.0737,-6.0496,-6.0254,-5.9944,-5.9564,-5.8737,-5.8081,-5.7805,-5.7391,-5.6874,-5.6426,-5.6046,-5.5391,-5.4632,-5.4184,-5.3908,-5.3529,-5.2843,-5.192,-5.1098,-5.0548,-4.9963,-6.4888,-6.4888,-6.4888,-6.5134,-6.5534,-6.5934,-6.6519,-6.7073,-6.7412,-6.7781,-6.8058,-6.8058,-6.8243,-6.8458,-6.8489,-6.8612,-6.8889,-6.8889,-6.8889,-6.8889,-6.8948,-6.9006,-6.9096,-6.9123,-6.9182,-6.9182,-6.9182,-6.9123,-6.9065,-6.8948,-6.8889,-6.8889,-6.8889,-6.9123,-6.9298,-6.9441,-6.9459,-6.9257,-6.8983,-6.8861,-6.9004,-6.9301,-6.9616,-6.9828,-7.0623,-7.1058,-7.101,-7.0363,-6.9805,-6.9243,-6.8895,-6.8391,-6.7977,-6.8044,-6.8083,-6.8083,-6.8083,-6.8083,-6.8083,-6.8083,-6.8083,-6.8083,-6.8083,-6.8049,-6.7945,-6.7601,-6.7497,-6.729,-6.6738,-6.6255,-6.5979,-6.5704,-6.5428,-6.5152,-6.4807,-6.4427,-6.422,-6.4048,-6.3841,-6.36,-6.3496,-6.3462,-6.3565,-6.36,-6.36,-6.36,-6.36,-6.3565,-6.3462,-6.3289,-6.2841,-6.2186,-6.191,-6.1599,-6.1358,-6.1082,-6.0771,-6.022,-5.9254,-5.8702,-5.8461,-5.8047,-5.746,-5.6874,-5.6322,-5.5632,-5.5012,-5.4598,-5.4287,-5.3942,-5.3563,-5.2843,-5.1951,-5.1193,-5.0671,-6.4888,-6.4888,-6.4888,-6.4918,-6.4918,-6.498,-6.5319,-6.5873,-6.6457,-6.6827,-6.7007,-6.7007,-6.7408,-6.7896,-6.8024,-6.8363,-6.8612,-6.8766,-6.8889,-6.8917,-6.9006,-6.9123,-6.9329,-6.9445,-6.9472,-6.9588,-6.9588,-6.9356,-6.9298,-6.9065,-6.8889,-6.8889,-6.8948,-6.9182,-6.9472,-6.9761,-6.974,-6.9371,-6.9137,-6.8957,-6.8916,-6.94,-7.0086,-7.0175,-7.1029,-7.1869,-7.1878,-7.1358,-7.0557,-6.9748,-6.9199,-6.8645,-6.82,-6.8083,-6.8083,-6.8083,-6.8083,-6.8083,-6.8083,-6.8083,-6.8083,-6.8083,-6.8083,-6.8083,-6.8014,-6.798,-6.7842,-6.7807,-6.729,-6.7083,-6.6876,-6.6393,-6.6048,-6.5842,-6.5531,-6.5186,-6.4945,-6.4738,-6.4531,-6.4255,-6.3979,-6.391,-6.36,-6.36,-6.36,-6.36,-6.36,-6.36,-6.3565,-6.3496,-6.322,-6.2737,-6.2634,-6.2393,-6.2082,-6.1806,-6.153,-6.0875,-5.9875,-5.9461,-5.9357,-5.8737,-5.8012,-5.746,-5.6874,-5.615,-5.5529,-5.5115,-5.4736,-5.4322,-5.3977,-5.3598,-5.2908,-5.2046,-5.1494,-6.4888,-6.4888,-6.4888,-6.4888,-6.4888,-6.4888,-6.498,-6.5134,-6.5479,-6.6301,-6.7074,-6.7198,-6.726,-6.7477,-6.7853,-6.8135,-6.8208,-6.8458,-6.8828,-6.8883,-6.8969,-6.9046,-6.9379,-6.9454,-6.9605,-6.9761,-6.9703,-6.9526,-6.9356,-6.9123,-6.8858,-6.8917,-6.9003,-6.9263,-6.9552,-6.9896,-6.9929,-6.9454,-6.9099,-6.8694,-6.8362,-6.8638,-6.909,-6.9779,-7.0682,-7.1423,-7.1532,-7.1488,-7.0633,-6.9851,-6.9788,-6.9145,-6.8182,-6.8118,-6.8083,-6.8083,-6.8083,-6.8083,-6.8083,-6.8083,-6.8083,-6.8083,-6.8083,-6.8083,-6.8083,-6.8083,-6.8049,-6.8014,-6.7945,-6.7842,-6.7635,-6.7118,-6.6704,-6.6497,-6.6324,-6.5979,-6.5635,-6.5393,-6.5186,-6.4841,-6.4496,-6.4152,-6.3807,-6.36,-6.36,-6.36,-6.36,-6.36,-6.36,-6.3565,-6.3565,-6.3255,-6.3324,-6.3117,-6.2772,-6.253,-6.2289,-6.153,-6.0496,-6.0254,-6.0116,-5.9288,-5.8426,-5.8012,-5.7495,-5.6805,-5.6184,-5.5632,-5.5219,-5.4805,-5.4494,-5.4184,-5.3736,-5.2977,-5.2459,-6.4888,-6.4888,-6.4888,-6.4888,-6.4888,-6.4888,-6.4943,-6.5108,-6.5242,-6.5895,-6.6682,-6.672,-6.6734,-6.6927,-6.7336,-6.7688,-6.7645,-6.787,-6.7958,-6.8166,-6.8551,-6.865,-6.897,-6.929,-6.9326,-6.942,-6.9401,-6.9241,-6.9228,-6.8695,-6.8427,-6.8517,-6.8838,-6.9126,-6.9412,-6.9879,-6.9941,-6.9272,-6.8938,-6.8457,-6.7958,-6.8324,-6.9065,-6.9808,-7.0749,-7.1379,-7.1694,-7.1808,-7.1328,-7.0422,-6.9962,-6.9164,-6.8359,-6.8083,-6.8083,-6.8083,-6.8083,-6.8083,-6.8083,-6.8083,-6.8083,-6.8083,-6.8083,-6.8083,-6.8083,-6.8083,-6.8083,-6.8049,-6.8049,-6.7945,-6.7945,-6.7566,-6.7497,-6.7359,-6.7221,-6.698,-6.6428,-6.5911,-6.5704,-6.5428,-6.5014,-6.4496,-6.4117,-6.3738,-6.3703,-6.36,-6.36,-6.36,-6.36,-6.36,-6.36,-6.36,-6.36,-6.36,-6.3324,-6.3117,-6.3013,-6.2151,-6.1185,-6.0392,-5.9909,-5.9392,-5.884,-5.8461,-5.8047,-5.7564,-5.6943,-5.6357,-5.5736,-5.5288,-5.5046,-5.4805,-5.4322,-5.3839,-5.3397,-6.4795,-6.4888,-6.4888,-6.4888,-6.4888,-6.4888,-6.5053,-6.5297,-6.5351,-6.5677,-6.6211,-6.6041,-6.6214,-6.6363,-6.6596,-6.6865,-6.7156,-6.7477,-6.7384,-6.7497,-6.7666,-6.827,-6.8627,-6.8798,-6.9056,-6.9028,-6.8813,-6.8945,-6.8945,-6.8289,-6.7812,-6.787,-6.8219,-6.8593,-6.9032,-6.9503,-6.9745,-6.9051,-6.8635,-6.8341,-6.8272,-6.8325,-6.913,-7.019,-7.1223,-7.2055,-7.2245,-7.2303,-7.1966,-7.1105,-7.0024,-6.9216,-6.8566,-6.8221,-6.8083,-6.8083,-6.8083,-6.8083,-6.8083,-6.8083,-6.8083,-6.8083,-6.8083,-6.8083,-6.8083,-6.8083,-6.8083,-6.8083,-6.8083,-6.8083,-6.8083,-6.8083,-6.8049,-6.8014,-6.7876,-6.7807,-6.7152,-6.6566,-6.6359,-6.6117,-6.56,-6.5083,-6.4634,-6.4186,-6.3876,-6.3772,-6.3634,-6.36,-6.36,-6.36,-6.36,-6.36,-6.36,-6.36,-6.36,-6.3496,-6.3358,-6.2979,-6.1979,-6.0737,-5.9771,-5.9599,-5.9323,-5.8909,-5.8495,-5.8081,-5.7702,-5.7185,-5.6564,-5.5839,-5.5426,-5.5184,-5.4874,-5.4463,-5.4264,-6.4364,-6.4888,-6.4888,-6.4888,-6.4888,-6.4888,-6.5022,-6.5297,-6.5538,-6.5839,-6.6192,-6.6406,-6.6478,-6.6336,-6.6869,-6.705,-6.6838,-6.71,-6.7529,-6.7766,-6.7786,-6.8209,-6.8536,-6.8659,-6.9063,-6.8866,-6.8383,-6.8127,-6.8225,-6.7579,-6.7135,-6.7104,-6.8231,-6.8638,-6.8783,-6.927,-6.9438,-6.878,-6.8415,-6.8127,-6.8049,-6.8313,-6.8911,-6.9678,-7.032,-7.1035,-7.1571,-7.1971,-7.1687,-7.1018,-7.0134,-6.9463,-6.8877,-6.8497,-6.8256,-6.8083,-6.8083,-6.8083,-6.8083,-6.8083,-6.8083,-6.8083,-6.8083,-6.8083,-6.8083,-6.8083,-6.8083,-6.8083,-6.8083,-6.8083,-6.8083,-6.8083,-6.8049,-6.8049,-6.798,-6.798,-6.7669,-6.7463,-6.7359,-6.698,-6.6566,-6.6048,-6.56,-6.5083,-6.4565,-6.4393,-6.4048,-6.4014,-6.3807,-6.3703,-6.3669,-6.36,-6.36,-6.36,-6.36,-6.36,-6.3462,-6.3255,-6.2806,-6.1565,-6.0668,-6.0151,-5.9806,-5.9392,-5.9012,-5.8668,-5.8254,-5.7771,-5.7185,-5.6495,-5.5874,-5.5495,-5.5219,-5.4911,-5.4505]},{"header":{"parameterUnit":"m.s-1","parameterCategory":1,"la1":31.0,"la2":29.5877,"lo1":-88.7671,"lo2":-86.6584,"dy":0.0162,"dx":0.0185,"nx":115,"ny":88,"refTime":"2023-06-18T18:00:00:Z","depth":0,"parameterNumber":3,"parameterNumberName":"V-component_of_WINDS"},"data":[0.0,0.0,0.0,0.0,0.0,0.0,0.0,0.0,0.0,0.0,0.0,0.0,0.0,0.0,0.0,0.0,0.0,0.0,0.0,0.0,0.0,0.0,0.0,0.0,0.0,0.0,0.0,0.0,0.0,0.0,0.0,0.0,0.0,0.0,0.0,0.0,0.0,0.0,0.0,0.0,0.0,0.0,0.0,0.0,0.0,0.0,0.0,0.0,0.0,0.0,0.0,0.0,0.0,0.0,0.0,0.0,0.0,0.0,0.0,0.0,0.0,0.0,0.0,0.0,0.0,0.0,0.0,0.0,0.0,0.0,0.0,0.0,0.0,0.0,0.0,0.0,0.0,0.0,0.0,0.0,0.0,0.0,0.0,0.0,0.0,0.0,0.0,0.0,0.0,0.0,0.0,0.0,0.0,0.0,0.0,0.0,0.0,0.0,0.0,0.0,0.0,0.0,0.0,0.0,0.0,0.0,0.0,0.0,0.0,0.0,0.0,0.0,0.0,0.0,0.0,0.0,0.0,0.0,0.0,0.0,0.0,0.0,0.0,0.0,0.0,0.0,0.0,0.0,0.0,0.0,0.0,0.0,0.0,0.0,0.0,0.0,0.0,0.0,0.0,0.0,0.0,0.0,0.0,0.0,0.0,0.0,0.0,0.0,0.0,0.0,0.0,0.0,0.0,0.0,0.0,0.0,0.0,0.0,0.0,0.0,0.0,0.0,0.0,0.0,0.0,0.0,0.0,0.0,0.0,0.0,0.0,0.0,0.0,0.0,0.0,0.0,0.0,0.0,0.0,0.0,0.0,0.0,0.0,0.0,0.0,0.0,0.0,0.0,0.0,0.0,0.0,0.0,0.0,0.0,0.0,0.0,0.0,0.0,0.0,0.0,0.0,0.0,0.0,0.0,0.0,0.0,0.0,0.0,0.0,0.0,0.0,0.0,0.0,0.0,0.0,0.0,0.0,0.0,0.0,0.0,0.0,0.0,0.0,0.0,0.0,0.0,0.0,0.0,0.0,0.0,0.0,0.0,0.0,0.0,0.0,0.0,0.0,0.0,0.0,0.0,0.0,0.0,0.0,0.0,0.0,0.0,0.0,0.0,0.0,0.0,0.0,0.0,0.0,0.0,0.0,0.0,0.0,0.0,0.0,0.0,0.0,0.0,0.0,0.0,0.0,0.0,0.0,0.0,0.0,0.0,0.0,0.0,0.0,0.0,0.0,0.0,0.0,0.0,0.0,0.0,0.0,0.0,0.0,0.0,0.0,0.0,0.0,0.0,0.0,0.0,0.0,0.0,0.0,0.0,0.0,0.0,0.0,0.0,0.0,0.0,0.0,0.0,0.0,0.0,0.0,0.0,0.0,0.0,0.0,0.0,0.0,0.0,0.0,0.0,0.0,0.0,0.0,0.0,0.0,0.0,0.0,0.0,0.0,0.0,0.0,0.0,0.0,0.0,0.0,0.0,0.0,0.0,0.0,0.0,0.0,0.0,0.0,0.0,0.0,0.0,0.0,0.0,0.0,0.0,0.0,0.0,0.0,0.0,0.0,0.0,0.0,0.0,0.0,0.0,0.0,0.0,0.0,0.0,0.0,0.0,0.0,0.0,0.0,0.0,0.0,0.0,0.0,0.0,0.0,0.0,0.0,0.0,0.0,0.0,0.0,0.0,0.0,0.0,0.0,0.0,0.0,0.0,0.0,0.0,0.0,0.0,0.0,0.0,0.0,0.0,0.0,0.0,0.0,0.0,0.0,0.0,0.0,0.0,0.0,0.0,0.0,0.0,0.0,0.0,0.0,0.0,0.0,0.0,0.0,0.0,0.0,0.0,0.0,0.0,0.0,0.0,0.0,0.0,0.0,0.0,0.0,0.0,0.0,0.0,0.0,0.0,0.0,0.0,0.0,0.0,0.0,0.0,0.0,0.0,0.0,0.0,0.0,0.0,0.0,0.0,0.0,0.0,0.0,0.0,0.0,0.0,0.0,0.0,0.0,0.0,0.0,0.0,0.0,0.0,0.0,0.0,0.0,0.0,0.0,0.0,0.0,0.0,0.0,0.0,0.0,0.0,0.0,0.0,0.0,0.0,0.0,0.0,0.0,0.0,0.0,0.0,0.0,0.0,0.0,0.0,0.0,0.0,0.0,0.0,0.0,0.0,0.0,0.0,0.0,0.0,0.0,0.0,0.0,0.0,0.0,0.0,0.0,0.0,0.0,0.0,0.0,0.0,0.0,0.0,0.0,0.0,0.0,0.0,0.0,0.0,0.0,0.0,0.0,0.0,0.0,0.0,0.0,0.0,0.0,0.0,0.0,0.0,0.0,0.0,0.0,0.0,0.0,0.0,0.0,0.0,0.0,0.0,0.0,0.0,0.0,0.0,0.0,0.0,0.0,0.0,0.0,0.0,0.0,0.0,0.0,0.0,0.0,0.0,0.0,0.0,0.0,0.0,0.0,0.0,0.0,0.0,0.0,0.0,0.0,0.0,0.0,0.0,0.0,0.0,0.0,0.0,0.0,0.0,0.0,0.0,0.0,0.0,0.0,0.0,0.0,0.0,0.0,0.0,0.0,0.0,0.0,0.0,0.0,0.0,0.0,0.0,0.0,0.0,0.0,0.0,0.0,0.0,0.0,0.0,0.0,0.0,0.0,0.0,0.0,0.0,0.0,0.0,0.0,0.0,0.0,0.0,0.0,0.0,0.0,0.0,0.0,0.0,0.0,0.0,0.0,0.0,0.0,0.0,0.0,0.0,0.0,0.0,0.0,0.0,0.0,0.0,0.0,0.0,0.0,0.0,0.0,0.0,0.0,0.0,0.0,0.0,0.0,0.0,0.0,0.0,0.0,0.0,0.0,0.0,0.0,0.0,0.0,0.0,0.0,0.0,0.0,0.0,0.0,0.0,0.0,0.0,0.0,0.0,0.0,0.0,0.0,0.0,0.0,0.0,0.0,0.0,0.0,0.0,0.0,0.0,0.0,0.0,0.0,0.0,0.0,0.0,0.0,0.0,0.0,0.0,0.0,0.0,0.0,0.0,0.0,0.0,0.0,0.0,0.0,0.0,0.0,0.0,0.0,0.0,0.0,0.0,0.0,0.0,0.0,0.0,0.0,0.0,0.0,0.0,0.0,0.0,0.0,0.0,0.0,0.0,0.0,0.0,0.0,0.0,0.0,0.0,0.0,0.0,0.0,0.0,0.0,0.0,0.0,0.0,0.0,0.0,0.0,0.0,0.0,0.0,0.0,0.0,0.0,0.0,0.0,0.0,0.0,0.0,0.0,0.0,0.0,0.0,0.0,0.0,0.0,0.0,0.0,0.0,0.0,0.0,0.0,0.0,0.0,0.0,0.0,0.0,0.0,0.0,0.0,0.0,0.0,0.0,0.0,0.0,0.0,0.0,0.0,0.0,0.0,0.0,0.0,0.0,0.0,0.0,0.0,0.0,0.0,0.0,0.0,0.0,0.0,0.0,0.0,0.0,0.0,0.0,0.0,0.0,0.0,0.0,0.0,0.0,0.0,0.0,0.0,0.0,0.0,0.0,0.0,0.0,0.0,0.0,0.0,0.0,0.0,0.0,0.0,0.0,0.0,0.0,0.0,0.0,0.0,0.0,0.0,0.0,0.0,0.0,0.0,0.0,0.0,0.0,0.0,0.0,0.0,0.0,0.0,0.0,0.0,0.0,0.0,0.0,0.0,0.0,0.0,0.0,0.0,0.0,0.0,0.0,0.0,0.0,0.0,0.0,0.0,0.0,0.0,0.0,0.0,0.0,0.0,0.0,0.0,0.0,0.0,0.0,0.0,0.0,0.0,0.0,0.0,0.0,0.0,0.0,0.0,0.0,0.0,0.0,0.0,0.0,0.0,0.0,0.0,0.0,0.0,0.0,0.0,0.0,0.0,0.0,0.0,0.0,0.0,0.0,0.0,0.0,0.0,0.0,0.0,0.0,0.0,0.0,0.0,0.0,0.0,0.0,0.0,0.0,0.0,0.0,0.0,0.0,0.0,0.0,0.0,0.0,0.0,0.0,0.0,0.0,0.0,0.0,0.0,0.0,0.0,0.0,0.0,0.0,0.0,0.0,0.0,0.0,0.0,0.0,0.0,0.0,0.0,0.0,0.0,0.0,0.0,0.0,0.0,0.0,0.0,0.0,0.0,0.0,0.0,0.0,0.0,0.0,0.0,0.0,0.0,0.0,0.0,0.0,0.0,0.0,0.0,0.0,0.0,0.0,0.0,0.0,0.0,0.0,0.0,0.0,0.0,0.0,0.0,0.0,0.0,0.0,-0.7596,0.0,0.0,0.0,0.0,0.0,0.0,0.0,0.0,0.0,0.0,0.0,0.0,0.0,0.0,0.0,0.0,0.0,0.0,0.0,0.0,0.0,0.0,0.0,0.0,0.0,0.0,0.0,0.0,0.0,0.0,0.0,0.0,0.0,0.0,0.0,0.0,0.0,0.0,0.0,0.0,0.0,0.0,0.0,0.0,0.0,0.0,0.0,0.0,0.0,0.0,0.0,0.0,0.0,0.0,0.0,0.0,0.0,0.0,0.0,0.0,0.0,0.0,0.0,0.0,0.0,0.0,0.0,0.0,0.0,0.0,0.0,0.0,0.0,0.0,0.0,0.0,0.0,0.0,0.0,0.0,0.0,0.0,0.0,0.0,0.0,0.0,0.0,0.0,0.0,0.0,0.0,0.0,0.0,0.0,0.0,0.0,0.0,0.0,0.0,0.0,0.0,0.0,0.0,0.0,0.0,0.0,0.0,0.0,0.0,0.0,-0.6843,-0.6909,-0.7269,-0.7531,-0.7694,0.0,0.0,0.0,0.0,0.0,0.0,0.0,0.0,0.0,0.0,0.0,0.0,0.0,0.0,0.0,0.0,0.0,0.0,0.0,0.0,0.0,0.0,0.0,0.0,0.0,0.0,0.0,0.0,0.0,0.0,0.0,0.0,0.0,0.0,0.0,0.0,0.0,0.0,0.0,0.0,0.0,0.0,0.0,0.0,0.0,0.0,0.0,0.0,0.0,0.0,0.0,0.0,0.0,0.0,0.0,0.0,0.0,0.0,0.0,0.0,0.0,0.0,0.0,0.0,0.0,0.0,0.0,0.0,0.0,0.0,0.0,0.0,0.0,0.0,0.0,0.0,0.0,0.0,0.0,0.0,0.0,0.0,0.0,0.0,0.0,0.0,0.0,0.0,0.0,0.0,0.0,0.0,0.0,0.0,0.0,0.0,0.0,0.0,0.0,0.0,0.0,0.0,0.0,0.0,0.0,0.0,0.0,0.0,0.0,0.0,0.0,0.0,-0.7607,-0.7906,-0.8072,0.0,0.0,0.0,0.0,0.0,0.0,0.0,0.0,0.0,0.0,0.0,0.0,0.0,0.0,0.0,0.0,0.0,0.0,0.0,0.0,0.0,0.0,0.0,0.0,0.0,0.0,0.0,0.0,0.0,0.0,0.0,0.0,0.0,0.0,0.0,0.0,0.0,0.0,0.0,0.0,0.0,0.0,0.0,0.0,0.0,0.0,0.0,0.0,0.0,0.0,0.0,0.0,0.0,0.0,0.0,0.0,0.0,0.0,0.0,0.0,0.0,0.0,0.0,0.0,0.0,0.0,0.0,0.0,0.0,0.0,0.0,0.0,0.0,0.0,0.0,0.0,0.0,0.0,0.0,0.0,0.0,0.0,0.0,0.0,0.0,0.0,0.0,0.0,0.0,0.0,0.0,0.0,0.0,0.0,0.0,0.0,0.0,0.0,0.0,0.0,0.0,0.0,0.0,0.0,0.0,0.0,0.0,0.0,0.0,0.0,-0.7504,-0.7716,-0.8103,0.0,-0.9117,0.0,0.0,0.0,0.0,0.0,0.0,0.0,0.0,0.0,0.0,0.0,0.0,0.0,0.0,0.0,0.0,0.0,0.0,0.0,0.0,0.0,0.0,0.0,0.0,0.0,0.0,0.0,0.0,0.0,0.0,0.0,0.0,0.0,0.0,0.0,0.0,0.0,0.0,0.0,0.0,0.0,0.0,0.0,0.0,0.0,0.0,0.0,0.0,0.0,0.0,0.0,0.0,0.0,0.0,0.0,0.0,0.0,0.0,0.0,0.0,0.0,0.0,0.0,0.0,0.0,0.0,0.0,0.0,0.0,0.0,0.0,0.0,0.0,0.0,0.0,0.0,0.0,0.0,0.0,0.0,0.0,0.0,0.0,0.0,0.0,0.0,0.0,0.0,0.0,0.0,0.0,0.0,0.0,0.0,0.0,0.0,0.0,0.0,0.0,0.0,0.0,0.0,0.0,0.0,0.0,0.0,0.0,0.0,0.0,0.0,-0.777,-0.7974,-0.8584,-0.9146,0.0,0.0,0.0,0.0,0.0,0.0,0.0,0.0,0.0,0.0,0.0,0.0,0.0,0.0,0.0,0.0,0.0,0.0,0.0,0.0,0.0,0.0,0.0,0.0,0.0,0.0,0.0,0.0,0.0,0.0,0.0,0.0,0.0,0.0,0.0,0.0,0.0,0.0,0.0,0.0,0.0,0.0,0.0,0.0,0.0,0.0,0.0,0.0,0.0,0.0,0.0,0.0,0.0,0.0,0.0,0.0,0.0,0.0,0.0,0.0,0.0,0.0,0.0,0.0,0.0,0.0,0.0,0.0,0.0,0.0,0.0,0.0,0.0,0.0,0.0,0.0,0.0,0.0,0.0,0.0,0.0,0.0,0.0,0.0,0.0,0.0,0.0,0.0,0.0,0.0,0.0,0.0,0.0,0.0,0.0,0.0,0.0,0.0,0.0,0.0,0.0,0.0,0.0,0.0,0.0,0.0,0.0,0.0,0.0,0.0,-0.768,-0.8151,-0.8574,-0.9257,-0.9768,-1.0053,0.0,0.0,0.0,0.0,0.0,0.0,0.0,0.0,0.0,0.0,0.0,0.0,0.0,0.0,0.0,0.0,0.0,0.0,0.0,0.0,0.0,0.0,0.0,0.0,0.0,0.0,0.0,0.0,0.0,0.0,0.0,0.0,0.0,0.0,0.0,0.0,0.0,0.0,0.0,0.0,0.0,0.0,0.0,0.0,0.0,0.0,0.0,0.0,0.0,0.0,0.0,0.0,0.0,0.0,0.0,0.0,0.0,0.0,0.0,0.0,0.0,0.0,0.0,0.0,0.0,0.0,0.0,0.0,0.0,0.0,0.0,0.0,0.0,0.0,0.0,0.0,0.0,0.0,0.0,0.0,0.0,0.0,0.0,0.0,0.0,0.0,0.0,0.0,0.0,0.0,0.0,0.0,0.0,0.0,0.0,0.0,0.0,0.0,0.0,0.0,0.0,0.0,0.0,0.0,0.0,0.0,0.0,0.0,-0.7494,-0.8114,-0.8827,-0.9809,-1.0222,-1.0559,0.0,0.0,0.0,0.0,0.0,0.0,0.0,0.0,0.0,0.0,0.0,0.0,0.0,0.0,0.0,0.0,0.0,0.0,0.0,0.0,0.0,0.0,0.0,0.0,0.0,0.0,0.0,0.0,0.0,0.0,0.0,0.0,0.0,0.0,0.0,0.0,0.0,0.0,0.0,0.0,0.0,0.0,0.0,0.0,0.0,0.0,0.0,0.0,0.0,0.0,0.0,0.0,0.0,0.0,0.0,0.0,0.0,0.0,0.0,0.0,0.0,0.0,0.0,0.0,0.0,0.0,0.0,0.0,0.0,0.0,0.0,0.0,0.0,0.0,0.0,0.0,0.0,0.0,0.0,0.0,0.0,0.0,0.0,0.0,0.0,0.0,0.0,0.0,0.0,0.0,0.0,0.0,0.0,0.0,0.0,0.0,0.0,0.0,0.0,0.0,0.0,0.0,0.0,0.0,0.0,0.0,0.0,0.0,0.0,-0.8356,-0.935,-1.03,-1.1206,-1.1159,-1.1268,0.0,0.0,0.0,0.0,0.0,0.0,0.0,0.0,0.0,0.0,0.0,0.0,0.0,0.0,0.0,0.0,0.0,0.0,0.0,0.0,0.0,0.0,0.0,0.0,0.0,0.0,0.0,0.0,0.0,0.0,0.0,0.0,0.0,0.0,0.0,0.0,0.0,0.0,0.0,0.0,0.0,0.0,0.0,0.0,0.0,0.0,0.0,0.0,0.0,0.0,0.0,0.0,0.0,0.0,0.0,0.0,0.0,0.0,0.0,0.0,0.0,0.0,0.0,0.0,0.0,0.0,0.0,0.0,0.0,0.0,0.0,0.0,0.0,0.0,0.0,0.0,0.0,0.0,0.0,0.0,0.0,0.0,0.0,0.0,0.0,0.0,0.0,0.0,0.0,0.0,0.0,0.0,0.0,0.0,0.0,0.0,0.0,0.0,0.0,0.0,0.0,0.0,0.0,0.0,0.0,0.0,0.0,0.0,0.0,-0.9516,0.0,-1.1648,0.0,-1.2206,-1.2176,0.0,0.0,0.0,0.0,0.0,0.0,0.0,0.0,0.0,0.0,0.0,0.0,0.0,0.0,0.0,0.0,0.0,0.0,0.0,0.0,0.0,0.0,0.0,0.0,0.0,0.0,0.0,0.0,0.0,0.0,0.0,0.0,0.0,0.0,0.0,0.0,0.0,0.0,0.0,0.0,0.0,0.0,0.0,0.0,0.0,0.0,0.0,0.0,0.0,0.0,0.0,0.0,0.0,0.0,0.0,0.0,0.0,0.0,0.0,0.0,0.0,0.0,0.0,0.0,0.0,0.0,0.0,0.0,0.0,0.0,0.0,0.0,0.0,0.0,0.0,0.0,0.0,0.0,0.0,0.0,0.0,0.0,0.0,0.0,0.0,0.0,0.0,0.0,0.0,0.0,0.0,0.0,0.0,0.0,0.0,0.0,0.0,0.0,0.0,0.0,0.0,0.0,0.0,0.0,0.0,0.0,0.0,0.0,-0.9636,-1.1075,-1.21,-1.2866,-1.3234,-1.3412,-1.3326,0.0,0.0,0.0,0.0,0.0,0.0,0.0,0.0,0.0,0.0,0.0,0.0,0.0,0.0,0.0,0.0,0.0,0.0,0.0,0.0,0.0,0.0,0.0,0.0,0.0,0.0,0.0,0.0,0.0,0.0,0.0,0.0,0.0,0.0,0.0,0.0,0.0,0.0,0.0,0.0,0.0,0.0,0.0,0.0,0.0,0.0,0.0,0.0,0.0,0.0,0.0,0.0,0.0,0.0,0.0,0.0,0.0,0.0,0.0,0.0,0.0,0.0,0.0,0.0,0.0,0.0,0.0,0.0,0.0,0.0,0.0,0.0,0.0,0.0,0.0,0.0,0.0,0.0,0.0,0.0,0.0,0.0,0.0,0.0,0.0,0.0,0.0,0.0,0.0,0.0,0.0,0.0,0.0,0.0,0.0,0.0,0.0,0.0,0.0,0.0,0.0,0.0,0.0,0.0,0.0,0.0,0.0,0.0,0.0,-1.3329,-1.4657,-1.5564,-1.5984,-1.5639,-1.4993,0.0,0.0,0.0,0.0,0.0,0.0,0.0,0.0,0.0,0.0,0.0,0.0,0.0,0.0,0.0,0.0,0.0,0.0,0.0,0.0,0.0,0.0,0.0,0.0,0.0,0.0,0.0,0.0,0.0,0.0,0.0,0.0,0.0,0.0,0.0,0.0,0.0,0.0,0.0,0.0,0.0,0.0,0.0,0.0,0.0,0.0,0.0,0.0,0.0,0.0,0.0,0.0,0.0,0.0,0.0,0.0,0.0,0.0,0.0,0.0,0.0,0.0,0.0,0.0,0.0,0.0,0.0,0.0,0.0,0.0,0.0,0.0,0.0,0.0,0.0,0.0,0.0,0.0,0.0,0.0,0.0,0.0,0.0,0.0,0.0,0.0,0.0,0.0,0.0,0.0,0.0,0.0,0.0,0.0,0.0,0.0,0.0,0.0,0.0,0.0,0.0,0.0,0.0,0.0,0.0,0.0,0.0,0.0,0.0,-1.7218,-1.7782,-1.8326,-1.8891,-1.8213,-1.7227,-1.5947,0.0,0.0,0.0,0.0,0.0,0.0,0.0,0.0,0.0,0.0,0.0,0.0,0.0,0.0,0.0,0.0,0.0,0.0,0.0,0.0,0.0,0.0,0.0,0.0,0.0,0.0,0.0,0.0,0.0,0.0,0.0,0.0,0.0,0.0,0.0,0.0,0.0,0.0,0.0,0.0,0.0,0.0,0.0,0.0,0.0,0.0,0.0,0.0,0.0,0.0,0.0,0.0,0.0,0.0,0.0,0.0,0.0,0.0,0.0,0.0,0.0,0.0,0.0,0.0,0.0,0.0,0.0,0.0,0.0,0.0,0.0,0.0,0.0,0.0,0.0,0.0,0.0,0.0,0.0,0.0,0.0,0.0,0.0,0.0,0.0,0.0,0.0,0.0,0.0,0.0,0.0,0.0,0.0,0.0,0.0,0.0,0.0,0.0,0.0,0.0,0.0,0.0,0.0,0.0,0.0,0.0,0.0,0.0,-2.2436,-2.1634,-2.1425,-2.1821,-2.1163,-1.9993,0.0,0.0,0.0,0.0,0.0,0.0,0.0,0.0,0.0,0.0,0.0,0.0,0.0,0.0,0.0,0.0,0.0,0.0,0.0,0.0,0.0,0.0,0.0,0.0,0.0,0.0,0.0,0.0,0.0,0.0,0.0,0.0,0.0,0.0,0.0,0.0,0.0,0.0,0.0,0.0,0.0,0.0,0.0,0.0,0.0,0.0,0.0,0.0,0.0,0.0,0.0,0.0,0.0,0.0,0.0,0.0,0.0,0.0,0.0,0.0,0.0,0.0,0.0,0.0,0.0,0.0,0.0,0.0,0.0,0.0,0.0,0.0,0.0,0.0,0.0,0.0,0.0,0.0,0.0,0.0,0.0,0.0,0.0,0.0,0.0,0.0,0.0,0.0,0.0,0.0,0.0,0.0,0.0,0.0,0.0,0.0,0.0,0.0,0.0,0.0,0.0,0.0,0.0,0.0,0.0,0.0,0.0,0.0,0.0,-2.5379,-2.7427,-2.7513,-2.5601,-2.4601,-2.2893,0.0,0.0,0.0,0.0,0.0,0.0,0.0,0.0,0.0,0.0,0.0,0.0,0.0,0.0,0.0,0.0,0.0,0.0,0.0,0.0,0.0,0.0,0.0,0.0,0.0,0.0,0.0,0.0,0.0,0.0,0.0,0.0,0.0,0.0,0.0,0.0,0.0,0.0,0.0,0.0,0.0,0.0,0.0,0.0,0.0,0.0,0.0,0.0,0.0,0.0,0.0,0.0,0.0,0.0,0.0,0.0,0.0,0.0,0.0,0.0,0.0,0.0,0.0,0.0,0.0,0.0,0.0,0.0,0.0,0.0,0.0,0.0,0.0,0.0,0.0,0.0,0.0,0.0,0.0,0.0,0.0,0.0,0.0,0.0,0.0,0.0,0.0,0.0,0.0,0.0,0.0,0.0,0.0,0.0,0.0,0.0,0.0,0.0,0.0,0.0,0.0,0.0,0.0,0.0,0.0,0.0,0.0,0.0,-2.4086,-2.796,-3.1202,-3.2225,-3.0907,-2.8491,-2.5749,0.0,0.0,0.0,0.0,0.0,0.0,0.0,0.0,0.0,0.0,0.0,0.0,0.0,0.0,0.0,0.0,0.0,0.0,0.0,0.0,0.0,0.0,0.0,0.0,0.0,0.0,0.0,0.0,0.0,0.0,0.0,0.0,0.0,0.0,0.0,0.0,0.0,0.0,0.0,0.0,0.0,0.0,0.0,0.0,0.0,0.0,0.0,0.0,0.0,0.0,0.0,0.0,0.0,0.0,0.0,0.0,0.0,0.0,0.0,0.0,0.0,0.0,0.0,0.0,0.0,0.0,0.0,0.0,0.0,0.0,0.0,0.0,0.0,0.0,0.0,0.0,0.0,0.0,0.0,0.0,0.0,0.0,0.0,0.0,0.0,0.0,0.0,0.0,0.0,0.0,0.0,0.0,0.0,0.0,0.0,0.0,0.0,0.0,0.0,0.0,0.0,0.0,0.0,0.0,0.0,0.0,0.0,0.0,-2.6392,-3.0189,-3.3792,-3.5986,-3.6552,-3.2388,-2.8577,0.0,0.0,0.0,0.0,0.0,0.0,0.0,0.0,0.0,0.0,0.0,0.0,0.0,0.0,0.0,0.0,0.0,0.0,0.0,0.0,0.0,0.0,0.0,0.0,0.0,0.0,0.0,0.0,0.0,0.0,0.0,0.0,0.0,0.0,0.0,0.0,0.0,0.0,0.0,0.0,0.0,0.0,0.0,0.0,0.0,0.0,0.0,0.0,0.0,0.0,0.0,0.0,0.0,0.0,0.0,0.0,0.0,0.0,0.0,0.0,0.0,0.0,0.0,0.0,0.0,0.0,0.0,0.0,0.0,0.0,0.0,0.0,0.0,0.0,0.0,0.0,0.0,0.0,0.0,0.0,0.0,0.0,0.0,0.0,0.0,0.0,0.0,0.0,0.0,0.0,0.0,0.0,0.0,0.0,0.0,0.0,0.0,0.0,0.0,0.0,0.0,0.0,0.0,0.0,0.0,0.0,0.0,0.0,-2.8514,-3.3215,-3.6714,-3.8762,-3.9157,-3.4989,-3.1166,0.0,0.0,0.0,0.0,0.0,0.0,0.0,0.0,0.0,0.0,0.0,0.0,0.0,0.0,0.0,0.0,0.0,0.0,0.0,0.0,0.0,0.0,0.0,0.0,0.0,0.0,0.0,0.0,0.0,0.0,0.0,0.0,0.0,0.0,0.0,0.0,0.0,0.0,0.0,0.0,0.0,0.0,0.0,0.0,0.0,0.0,0.0,0.0,-1.1322,0.0,0.0,0.0,0.0,0.0,0.0,0.0,0.0,0.0,0.0,0.0,0.0,0.0,0.0,0.0,0.0,0.0,0.0,0.0,0.0,0.0,0.0,0.0,0.0,0.0,0.0,0.0,0.0,0.0,0.0,0.0,0.0,0.0,0.0,0.0,0.0,0.0,0.0,0.0,0.0,0.0,0.0,0.0,0.0,0.0,0.0,0.0,0.0,0.0,0.0,0.0,0.0,0.0,0.0,0.0,0.0,0.0,0.0,0.0,-3.0705,-3.5246,-3.8568,-4.0465,-4.0721,-3.7529,-3.3772,0.0,0.0,0.0,0.0,0.0,0.0,0.0,0.0,0.0,0.0,0.0,0.0,0.0,0.0,0.0,0.0,0.0,0.0,0.0,0.0,0.0,0.0,0.0,0.0,0.0,0.0,0.0,0.0,0.0,0.0,0.0,0.0,0.0,0.0,0.0,0.0,0.0,0.0,0.0,0.0,0.0,0.0,0.0,0.0,0.0,0.0,0.0,0.0,0.0,0.0,0.0,0.0,0.0,0.0,0.0,0.0,0.0,0.0,0.0,0.0,0.0,0.0,0.0,0.0,0.0,0.0,0.0,0.0,0.0,0.0,0.0,0.0,0.0,0.0,0.0,0.0,0.0,0.0,0.0,0.0,0.0,0.0,0.0,0.0,0.0,0.0,0.0,0.0,0.0,0.0,0.0,0.0,0.0,0.0,0.0,0.0,0.0,0.0,0.0,0.0,0.0,0.0,0.0,0.0,0.0,0.0,0.0,-2.8306,-3.2863,-3.7028,-4.002,-4.1796,-4.2115,-3.9756,-3.6165,-3.1301,0.0,0.0,0.0,0.0,0.0,0.0,0.0,0.0,0.0,0.0,0.0,0.0,0.0,0.0,0.0,0.0,0.0,0.0,0.0,0.0,0.0,0.0,0.0,0.0,0.0,0.0,0.0,0.0,0.0,0.0,0.0,0.0,0.0,0.0,0.0,0.0,0.0,0.0,-1.0116,-1.2117,0.0,0.0,0.0,0.0,0.0,0.0,0.0,0.0,-1.4131,0.0,0.0,0.0,0.0,0.0,0.0,0.0,0.0,0.0,0.0,0.0,0.0,0.0,0.0,0.0,0.0,0.0,0.0,0.0,0.0,0.0,0.0,0.0,0.0,0.0,0.0,0.0,0.0,0.0,0.0,0.0,0.0,0.0,0.0,0.0,0.0,0.0,0.0,0.0,0.0,0.0,0.0,0.0,0.0,0.0,0.0,0.0,0.0,0.0,0.0,0.0,0.0,0.0,0.0,0.0,0.0,-2.533,-3.0152,-3.4944,-3.9544,-4.2015,-4.3522,-4.386,-4.0965,-3.7258,-3.2829,0.0,0.0,0.0,0.0,0.0,0.0,0.0,0.0,0.0,0.0,0.0,0.0,0.0,0.0,0.0,0.0,0.0,0.0,0.0,0.0,0.0,0.0,0.0,0.0,0.0,0.0,0.0,0.0,0.0,0.0,0.0,0.0,0.0,0.0,0.0,0.0,0.0,0.0,0.0,-1.3875,-1.5158,0.0,0.0,0.0,0.0,0.0,0.0,0.0,0.0,-1.5388,0.0,0.0,0.0,0.0,0.0,0.0,0.0,0.0,0.0,0.0,0.0,0.0,0.0,0.0,0.0,0.0,0.0,0.0,0.0,0.0,0.0,0.0,0.0,0.0,0.0,0.0,0.0,0.0,0.0,0.0,0.0,0.0,0.0,0.0,0.0,0.0,0.0,0.0,0.0,0.0,0.0,0.0,0.0,0.0,0.0,0.0,0.0,0.0,0.0,0.0,0.0,0.0,0.0,0.0,0.0,-2.7182,-3.1809,-3.6489,-4.0956,-4.3503,-4.4537,-4.4037,-4.1311,-3.7623,0.0,0.0,0.0,0.0,0.0,0.0,0.0,0.0,0.0,0.0,0.0,0.0,0.0,0.0,0.0,0.0,0.0,0.0,0.0,0.0,0.0,0.0,0.0,0.0,0.0,0.0,0.0,0.0,0.0,0.0,0.0,0.0,0.0,0.0,0.0,0.0,0.0,0.0,0.0,0.0,-1.4953,-1.6313,-1.7326,0.0,0.0,0.0,0.0,0.0,0.0,-1.7811,-1.758,0.0,0.0,0.0,0.0,0.0,0.0,0.0,0.0,0.0,0.0,0.0,0.0,0.0,0.0,0.0,0.0,0.0,0.0,0.0,0.0,0.0,0.0,0.0,0.0,0.0,0.0,0.0,0.0,0.0,0.0,0.0,0.0,0.0,0.0,0.0,0.0,0.0,0.0,0.0,0.0,0.0,0.0,0.0,0.0,0.0,0.0,0.0,0.0,0.0,0.0,0.0,0.0,0.0,0.0,0.0,-2.881,-3.3548,-3.8092,-4.2329,-4.4742,-4.5394,-4.4304,-4.1585,-3.7785,0.0,0.0,0.0,0.0,0.0,0.0,0.0,0.0,0.0,0.0,0.0,0.0,0.0,0.0,0.0,0.0,0.0,0.0,0.0,0.0,0.0,0.0,0.0,0.0,0.0,0.0,0.0,0.0,0.0,0.0,0.0,0.0,0.0,0.0,0.0,0.0,0.0,0.0,0.0,0.0,0.0,-1.7432,-1.8707,-1.9564,0.0,0.0,0.0,0.0,-2.0199,-2.0085,0.0,0.0,0.0,0.0,0.0,0.0,0.0,0.0,0.0,0.0,0.0,0.0,0.0,0.0,0.0,0.0,0.0,0.0,0.0,0.0,0.0,0.0,0.0,0.0,0.0,0.0,0.0,0.0,0.0,0.0,0.0,0.0,0.0,0.0,0.0,0.0,0.0,0.0,0.0,0.0,0.0,0.0,0.0,0.0,0.0,0.0,0.0,0.0,0.0,0.0,0.0,0.0,0.0,0.0,0.0,0.0,-3.0189,-3.5634,-4.0305,-4.4048,-4.5922,-4.6588,-4.6065,-4.1917,-3.785,0.0,0.0,0.0,0.0,0.0,0.0,0.0,0.0,0.0,0.0,0.0,0.0,0.0,0.0,0.0,0.0,0.0,0.0,0.0,0.0,0.0,0.0,0.0,0.0,0.0,0.0,0.0,0.0,0.0,0.0,0.0,0.0,0.0,0.0,0.0,0.0,0.0,0.0,0.0,0.0,0.0,-1.8544,-2.0726,-2.1569,-2.2175,0.0,0.0,0.0,-2.2381,-2.2006,0.0,0.0,0.0,0.0,0.0,0.0,0.0,0.0,0.0,0.0,0.0,0.0,0.0,0.0,0.0,0.0,0.0,0.0,0.0,0.0,0.0,0.0,0.0,0.0,0.0,0.0,0.0,0.0,0.0,0.0,0.0,0.0,0.0,0.0,0.0,0.0,0.0,0.0,0.0,0.0,0.0,0.0,0.0,0.0,0.0,0.0,0.0,0.0,0.0,0.0,0.0,0.0,0.0,0.0,0.0,-2.7475,-3.1719,-3.6586,-4.1073,-4.5013,-4.7066,-4.7548,-4.645,-4.296,-3.9051,0.0,0.0,0.0,0.0,0.0,0.0,0.0,0.0,0.0,0.0,0.0,0.0,0.0,0.0,0.0,0.0,0.0,0.0,0.0,0.0,0.0,0.0,0.0,0.0,0.0,0.0,0.0,0.0,0.0,0.0,0.0,0.0,0.0,0.0,0.0,0.0,0.0,0.0,0.0,0.0,0.0,0.0,-2.1407,-2.2787,0.0,0.0,0.0,-2.4316,-2.414,0.0,0.0,0.0,0.0,0.0,0.0,0.0,0.0,0.0,0.0,0.0,0.0,0.0,0.0,0.0,0.0,0.0,0.0,0.0,0.0,0.0,0.0,0.0,0.0,0.0,0.0,0.0,0.0,0.0,0.0,0.0,0.0,0.0,0.0,0.0,0.0,0.0,0.0,0.0,0.0,0.0,0.0,0.0,0.0,0.0,0.0,0.0,0.0,0.0,0.0,0.0,0.0,0.0,0.0,0.0,0.0,0.0,-3.3119,-3.7739,-4.2116,-4.6117,-4.8264,-4.8683,-4.7298,-4.4139,0.0,0.0,0.0,0.0,0.0,0.0,0.0,0.0,0.0,0.0,0.0,0.0,0.0,0.0,0.0,0.0,0.0,0.0,0.0,0.0,0.0,0.0,0.0,0.0,0.0,0.0,0.0,-1.4237,0.0,0.0,0.0,0.0,0.0,0.0,0.0,0.0,0.0,0.0,0.0,0.0,0.0,0.0,-2.1073,-2.2568,-2.4191,-2.5415,0.0,0.0,-2.6046,-2.5955,-2.5611,-2.4999,0.0,0.0,0.0,0.0,0.0,0.0,0.0,0.0,0.0,0.0,0.0,0.0,0.0,0.0,0.0,0.0,0.0,0.0,0.0,0.0,0.0,0.0,0.0,0.0,0.0,0.0,0.0,0.0,0.0,0.0,0.0,0.0,0.0,0.0,0.0,0.0,0.0,0.0,0.0,0.0,0.0,0.0,0.0,0.0,0.0,0.0,0.0,0.0,0.0,0.0,0.0,0.0,0.0,0.0,0.0,-3.428,-3.9432,-4.4061,-4.8012,-4.9461,-4.998,-4.9403,-4.5436,-4.1622,0.0,0.0,0.0,0.0,0.0,0.0,0.0,0.0,0.0,0.0,0.0,0.0,0.0,0.0,0.0,0.0,0.0,0.0,0.0,0.0,0.0,0.0,0.0,0.0,0.0,0.0,0.0,0.0,0.0,0.0,0.0,0.0,0.0,0.0,0.0,0.0,0.0,0.0,0.0,0.0,0.0,-2.2395,-2.5126,-2.6064,-2.6939,0.0,0.0,-2.8351,-2.7973,-2.7576,-2.7106,-2.6601,0.0,0.0,0.0,0.0,0.0,0.0,0.0,0.0,0.0,0.0,0.0,0.0,0.0,0.0,0.0,0.0,0.0,0.0,0.0,0.0,0.0,0.0,0.0,0.0,0.0,0.0,0.0,0.0,0.0,0.0,0.0,0.0,0.0,0.0,0.0,0.0,0.0,0.0,0.0,0.0,0.0,0.0,0.0,0.0,0.0,0.0,0.0,0.0,0.0,0.0,0.0,0.0,0.0,-3.0798,-3.5352,-4.0256,-4.4625,-4.8443,-5.0231,-5.0908,-5.049,-4.729,-4.3856,0.0,0.0,0.0,0.0,0.0,0.0,0.0,0.0,0.0,0.0,0.0,0.0,0.0,0.0,0.0,0.0,0.0,0.0,0.0,0.0,0.0,0.0,0.0,0.0,0.0,0.0,0.0,0.0,-1.6635,-1.6855,-1.6771,0.0,0.0,0.0,0.0,0.0,0.0,0.0,0.0,0.0,0.0,-2.4277,-2.615,-2.7455,0.0,0.0,-2.9051,-2.9051,-2.8823,-2.8311,-2.7742,-2.727,-2.6432,0.0,0.0,0.0,0.0,0.0,0.0,0.0,0.0,0.0,0.0,0.0,0.0,0.0,0.0,0.0,0.0,0.0,0.0,0.0,0.0,0.0,0.0,0.0,0.0,0.0,0.0,0.0,0.0,0.0,0.0,0.0,0.0,0.0,0.0,0.0,0.0,0.0,0.0,0.0,0.0,0.0,0.0,0.0,0.0,0.0,0.0,0.0,0.0,0.0,0.0,0.0,0.0,-3.1701,-3.633,-4.1075,-4.5406,-4.9282,-5.0993,-5.1821,-5.1693,-4.8952,-4.5923,0.0,0.0,0.0,0.0,0.0,0.0,0.0,0.0,0.0,0.0,0.0,0.0,0.0,0.0,0.0,0.0,0.0,0.0,0.0,0.0,0.0,0.0,0.0,0.0,0.0,0.0,0.0,0.0,-1.7735,-1.7781,-1.7356,0.0,0.0,0.0,0.0,0.0,0.0,0.0,0.0,0.0,0.0,-2.6224,-2.7563,-2.8953,-2.9947,-3.012,-3.0139,-3.0044,-2.9814,-2.9279,-2.878,-2.8243,0.0,0.0,0.0,0.0,0.0,0.0,0.0,0.0,0.0,0.0,0.0,0.0,0.0,0.0,0.0,0.0,0.0,0.0,0.0,0.0,0.0,0.0,0.0,0.0,0.0,0.0,0.0,0.0,0.0,0.0,0.0,0.0,0.0,0.0,0.0,0.0,0.0,0.0,0.0,0.0,0.0,0.0,0.0,0.0,0.0,0.0,0.0,0.0,0.0,0.0,0.0,0.0,0.0,0.0,-3.7148,-4.2114,-4.6618,-5.0513,-5.1978,-5.2875,-5.3339,-5.0344,-4.7432,-4.4763,0.0,0.0,0.0,0.0,0.0,0.0,0.0,0.0,0.0,0.0,0.0,0.0,0.0,0.0,0.0,0.0,0.0,0.0,0.0,0.0,0.0,0.0,0.0,0.0,0.0,0.0,-1.9313,-1.9195,-1.8984,0.0,0.0,0.0,0.0,0.0,0.0,0.0,0.0,0.0,0.0,-2.6163,-2.8061,-2.9674,-3.06,-3.1243,-3.1971,-3.209,-3.1836,-3.0957,-3.0859,-3.0566,0.0,0.0,0.0,0.0,0.0,0.0,0.0,0.0,0.0,0.0,0.0,0.0,0.0,0.0,0.0,0.0,0.0,0.0,0.0,0.0,0.0,0.0,0.0,0.0,0.0,0.0,0.0,-2.5816,-2.5339,0.0,0.0,0.0,0.0,0.0,0.0,0.0,0.0,0.0,0.0,0.0,-3.5419,-3.6029,0.0,0.0,0.0,0.0,0.0,0.0,0.0,0.0,0.0,0.0,0.0,0.0,-3.478,-3.8699,-4.3161,-4.7196,-5.0634,-5.1886,-5.2776,-5.3366,-5.1425,-4.8264,-4.4052,0.0,0.0,0.0,0.0,0.0,0.0,0.0,0.0,0.0,0.0,0.0,0.0,0.0,0.0,0.0,0.0,0.0,0.0,0.0,0.0,0.0,0.0,0.0,0.0,0.0,-1.9968,0.0,0.0,0.0,0.0,0.0,0.0,0.0,0.0,0.0,0.0,0.0,-2.5419,-2.6736,-2.8253,-2.9617,-3.066,-3.1172,-3.1507,0.0,0.0,0.0,0.0,0.0,0.0,0.0,0.0,0.0,0.0,0.0,0.0,0.0,0.0,-2.3894,-2.3621,-2.3475,-2.3172,-2.2456,0.0,0.0,0.0,0.0,0.0,0.0,0.0,0.0,0.0,0.0,0.0,0.0,0.0,0.0,0.0,0.0,-2.9335,0.0,0.0,0.0,0.0,0.0,0.0,0.0,0.0,-3.5242,-3.7874,-4.0707,-4.1166,-4.1719,0.0,-4.1207,-3.8542,0.0,0.0,0.0,0.0,0.0,0.0,0.0,0.0,-3.6581,-3.9972,-4.4175,-4.7831,-5.0735,-5.2155,-5.3128,-5.3465,-5.1231,-4.8187,-4.4289,-3.991,-3.6897,0.0,0.0,0.0,0.0,0.0,0.0,0.0,0.0,0.0,0.0,0.0,0.0,0.0,0.0,0.0,0.0,0.0,0.0,0.0,0.0,0.0,0.0,0.0,-2.2039,0.0,0.0,0.0,0.0,0.0,0.0,0.0,0.0,0.0,-2.4154,-2.6009,-2.7889,-2.8836,-3.0073,-3.1077,-3.165,0.0,0.0,0.0,0.0,0.0,0.0,0.0,-3.1289,-3.1133,-3.0508,-2.9922,-2.9609,-2.8765,-2.7895,-2.7313,0.0,0.0,-2.4946,-2.4622,-2.4263,-2.3551,-2.3411,-2.3533,-2.3821,-2.4119,-2.4587,0.0,0.0,0.0,0.0,0.0,0.0,0.0,0.0,-3.6485,-3.6167,0.0,-3.4639,0.0,0.0,0.0,0.0,0.0,0.0,0.0,0.0,-4.0793,-4.3298,-4.5613,-4.5796,-4.6209,-4.6739,-4.529,-4.411,-4.2995,-3.7431,0.0,0.0,0.0,0.0,0.0,0.0,-3.8031,-4.0866,-4.513,-4.8549,-5.1013,-5.2849,-5.375,-5.3579,-4.9961,-4.726,-4.5621,-4.2055,-3.9338,-3.7678,-3.482,0.0,0.0,0.0,0.0,0.0,0.0,0.0,0.0,0.0,0.0,0.0,0.0,0.0,0.0,0.0,0.0,0.0,0.0,0.0,0.0,-2.3438,0.0,0.0,0.0,0.0,0.0,0.0,0.0,0.0,0.0,0.0,-2.7138,-2.8301,-2.9636,-3.049,0.0,0.0,0.0,0.0,-3.3355,-3.3335,-3.3335,-3.3242,-3.2851,-3.2483,-3.2033,-3.1543,0.0,0.0,-2.9687,-2.8978,-2.8314,-2.7891,-2.7146,-2.6409,-2.5376,-2.4677,-2.427,-2.4214,-2.4196,-2.4282,-2.448,-2.4688,-2.5085,-4.9382,0.0,0.0,0.0,0.0,-4.1643,-4.2055,-4.2401,-4.2786,-4.2511,-4.1668,-4.0789,0.0,0.0,0.0,0.0,0.0,0.0,-4.0583,-4.3434,-4.4932,-4.7246,-5.0181,-5.0142,-5.0196,-5.0378,-4.9318,-4.7826,-4.5914,-4.3656,-4.0883,-3.7634,0.0,0.0,0.0,0.0,-4.0945,-4.2985,-4.6601,-4.9355,-5.106,-5.2204,-5.2548,-5.2163,-4.9006,-4.7241,-4.7134,-4.2926,-4.0417,-4.0033,-3.7036,0.0,0.0,0.0,0.0,0.0,0.0,0.0,0.0,0.0,0.0,0.0,0.0,0.0,0.0,0.0,0.0,0.0,0.0,0.0,-2.5016,-2.5925,-2.6554,0.0,0.0,0.0,0.0,0.0,0.0,0.0,0.0,0.0,-3.1873,-3.1922,-3.1875,0.0,0.0,-3.3148,-3.2922,-3.298,-3.3058,-3.3038,0.0,0.0,0.0,-3.2552,-3.192,-3.1407,-3.0602,-2.9709,-2.8942,-2.8388,-2.7857,-2.7222,-2.6295,-2.5577,-2.5269,-2.522,-2.5083,-2.477,-2.4695,-2.4745,-2.4775,-2.4824,-2.5055,-5.4897,-5.107,-4.8862,-4.7467,-4.6748,-4.7243,-4.7647,-4.7887,-4.8359,-4.8104,-4.721,-4.6535,-4.5202,-4.3482,-4.2117,0.0,0.0,0.0,-4.5426,-4.7845,-4.9163,-5.0932,-5.3052,-5.3063,-5.3115,-5.3318,-5.2005,-5.0604,-4.9235,-4.7889,-4.5808,-4.3009,0.0,0.0,-4.0246,-4.1665,-4.313,-4.4645,-4.7456,-4.957,-5.0755,-5.1392,-5.1538,-5.1202,-4.8291,-4.6879,-4.7247,-4.3258,-4.103,-4.1075,-3.8426,-3.6242,0.0,0.0,0.0,0.0,0.0,0.0,0.0,0.0,0.0,0.0,0.0,-2.2681,0.0,0.0,0.0,0.0,-2.5523,-2.6626,-2.7744,-2.8357,0.0,0.0,0.0,0.0,0.0,0.0,0.0,-3.2208,-3.3023,-3.365,-3.3942,-3.3627,-3.3277,-3.3148,-3.3623,-3.3779,-3.3285,0.0,-3.3,-3.2805,-3.2497,-3.2346,-3.2529,-3.186,-3.1131,-3.0697,-2.9741,-2.8894,-2.835,-2.7703,-2.7084,-2.6465,-2.5661,-2.5061,-2.5061,-2.5032,-2.4946,-2.4702,-2.4646,-2.4646,-2.4646,-2.4695,-2.482,-5.92,-5.7999,-5.4963,-5.3062,-5.2071,-5.2479,-5.2686,-5.2733,-5.3218,-5.2894,-5.1939,-5.1537,-5.0338,-4.8342,-4.7095,0.0,0.0,-4.8942,-4.9996,-5.1763,-5.3058,-5.4074,-5.4962,-5.4871,-5.5057,-5.5604,-5.3652,-5.2763,-5.2594,-5.0462,-4.9144,-4.8496,-4.4963,-4.3333,-4.3547,-4.3938,-4.4754,-4.589,-4.7964,-4.95,-5.0261,-5.0485,-5.0651,-5.0722,-4.7682,-4.6186,-4.6446,-4.3194,-4.1199,-4.1007,-3.9042,-3.7341,-3.5943,0.0,0.0,0.0,0.0,0.0,0.0,0.0,0.0,0.0,0.0,0.0,0.0,0.0,0.0,0.0,-2.8652,0.0,-3.0136,-3.0575,0.0,0.0,0.0,-3.1996,-3.2343,-3.2897,-3.3446,-3.3823,0.0,0.0,0.0,0.0,-3.3968,-3.422,-3.426,-3.414,-3.3678,-3.3291,-3.303,-3.2473,-3.1859,-3.1426,-3.1446,-3.0741,-2.9976,-2.9545,-2.8785,-2.8096,-2.7733,-2.6893,-2.6139,-2.574,-2.5201,-2.4771,-2.4721,-2.4459,-2.4202,-2.4202,-2.4202,-2.4202,-2.4251,-2.435,-2.4498,-6.1466,-6.0818,-6.0026,-5.7786,-5.4897,-5.5366,-5.5496,-5.5543,-5.6058,-5.5917,-5.5285,-5.4831,-5.3732,-5.212,-5.1413,-5.1483,-5.2143,-5.1886,-5.277,-5.4554,-5.4538,-5.5278,-5.6454,-5.6413,-5.6293,-5.5998,-5.5111,-5.4167,-5.3143,-5.1859,-5.0853,-4.997,-4.843,-4.6904,-4.5351,-4.6061,-4.6592,-4.6922,-4.8725,-4.9905,-5.0261,-4.9843,-4.951,-4.9251,-4.6409,-4.5042,-4.5469,-4.266,-4.0887,-4.049,-3.9176,-3.7906,-3.6678,-3.5399,0.0,0.0,0.0,0.0,0.0,0.0,0.0,0.0,0.0,-2.6464,-2.788,0.0,-2.9412,0.0,-3.0859,-3.1545,-3.1997,-3.2409,0.0,0.0,-3.2914,-3.3257,-3.304,-3.3144,-3.345,-3.3797,-3.3693,-3.3612,-3.3797,-3.3797,-3.3617,-3.3055,-3.3071,-3.2922,-3.2194,-3.1997,-3.1799,-3.1368,-3.0859,-3.0585,-3.0697,-2.9921,-2.8991,-2.8536,-2.7832,-2.7169,-2.6683,-2.611,-2.5566,-2.5159,-2.4693,-2.4385,-2.4367,-2.4257,-2.422,-2.4202,-2.4202,-2.4202,-2.4202,-2.4251,-2.4251,-6.2624,-6.2143,-6.2167,-6.0589,-5.8141,-5.8403,-5.8403,-5.8213,-5.8498,-5.8332,-5.7702,-5.7047,-5.6239,-5.5407,-5.486,-5.4931,-5.5383,-5.5121,-5.5414,-5.6223,-5.62,-5.6327,-5.6684,-5.69,-5.6876,-5.6564,-5.577,-5.502,-5.4191,-5.302,-5.2005,-5.1138,-5.0463,-4.9374,-4.7761,-4.7835,-4.782,-4.7766,-4.8919,-4.9677,-4.9908,-4.8921,-4.8381,-4.8191,-4.5506,-4.4182,-4.4482,-4.2051,-4.0501,-4.0275,-3.9107,-3.8019,-3.705,-3.599,-3.4634,0.0,0.0,0.0,0.0,0.0,0.0,0.0,0.0,0.0,0.0,0.0,-3.1683,0.0,-3.2874,-3.3194,-3.3434,-3.3494,-3.3411,-3.3082,-3.3369,-3.3371,-3.301,-3.3112,-3.3315,-3.3498,-3.3376,-3.3254,-3.3295,-3.2955,-3.2495,-3.1878,-3.1545,-3.1388,-3.1366,-3.1229,-3.0955,-3.0543,-2.9878,-2.9254,-2.9105,-2.8469,-2.7917,-2.7641,-2.7114,-2.6587,-2.6041,-2.5566,-2.5133,-2.4633,-2.4367,-2.4202,-2.4202,-2.4202,-2.4202,-2.4202,-2.4202,-2.4202,-2.4202,-2.4202,-2.4165,-6.3081,-6.2672,-6.2624,-6.1999,-6.1061,-6.0989,-6.0652,-6.0171,-6.0171,-5.9907,-5.9426,-5.844,-5.8031,-5.7983,-5.7454,-5.7502,-5.8007,-5.7935,-5.7622,-5.7165,-5.7598,-5.7237,-5.6275,-5.6756,-5.6997,-5.6876,-5.589,-5.5361,-5.5265,-5.3847,-5.2755,-5.1958,-5.1507,-5.0855,-4.9927,-4.9192,-4.8689,-4.8582,-4.8845,-4.9124,-4.9342,-4.8075,-4.742,-4.7342,-4.4819,-4.3484,-4.3473,-4.1438,-4.0192,-4.004,-3.9066,-3.8058,-3.7252,-3.6289,-3.5252,0.0,-3.3435,0.0,0.0,0.0,0.0,0.0,0.0,0.0,0.0,-3.3035,-3.3761,-3.4469,-3.4467,-3.4427,-3.4448,-3.4043,-3.3638,-3.3372,-3.3215,-3.2975,-3.2694,-3.2915,-3.3015,-3.2974,-3.2954,-3.2775,-3.2495,-3.1761,-3.1149,-3.076,-3.0135,-2.9895,-3.0578,-3.0505,-3.0102,-2.9782,-2.8815,-2.793,-2.7266,-2.7012,-2.6934,-2.6836,-2.6543,-2.6159,-2.5572,-2.5131,-2.4669,-2.4227,-2.411,-2.406,-2.4128,-2.4165,-2.4202,-2.4202,-2.4202,-2.4202,-2.4202,-2.4202,-2.4073,-6.3274,-6.3153,-6.2768,-6.2215,-6.1614,-6.1157,-6.0652,-6.0171,-6.0171,-6.0123,-5.9979,-5.9353,-5.9089,-5.9041,-5.8536,-5.8584,-5.9065,-5.8632,-5.8175,-5.7646,-5.7766,-5.7237,-5.6299,-5.678,-5.6804,-5.6347,-5.5722,-5.5169,-5.476,-5.368,-5.2882,-5.2332,-5.1657,-5.0845,-4.988,0.0,0.0,0.0,-4.9079,-4.8835,-4.8572,-4.7924,-4.7227,-4.6553,-4.4372,0.0,-4.262,-4.1287,-4.0131,-3.945,-3.9454,0.0,0.0,0.0,0.0,0.0,0.0,0.0,0.0,0.0,0.0,0.0,-3.4417,-3.4137,-3.3922,-3.4554,-3.5025,-3.5001,-3.4879,-3.4653,-3.4461,-3.3938,-3.3597,-3.3537,-3.3336,-3.2995,-3.2593,-3.2335,-3.2097,-3.168,-3.1485,-3.1309,-3.1231,-3.078,-3.0329,-2.9939,-2.9375,-2.9019,-2.8873,-2.8873,-2.8623,-2.8172,-2.765,-2.709,-2.6582,-2.6504,-2.6387,-2.6074,-2.5888,-2.5615,-2.5096,-2.4665,-2.4256,-2.3754,-2.3608,-2.3657,-2.3657,-2.3914,-2.4183,-2.4202,-2.4202,-2.4202,-2.4202,-2.4202,-2.4073,-6.3322,0.0,-6.2793,-6.2287,0.0,-6.1205,-6.0676,-6.0171,-6.0171,-6.0171,-6.0147,-5.9883,-5.9786,-5.9762,-5.9498,-5.9522,-5.9738,-5.9233,-5.8704,-5.8199,-5.7935,-5.7381,-5.6636,-5.69,-5.6756,-5.6227,-5.565,-5.5121,-5.4592,-5.3596,-5.2869,-5.2383,-5.1825,-5.1119,-5.0392,-5.0012,-4.9525,-4.8929,-4.8768,-4.848,-4.801,-4.7291,-4.6646,-4.5957,0.0,0.0,0.0,0.0,0.0,0.0,0.0,0.0,0.0,0.0,0.0,-3.7071,-3.6924,-3.6616,-3.602,-3.6297,-3.6345,-3.604,-3.5758,-3.5331,-3.4902,-3.5025,-3.5065,-3.5018,-3.4669,-3.438,-3.4072,-3.3569,-3.313,-3.2833,-3.2474,-3.2135,-3.178,-3.1564,-3.1348,-3.1171,-3.0995,-3.082,-3.0566,-3.0176,-2.9726,-2.9297,-2.8887,-2.8535,-2.832,-2.8105,-2.7773,-2.7148,-2.6875,-2.6562,-2.6172,-2.6074,-2.5918,-2.5527,-2.5314,-2.4977,-2.4383,-2.4051,-2.3682,-2.3301,-2.3206,-2.3206,-2.3242,-2.3535,-2.384,-2.3877,-2.4073,-2.4202,-2.4202,-2.4202,-2.4018,-6.3322,-6.3274,-6.2696,-6.2191,-6.1758,-6.1109,-6.058,-6.0171,0.0,0.0,0.0,-6.0171,-6.0171,-6.0171,-6.0171,-6.0171,-6.0147,-5.9618,-5.9041,-5.844,-5.8007,-5.7478,-5.69,-5.6876,-5.6588,-5.6083,-5.553,-5.4977,-5.4447,-5.3534,-5.2856,-5.2342,-5.1866,-5.1263,-5.0778,-5.0378,-4.961,-4.8566,-4.8469,-4.8318,-4.7901,-4.6948,-4.6327,-4.594,-4.4286,-4.3178,-4.2694,-4.1553,-4.0853,-4.0646,-4.0301,-3.9952,-3.9814,-3.9305,-3.8799,-3.8363,-3.8204,-3.7938,-3.7555,-3.7796,-3.7637,-3.685,-3.6093,-3.556,-3.5293,-3.5023,-3.4754,-3.4648,-3.4176,-3.3729,-3.3469,-3.2965,-3.2448,-3.1919,-3.1484,-3.117,-3.0957,-3.0898,-3.0957,-3.0898,-3.0898,-3.0723,-3.0273,-2.9863,-2.9414,-2.8984,-2.8594,-2.8203,-2.8066,-2.7754,-2.7246,-2.6484,-2.6289,-2.6152,-2.581,-2.5713,-2.5547,-2.5195,-2.4888,-2.4478,-2.3852,-2.3429,-2.3112,-2.2832,-2.2785,-2.2785,-2.2821,-2.3133,-2.337,-2.3389,-2.3694,-2.3981,-2.395,-2.4055,-2.3822,-6.3322,-6.3185,-6.2312,-6.1879,-6.1734,-6.0724,-6.0243,-6.0171,-6.0171,-6.0171,-6.0171,-6.0171,-6.0171,-6.0171,-6.0171,-6.0171,-6.0147,-5.9642,-5.8848,0.0,-5.7838,-5.7285,-5.6371,-5.6347,-5.6059,-5.5506,-5.4977,-5.4447,-5.3918,-5.3341,-5.2836,-5.2306,-5.1415,-5.0553,-4.9767,-4.965,-4.932,-4.8684,-4.8661,-4.8825,-4.9224,-4.7911,-4.726,-4.7074,-4.5392,-4.4255,-4.3759,-4.2862,-4.2105,-4.166,-4.1539,-4.1261,-4.0806,-4.015,-3.9666,-3.9356,-3.9144,-3.8716,-3.7878,-3.8141,-3.7758,-3.6524,-3.527,-3.4615,-3.4838,-3.4857,-3.4544,-3.401,-3.3396,-3.3015,-3.2819,-3.2044,-3.156,-3.1385,-3.1151,-3.0957,-3.0898,-3.0898,-3.0898,-3.0898,-3.0898,-3.0703,-3.0215,-2.9824,-2.9394,-2.8965,-2.8481,-2.8047,-2.7389,-2.7148,-2.6738,-2.6005,-2.5771,-2.5752,-2.5693,-2.5674,-2.5479,-2.5137,-2.485,-2.4373,-2.3681,-2.3101,-2.2704,-2.241,-2.2382,-2.2382,-2.2382,-2.2693,-2.2931,-2.2986,-2.3096,-2.3151,-2.3169,-2.3407,-2.3553,-6.3322,-6.3201,-6.2215,-6.1807,-6.171,-6.0628,-6.0171,-6.0171,-6.0171,-6.0171,-6.0171,-6.0171,-6.0171,-6.0171,-6.0171,-6.0027,-5.9714,-5.9185,-5.8536,-5.7814,-5.7502,-5.7117,-5.666,-5.6371,-5.5938,-5.5385,-5.4856,-5.4327,-5.3798,-5.3029,-5.2524,-5.2235,-5.1321,-5.0556,-5.0199,-5.0175,-4.9842,-4.9319,-4.8944,-4.8709,-4.8686,-4.7749,-4.7141,-4.6861,-4.5572,-4.4543,-4.3851,-4.2867,-4.2237,-4.1993,-4.1616,-4.1437,-4.1392,-4.088,-4.0518,-4.0471,-3.9923,-3.9268,-3.8618,-3.7912,-3.7154,-3.6218,-3.5146,-3.4328,-3.3922,-3.3677,-3.343,-3.3118,-3.258,-3.2183,-3.1981,-3.1556,-3.1228,-3.1112,-3.0937,-3.0898,-3.0898,-3.0898,-3.0898,-3.0898,-3.0898,-3.0625,-2.9941,-2.9687,-2.9297,-2.873,-2.8272,-2.7738,-2.6943,-2.6788,-2.6548,-2.5839,-2.5674,-2.5693,-2.5674,-2.5674,-2.5421,-2.4703,-2.4352,-2.3784,-2.3043,-2.2415,-2.2179,-2.2006,-2.1961,-2.1961,-2.198,-2.2291,-2.251,-2.2584,-2.2785,-2.2876,-2.295,-2.3224,-2.348,-6.3274,-6.3081,-6.2167,-6.1662,-6.1374,-6.0532,-6.0171,-6.0171,-6.0171,-6.0171,-6.0171,-6.0171,-6.0171,-6.0171,-6.0171,-5.9883,-5.9353,-5.8824,-5.8319,-5.779,-5.7261,-5.7021,-5.6949,-5.6371,-5.5818,-5.5361,-5.4736,-5.4159,-5.3582,-5.2716,-5.2163,-5.1874,-5.1105,-5.0696,-5.0696,-5.0696,-5.0431,-4.9902,-4.9176,-4.859,-4.8258,-4.7575,-4.7055,-4.663,-4.5728,-4.4846,-4.3957,-4.3101,-4.259,-4.2327,-4.185,-4.1643,-4.179,-4.1354,-4.1129,-4.1145,-4.0466,-3.9652,-3.8886,-3.7706,-3.6548,-3.5703,-3.492,-3.3982,-3.2995,-3.2394,-3.2193,-3.227,-3.1931,-3.1576,-3.1383,-3.1208,-3.1112,-3.0957,-3.0898,-3.0898,-3.0898,-3.0898,-3.0898,-3.0898,-3.0801,-3.041,-2.9785,-2.9473,-2.9121,-2.8388,-2.796,-2.7492,-2.6806,-2.6576,-2.6275,-2.5916,-2.5703,-2.5693,-2.5674,-2.5674,-2.5285,-2.436,-2.3954,-2.338,-2.2561,-2.1994,-2.175,-2.1723,-2.1705,-2.1723,-2.1723,-2.1925,-2.2126,-2.2163,-2.2364,-2.2602,-2.273,-2.3059,-2.3389,-6.3081,-6.26,-6.2023,-6.1229,-6.0388,-6.0219,-6.0171,-6.0171,-6.0171,-6.0171,-6.0171,-6.0171,-6.0171,-6.0171,-6.0171,-5.9883,-5.9353,-5.8848,-5.8319,-5.7766,-5.7261,-5.7021,-5.69,-5.5963,-5.5433,-5.5265,-5.4375,-5.3678,-5.3173,-5.2548,-5.1778,-5.096,-5.0744,-5.0696,-5.0696,-5.0696,-5.0431,-4.9948,-4.9328,-4.9064,-4.8968,-4.7964,-4.7412,-4.7364,-4.6381,-4.555,-4.4888,-4.4448,-4.3836,-4.3347,-4.2904,-4.24,-4.1969,-4.1499,-4.1136,-4.1046,-4.0642,-3.9816,-3.8341,-3.7496,-3.6472,-3.5022,-3.3942,-3.3015,-3.2217,-3.1505,-3.1287,-3.1636,-3.1538,-3.1325,-3.1267,-3.1112,-3.0957,-3.0957,-3.0898,-3.0898,-3.0898,-3.0898,-3.0898,-3.0898,-3.0586,-3.0078,-2.9704,-2.9238,-2.87,-2.8037,-2.7638,-2.7305,-2.6831,-2.6489,-2.6142,-2.5918,-2.575,-2.5732,-2.5693,-2.5674,-2.5363,-2.4698,-2.4126,-2.3428,-2.2721,-2.2105,-2.1687,-2.1705,-2.1687,-2.1687,-2.1687,-2.1742,-2.176,-2.1833,-2.1906,-2.1961,-2.2272,-2.2693,-2.3059,-6.3033,-6.2552,-6.1999,-6.1157,-6.0243,-6.0171,-6.0171,-6.0171,-6.0171,-6.0171,-6.0171,-6.0171,-6.0171,-6.0171,-6.0171,-5.9714,-5.8921,-5.868,-5.8127,-5.7381,-5.7117,-5.6852,-5.6492,-5.577,-5.5241,-5.488,-5.4159,-5.3558,-5.3004,-5.2235,-5.1441,-5.0792,-5.0696,-5.0696,-5.0696,-5.0696,-5.0431,-4.9948,-4.9662,-4.9253,-4.8603,-4.7906,-4.7497,-4.7377,-4.6463,-4.5669,-4.5053,-4.4261,-4.3746,-4.3481,-4.2735,-4.2265,-4.2049,-4.1287,-4.1091,-4.1398,-4.0923,-3.9961,-3.8616,-3.7391,-3.6243,-3.5005,-3.3578,-3.2475,-3.1761,-3.1054,-3.0743,-3.0918,-3.1054,-3.1054,-3.1054,-3.0937,-3.0898,-3.0898,-3.0898,-3.0898,-3.0898,-3.0898,-3.0898,-3.0879,-3.0723,-3.0312,-2.9648,-2.8855,-2.8192,-2.7657,-2.7314,-2.6983,-2.6627,-2.6383,-2.606,-2.5597,-2.5496,-2.5602,-2.5654,-2.5547,-2.5208,-2.4622,-2.4136,-2.3551,-2.2686,-2.2336,-2.198,-2.1742,-2.1705,-2.1687,-2.1687,-2.1687,-2.1687,-2.1687,-2.1687,-2.176,-2.1906,-2.2455,-2.2913,-6.2961,-6.2312,-6.1614,-6.0954,-6.0195,-6.0171,-6.0171,-6.0171,-6.0171,-6.0171,-6.0171,-6.0171,-6.0099,-5.9979,-5.9955,-5.945,-5.8656,-5.844,-5.7911,-5.7093,-5.7021,-5.6756,-5.6227,-5.5674,-5.5121,-5.4592,-5.4087,-5.3485,-5.2812,-5.1802,-5.1081,-5.0744,-5.0696,-5.0696,-5.0696,-5.0696,-5.0503,-5.0119,-4.995,-4.9421,-4.8579,-4.7978,-4.7569,-4.7233,-4.6415,-4.5669,-4.5077,-4.4251,-4.3673,-4.3505,-4.2663,-4.211,-4.1966,-4.1195,-4.0893,-4.128,-4.091,-4.0018,-3.8781,-3.7457,-3.6139,-3.4903,-3.3376,-3.2175,-3.1427,-3.0741,-3.0411,-3.0274,-3.047,-3.0645,-3.0762,-3.082,-3.0898,-3.0898,-3.0898,-3.0879,-3.0762,-3.0762,-3.0704,-3.0645,-3.0451,-3.0141,-2.9252,-2.8375,-2.772,-2.7352,-2.7043,-2.6806,-2.6509,-2.6361,-2.6027,-2.5503,-2.5464,-2.5358,-2.5478,-2.5333,-2.4917,-2.4552,-2.4122,-2.3613,-2.275,-2.2529,-2.2254,-2.198,-2.1815,-2.1705,-2.1687,-2.1687,-2.1687,-2.1687,-2.1687,-2.1687,-2.1742,-2.2382,-2.2803,-6.2744,-6.1734,-6.07,-6.0243,-6.0171,-6.0171,-6.0171,-6.0171,-6.0171,-6.0171,-6.0171,-6.0147,-5.9883,-5.945,-5.9402,-5.9113,-5.856,-5.8103,-5.7574,-5.7045,-5.7021,-5.6732,-5.6203,-5.565,-5.5121,-5.452,-5.3991,-5.3269,-5.2283,-5.1273,-5.0744,-5.072,-5.0696,-5.0696,-5.0696,-5.0696,-5.0696,-5.0576,-5.0167,-4.9589,-4.9036,-4.8507,-4.7786,-4.6896,-4.6247,-4.5654,-4.5101,-4.4549,-4.4021,-4.3529,-4.3,-4.2554,-4.2014,-4.1219,-4.0563,-4.0402,-4.045,-3.9897,-3.868,-3.7677,-3.6371,-3.4574,-3.3295,-3.2056,-3.1113,-3.0606,-3.0294,-3.0,-3.0038,-3.0136,-3.0371,-3.0665,-3.084,-3.084,-3.0898,-3.0704,-3.045,-3.045,-3.0274,-2.9982,-2.9735,-2.9241,-2.833,-2.7789,-2.7491,-2.7138,-2.6809,-2.6609,-2.6535,-2.626,-2.6127,-2.6045,-2.5666,-2.5114,-2.5005,-2.4941,-2.4824,-2.4496,-2.4175,-2.3836,-2.3349,-2.2895,-2.2547,-2.2199,-2.1961,-2.1815,-2.1723,-2.1687,-2.1687,-2.1687,-2.1687,-2.1687,-2.1687,-2.2382,-2.2803,-6.2239,-6.1205,-6.0484,-6.0171,-6.0171,-6.0171,-6.0171,-6.0171,-6.0171,-6.0171,-6.0123,-5.9834,-5.957,-5.9353,-5.868,-5.8271,-5.8079,-5.7886,-5.7526,-5.7069,-5.7021,-5.6564,-5.5746,-5.5482,-5.4928,-5.4135,-5.3582,-5.2788,-5.1802,-5.1032,-5.0696,-5.0696,-5.0696,-5.0696,-5.0696,-5.0696,-5.0696,-5.0672,-5.0503,-4.9974,-4.9133,-4.8892,-4.8291,-4.7257,-4.6704,-4.6175,-4.5645,-4.5077,-4.4549,-4.3997,-4.3241,-4.2628,-4.2174,-4.1022,-3.9988,-3.9388,-3.9877,-3.9728,-3.8637,-3.7997,-3.6917,-3.519,-3.376,-3.2315,-3.1133,-3.0392,-3.0016,-3.0005,-3.0021,-3.0081,-3.0143,-3.027,-3.0235,-3.0294,-3.0294,-3.0235,-3.0098,-3.0098,-3.0039,-2.9865,-2.9562,-2.9107,-2.8539,-2.8015,-2.7475,-2.7179,-2.6793,-2.6628,-2.6573,-2.6444,-2.6315,-2.6164,-2.5869,-2.5496,-2.4881,-2.4746,-2.4578,-2.451,-2.4214,-2.3913,-2.351,-2.3316,-2.3004,-2.2675,-2.2346,-2.2071,-2.2034,-2.1833,-2.1797,-2.1687,-2.1687,-2.1687,-2.1687,-2.2382,-2.2748,-6.1807,-6.0941,-6.0388,-6.0171,-6.0171,-6.0171,-6.0171,-6.0171,-6.0171,-6.0075,-5.9859,-5.9522,-5.9209,-5.8824,-5.8127,-5.7694,-5.755,-5.755,-5.7357,-5.7021,-5.6852,-5.6275,-5.5506,-5.5217,-5.4664,-5.3822,-5.3125,-5.2331,-5.1513,-5.096,-5.072,-5.0696,-5.0696,-5.0696,-5.0696,-5.0696,-5.0696,-5.0696,-5.0696,-5.0167,-4.9229,-4.9084,-4.8555,-4.7617,-4.7136,-4.6631,-4.5958,-4.5342,-4.4837,-4.4237,-4.3337,-4.2413,-4.1483,-4.0356,-3.9341,-3.8653,-3.8957,-3.8975,-3.8188,-3.7594,-3.6708,-3.5397,-3.374,-3.2256,-3.1054,-3.0233,-2.9855,-2.9762,-2.9907,-2.9944,-2.9907,-2.9882,-2.9836,-2.9901,-2.9922,-2.9863,-2.9804,-2.9745,-2.9686,-2.9608,-2.9362,-2.9079,-2.87,-2.8179,-2.7751,-2.7454,-2.7031,-2.6793,-2.6774,-2.6646,-2.6518,-2.6206,-2.6076,-2.5764,-2.5319,-2.5016,-2.4585,-2.4424,-2.4313,-2.3999,-2.3804,-2.3627,-2.3444,-2.3133,-2.2821,-2.2529,-2.2254,-2.2053,-2.1888,-2.176,-2.1687,-2.1687,-2.1961,-2.2364,-2.273,-6.1446,-6.0869,-6.0388,-6.0171,-6.0171,-6.0171,-6.0171,-6.0171,-6.0147,-5.9859,-5.9498,-5.9329,-5.8728,-5.8031,-5.779,-5.7502,-5.7165,-5.7117,-5.7093,-5.6997,-5.6516,-5.5987,-5.5385,-5.4904,-5.4303,-5.363,-5.2764,-5.2018,-5.1417,-5.0936,-5.0696,-5.0696,-5.0696,-5.0696,-5.0696,-5.0696,-5.0696,-5.0696,-5.0672,-5.0119,-4.9229,-4.9036,-4.8531,-4.7617,-4.7425,-4.692,-4.5958,-4.5453,-4.4885,-4.4261,-4.3361,-4.1864,-4.0222,-3.9259,-3.8559,-3.8087,-3.7808,-3.7568,-3.7297,-3.6666,-3.6039,-3.5067,-3.3276,-3.2077,-3.1146,-3.0244,-2.958,-2.9338,-2.9439,-2.9641,-2.9678,-2.972,-2.9735,-2.9839,-2.9842,-2.9686,-2.9568,-2.9509,-2.939,-2.9153,-2.9039,-2.8851,-2.8535,-2.8355,-2.8171,-2.7858,-2.7435,-2.7178,-2.7141,-2.6903,-2.6646,-2.6518,-2.637,-2.6039,-2.5727,-2.5378,-2.4826,-2.4385,-2.4306,-2.4128,-2.4036,-2.3877,-2.3767,-2.3492,-2.3169,-2.2876,-2.2529,-2.2327,-2.2217,-2.2089,-2.1925,-2.187,-2.2199,-2.2565,-2.2803,-6.0917,-6.0412,-6.0243,-6.0171,-6.0171,-6.0171,-6.0171,-6.0123,-5.9786,-5.9546,-5.9281,-5.8608,-5.8103,-5.779,-5.7454,-5.7189,-5.7021,-5.7021,-5.7021,-5.6925,-5.6468,-5.5914,-5.5385,-5.4856,-5.3942,-5.2908,-5.2451,-5.1802,-5.1056,-5.0792,-5.0696,-5.0696,-5.0696,-5.0696,-5.0696,-5.0696,-5.0696,-5.0672,-5.0311,-4.9758,-4.9109,-4.8724,-4.8195,-4.7569,-4.7161,-4.6631,-4.5958,-4.5766,-4.5173,-4.4333,-4.3429,-4.2087,-4.0214,-3.8837,-3.7802,-3.7105,-3.7181,-3.7021,-3.6624,-3.6729,-3.6478,-3.5705,-3.4693,-3.3327,-3.1767,-3.099,-3.0279,-2.9573,-2.9507,-2.9733,-2.9929,-3.0002,-2.9923,-2.9735,-2.9439,-2.929,-2.9213,-2.9153,-2.9094,-2.9035,-2.8975,-2.892,-2.8792,-2.8627,-2.837,-2.8205,-2.7838,-2.7581,-2.7526,-2.7251,-2.7013,-2.6958,-2.6664,-2.6315,-2.6021,-2.5764,-2.543,-2.4914,-2.4619,-2.4367,-2.4257,-2.411,-2.395,-2.3822,-2.3547,-2.3206,-2.2858,-2.2675,-2.2584,-2.2455,-2.2327,-2.2382,-2.251,-2.273,-2.3004,-6.0652,-6.0195,-6.0171,-6.0171,-6.0171,-6.0171,-6.0051,-5.9859,-5.9546,-5.9185,-5.8704,-5.8127,-5.7694,-5.7478,-5.7165,-5.7021,-5.6997,-5.6852,-5.6708,-5.6636,-5.6179,-5.5626,-5.5049,-5.4351,-5.3461,-5.2451,-5.2091,-5.1537,-5.0744,-5.0696,-5.0696,-5.0696,-5.0696,-5.0696,-5.0696,-5.0696,-5.0696,-5.0624,-5.0167,-4.9614,-4.9084,-4.8555,-4.8026,-4.7545,-4.7185,-4.6655,-4.6006,-4.5934,-4.5366,-4.4343,-4.3265,-4.1751,-3.9833,-3.8359,-3.7144,-3.6281,-3.6018,-3.5957,-3.5748,-3.6059,-3.6287,-3.5722,-3.5073,-3.4057,-3.2512,-3.1821,-3.0965,-3.0033,-2.9965,-3.002,-2.9965,-2.9965,-2.9892,-2.9837,-2.9512,-2.9159,-2.903,-2.8975,-2.8975,-2.8975,-2.8975,-2.8975,-2.892,-2.881,-2.8608,-2.8553,-2.826,-2.8003,-2.7911,-2.7655,-2.7453,-2.7233,-2.6958,-2.6609,-2.6333,-2.6148,-2.6069,-2.5537,-2.5006,-2.4716,-2.4514,-2.4275,-2.411,-2.4091,-2.3889,-2.362,-2.329,-2.3151,-2.3041,-2.2895,-2.273,-2.2712,-2.2785,-2.3004,-2.3242,-6.0628,-6.0195,-6.0171,-6.0171,-6.0171,-6.0123,-5.9834,-5.945,-5.9257,-5.8704,-5.8007,-5.7766,-5.7478,-5.7117,-5.7045,-5.6997,-5.69,-5.6516,-5.6179,-5.5987,-5.5578,-5.5073,-5.4496,-5.3678,-5.2932,-5.2307,-5.1778,-5.1249,-5.072,-5.0696,-5.0696,-5.0696,-5.0696,-5.0696,-5.0696,-5.0696,-5.0696,-5.0624,-5.0095,-4.9586,-4.906,-4.8483,-4.8002,-4.7497,-4.7377,-4.692,-4.6199,-4.5822,-4.523,-4.417,-4.2832,-4.1291,-3.9433,-3.7913,-3.6683,-3.5666,-3.4879,-3.4776,-3.4818,-3.5169,-3.5269,-3.5318,-3.4799,-3.3799,-3.3199,-3.2501,-3.163,-3.0505,-3.0479,-3.0387,-2.9892,-2.9654,-2.98,-3.0057,-2.9745,-2.9379,-2.9048,-2.8975,-2.8975,-2.8975,-2.8975,-2.8975,-2.8975,-2.8938,-2.8938,-2.8883,-2.8627,-2.8462,-2.8333,-2.8077,-2.7691,-2.7471,-2.7361,-2.7124,-2.6792,-2.6735,-2.6639,-2.6356,-2.58,-2.5344,-2.4877,-2.4551,-2.4238,-2.422,-2.4146,-2.3877,-2.3749,-2.362,-2.3444,-2.3297,-2.3133,-2.3004,-2.3096,-2.3352,-2.3462,-6.0291,-6.0171,-6.0171,-6.0171,-6.0123,-5.9786,-5.9522,-5.9281,-5.8536,-5.8103,-5.7742,-5.7381,-5.7189,-5.7021,-5.7021,-5.6828,-5.6492,-5.6275,-5.5722,-5.5097,-5.4904,-5.452,-5.4015,-5.3389,-5.2788,-5.2259,-5.1706,-5.1225,-5.0744,-5.0696,-5.0696,-5.0696,-5.0696,-5.0696,-5.0696,-5.0696,-5.0696,-5.0551,-4.9734,-4.9277,-4.8988,-4.8195,-4.7666,-4.7497,-4.7161,-4.6824,-4.635,-4.5462,-4.4539,-4.3561,-4.2397,-4.136,-4.0066,-3.8183,-3.6708,-3.6013,-3.5226,-3.4673,-3.4693,-3.5004,-3.5477,-3.5875,-3.5389,-3.4868,-3.3989,-3.3472,-3.2525,-3.1367,-3.0717,-3.0424,-3.0332,-2.991,-2.9837,-3.0057,-2.9819,-2.9452,-2.9122,-2.8975,-2.8975,-2.8975,-2.8975,-2.8975,-2.8975,-2.8975,-2.8975,-2.8957,-2.8883,-2.8792,-2.8682,-2.8498,-2.8113,-2.8022,-2.7914,-2.764,-2.7438,-2.7326,-2.7249,-2.7128,-2.6642,-2.6124,-2.5596,-2.5002,-2.4619,-2.4312,-2.422,-2.4036,-2.4073,-2.3987,-2.3859,-2.3675,-2.3565,-2.3437,-2.3602,-2.3804,-2.3785,-6.0171,-6.0171,-6.0171,-6.0051,-5.9834,-5.9522,-5.9137,-5.8656,-5.8103,-5.767,-5.7454,-5.7165,-5.7021,-5.6997,-5.678,-5.654,-5.6203,-5.5746,-5.5193,-5.4712,-5.4375,-5.4111,-5.3702,-5.3125,-5.2572,-5.2235,-5.1513,-5.1008,-5.0744,-5.0696,-5.0696,-5.0696,-5.0696,-5.0696,-5.0696,-5.0696,-5.0696,-5.0551,-4.983,-4.9325,-4.9012,-4.8291,-4.7762,-4.7545,-4.7161,-4.6968,-4.6542,-4.5222,-4.397,-4.3082,-4.204,-4.0976,-3.9735,-3.8124,-3.6722,-3.5966,-3.5312,-3.4926,-3.4851,-3.5207,-3.5621,-3.5901,-3.5804,-3.5329,-3.4649,-3.4251,-3.3575,-3.2114,-3.1451,-3.1029,-3.0497,-2.9947,-2.9654,-2.9654,-2.9764,-2.9635,-2.9269,-2.9085,-2.8993,-2.8975,-2.8975,-2.8975,-2.8975,-2.8975,-2.8975,-2.8975,-2.8975,-2.8957,-2.892,-2.8737,-2.8553,-2.8388,-2.83,-2.8065,-2.7995,-2.7977,-2.7974,-2.7853,-2.7292,-2.6824,-2.6181,-2.5493,-2.4914,-2.4551,-2.4349,-2.422,-2.4257,-2.4257,-2.4128,-2.3932,-2.3859,-2.3859,-2.3969,-2.3987,-2.3987,-6.0171,-6.0171,-6.0123,-5.981,-5.9426,-5.9233,-5.8656,-5.7959,-5.7742,-5.7454,-5.7141,-5.7045,-5.7021,-5.6997,-5.654,-5.6203,-5.6059,-5.5169,-5.4712,-5.4375,-5.4111,-5.3846,-5.3726,-5.2956,-5.2475,-5.2163,-5.1249,-5.0864,-5.0744,-5.0696,-5.0696,-5.0696,-5.0696,-5.0696,-5.0696,-5.0696,-5.0696,-5.06,-5.0095,-4.9683,-4.9181,-4.8579,-4.805,-4.7714,-4.7497,-4.7161,-4.6436,-4.526,-4.395,-4.2875,-4.1851,-4.0471,-3.885,-3.7722,-3.6623,-3.5711,-3.5466,-3.5296,-3.5208,-3.5425,-3.5616,-3.5735,-3.5719,-3.5409,-3.4853,-3.4727,-3.4233,-3.2857,-3.2661,-3.1708,-3.0497,-2.9855,-2.9562,-2.9415,-2.9727,-2.9819,-2.9672,-2.9287,-2.903,-2.8975,-2.8975,-2.8975,-2.8975,-2.8975,-2.8975,-2.8975,-2.8975,-2.8975,-2.8975,-2.8883,-2.8718,-2.8572,-2.8502,-2.8431,-2.846,-2.8578,-2.8595,-2.8586,-2.7891,-2.7292,-2.6627,-2.5968,-2.5315,-2.4812,-2.4661,-2.4496,-2.4385,-2.4349,-2.4275,-2.4183,-2.4073,-2.411,-2.4183,-2.4146,-2.4128,-6.0171,-6.0147,-5.9738,-5.9498,-5.9257,-5.8512,-5.8031,-5.7766,-5.7357,-5.7165,-5.7045,-5.7021,-5.7021,-5.6973,-5.6419,-5.6011,-5.5554,-5.4856,-5.4423,-5.3966,-5.3918,-5.3822,-5.3702,-5.3149,-5.2692,-5.2259,-5.1658,-5.1129,-5.0864,-5.084,-5.072,-5.0768,-5.0864,-5.072,-5.0744,-5.0768,-5.072,-5.06,-5.0167,-4.9854,-4.9611,-4.882,-4.8291,-4.805,-4.7714,-4.7233,-4.6693,-4.5859,-4.4617,-4.3115,-4.1646,-4.0432,-3.9295,-3.7885,-3.6754,-3.629,-3.585,-3.5686,-3.5654,-3.5669,-3.5758,-3.596,-3.5545,-3.5146,-3.4825,-3.4823,-3.4427,-3.3569,-3.2955,-3.1964,-3.0662,-3.0185,-2.9855,-2.9599,-2.9415,-2.9562,-2.9837,-2.9672,-2.9324,-2.9104,-2.9012,-2.8993,-2.8993,-2.8975,-2.8975,-2.8975,-2.8975,-2.8975,-2.8975,-2.8975,-2.8883,-2.8718,-2.8759,-2.8766,-2.9027,-2.9089,-2.9182,-2.9082,-2.842,-2.7801,-2.7185,-2.6489,-2.5835,-2.5307,-2.4904,-2.4808,-2.4698,-2.4477,-2.4404,-2.4312,-2.4238,-2.4238,-2.4257,-2.4238,-2.4202,-6.0171,-6.0123,-5.9594,-5.9233,-5.8921,-5.8175,-5.767,-5.743,-5.7165,-5.7021,-5.7021,-5.7021,-5.6876,-5.6612,-5.6083,-5.553,-5.5001,-5.4496,-5.4087,-5.387,-5.3822,-5.3822,-5.3798,-5.3534,-5.3149,-5.262,-5.2115,-5.1706,-5.1489,-5.1417,-5.1513,-5.1441,-5.1417,-5.1345,-5.1105,-5.1081,-5.0936,-5.072,-5.0431,-5.0167,-4.9782,-4.9373,-4.8676,-4.8291,-4.781,-4.7287,-4.6849,-4.5903,-4.4851,-4.3506,-4.1772,-4.0169,-3.9087,-3.7801,-3.6898,-3.638,-3.6249,-3.6122,-3.6032,-3.5864,-3.575,-3.5963,-3.532,-3.4707,-3.4371,-3.4289,-3.3958,-3.3416,-3.2955,-3.2404,-3.1433,-3.0681,-3.0351,-2.9947,-2.969,-2.9635,-2.9635,-2.958,-2.9525,-2.9305,-2.9287,-2.9159,-2.9085,-2.9048,-2.8993,-2.8993,-2.8975,-2.8975,-2.8975,-2.8975,-2.8975,-2.892,-2.8938,-2.9102,-2.9444,-2.9642,-2.9736,-2.9485,-2.8952,-2.8403,-2.7784,-2.7082,-2.6407,-2.5911,-2.5344,-2.5161,-2.5065,-2.4826,-2.4643,-2.4606,-2.4532,-2.4404,-2.4293,-2.4275,-2.4238,-6.0123,-6.0003,-5.9498,-5.8969,-5.844,-5.7911,-5.743,-5.7093,-5.7021,-5.7021,-5.6997,-5.6949,-5.6612,-5.6179,-5.5554,-5.5001,-5.4496,-5.4135,-5.3846,-5.3846,-5.3822,-5.3822,-5.3798,-5.3726,-5.3558,-5.3149,-5.2644,-5.2355,-5.2211,-5.2283,-5.2067,-5.2211,-5.2235,-5.1946,-5.1658,-5.1586,-5.1369,-5.096,-5.0864,-5.0551,-5.0095,-4.9854,-4.9253,-4.8387,-4.782,-4.7418,-4.6803,-4.5853,-4.4819,-4.4026,-4.1918,-4.0039,-3.8507,-3.7482,-3.6742,-3.6084,-3.6372,-3.6549,-3.6429,-3.6178,-3.582,-3.5631,-3.5036,-3.4269,-3.3719,-3.3633,-3.3415,-3.3125,-3.2753,-3.2808,-3.2459,-3.1634,-3.0846,-3.0424,-3.0296,-2.9965,-2.9525,-2.9562,-2.9745,-2.9562,-2.958,-2.9562,-2.9305,-2.9177,-2.9085,-2.9012,-2.9012,-2.8993,-2.9012,-2.8975,-2.8975,-2.8975,-2.8975,-2.9272,-2.9653,-3.0122,-3.0238,-2.9986,-2.9468,-2.886,-2.835,-2.766,-2.694,-2.6296,-2.5803,-2.5653,-2.5451,-2.5249,-2.5102,-2.4992,-2.4882,-2.479,-2.4587,-2.433,-2.4293,-5.9907,-5.9474,-5.8945,-5.844,-5.7911,-5.7381,-5.7117,-5.7045,-5.6973,-5.6997,-5.6925,-5.654,-5.6299,-5.5963,-5.5145,-5.4471,-5.4087,-5.387,-5.3822,-5.3822,-5.3822,-5.3822,-5.3822,-5.3822,-5.375,-5.3606,-5.3173,-5.2764,-5.2451,-5.2283,-5.2475,-5.2355,-5.2379,-5.2259,-5.2211,-5.2115,-5.1898,-5.1417,-5.1297,-5.0984,-5.06,-5.0046,-4.9469,-4.8507,-4.8016,-4.7436,-4.6859,-4.5864,-4.4777,-4.3668,-4.2406,-4.0709,-3.8986,-3.7746,-3.6881,-3.6327,-3.6559,-3.6864,-3.6857,-3.6515,-3.6093,-3.5706,-3.5032,-3.4141,-3.3459,-3.335,-3.3152,-3.2818,-3.2588,-3.2551,-3.2148,-3.1873,-3.1451,-3.0974,-3.0681,-3.0607,-3.0461,-3.0387,-3.0241,-2.9855,-2.991,-2.9965,-2.9672,-2.947,-2.9415,-2.9305,-2.9177,-2.914,-2.9122,-2.9048,-2.8975,-2.8975,-2.8975,-2.9331,-2.9785,-3.0353,-3.0665,-3.0432,-2.9968,-2.9374,-2.8785,-2.82,-2.751,-2.6848,-2.6352,-2.6058,-2.5855,-2.5743,-2.5629,-2.5533,-2.5389,-2.5194,-2.4969,-2.4711,-2.4459,-5.9618,-5.9305,-5.8536,-5.8055,-5.7742,-5.7237,-5.6852,-5.6636,-5.6612,-5.6444,-5.6179,-5.5914,-5.5626,-5.5313,-5.4904,-5.4327,-5.3942,-5.3822,-5.3822,-5.3822,-5.3822,-5.3822,-5.3822,-5.3822,-5.3822,-5.375,-5.3534,-5.3317,-5.3101,-5.3101,-5.3029,-5.3077,-5.3077,-5.2956,-5.274,-5.2668,-5.2379,-5.1994,-5.1634,-5.1369,-5.1032,-5.0335,-4.9541,-4.9112,-4.824,-4.7495,-4.6716,-4.5415,-4.4204,-4.3097,-4.1784,-4.0427,-3.9171,-3.8117,-3.7114,-3.6593,-3.6629,-3.6944,-3.6951,-3.6523,-3.6016,-3.5726,-3.4942,-3.3921,-3.307,-3.283,-3.2815,-3.2438,-3.2313,-3.2313,-3.2331,-3.2276,-3.2001,-3.1543,-3.1249,-3.1029,-3.0864,-3.0827,-3.0589,-3.0277,-3.0406,-3.0369,-3.002,-2.9855,-2.9782,-2.9617,-2.9415,-2.9342,-2.9347,-2.9159,-2.9067,-2.9094,-2.9153,-2.9509,-2.9922,-3.047,-3.082,-3.0626,-3.0257,-2.9717,-2.918,-2.8533,-2.8028,-2.7436,-2.6995,-2.6682,-2.6513,-2.6472,-2.625,-2.6098,-2.599,-2.5789,-2.5404,-2.5094,-2.4822,-5.9161,-5.8993,-5.8175,-5.7766,-5.7574,-5.7093,-5.6636,-5.6197,-5.6107,-5.5842,-5.5433,-5.5289,-5.5025,-5.4688,-5.4471,-5.4207,-5.3822,-5.3822,-5.3822,-5.3822,-5.3822,-5.3822,-5.3822,-5.3822,-5.3822,-5.3822,-5.3774,-5.3822,-5.3702,-5.3678,-5.3774,-5.3702,-5.3774,-5.3654,-5.3293,-5.3221,-5.2884,-5.2451,-5.1922,-5.1634,-5.1153,-5.0527,-4.995,-4.9784,-4.8648,-4.7601,-4.6724,-4.5186,-4.3823,-4.2585,-4.1259,-3.9973,-3.9141,-3.8359,-3.7645,-3.7003,-3.6681,-3.6813,-3.6709,-3.6482,-3.6017,-3.5816,-3.4798,-3.3656,-3.2796,-3.2456,-3.2096,-3.193,-3.1891,-3.2056,-3.2276,-3.2441,-3.2276,-3.2056,-3.1726,-3.1524,-3.1304,-3.1231,-3.1304,-3.1121,-3.1047,-3.0809,-3.0479,-3.0277,-3.0204,-2.9984,-2.9764,-2.9745,-2.9654,-2.9342,-2.9255,-2.9209,-2.9331,-2.9686,-3.0098,-3.047,-3.0704,-3.0606,-3.0275,-2.9751,-2.9308,-2.8867,-2.8399,-2.7989,-2.7862,-2.7567,-2.7381,-2.7135,-2.6854,-2.672,-2.6683,-2.639,-2.5949,-2.5493,-2.5094,-5.8416,-5.7983,-5.7862,-5.755,-5.7069,-5.6564,-5.6299,-5.6131,-5.5674,-5.5482,-5.5241,-5.4904,-5.464,-5.4496,-5.4111,-5.3918,-5.3846,-5.3822,-5.3822,-5.3822,-5.3822,-5.3822,-5.3822,-5.3822,-5.3822,-5.3822,-5.3822,-5.3822,-5.3822,-5.3822,-5.3822,-5.3822,-5.3822,-5.3774,-5.3654,-5.363,-5.3461,-5.298,-5.2451,-5.173,-5.0984,-5.0672,-5.0311,-4.9765,-4.9035,-4.7982,-4.6681,-4.5132,-4.3621,-4.2188,-4.1276,-4.0089,-3.8924,-3.8588,-3.8059,-3.7553,-3.714,-3.6955,-3.6706,-3.644,-3.6182,-3.5746,-3.4863,-3.3931,-3.2971,-3.2115,-3.1681,-3.1479,-3.1469,-3.1653,-3.1983,-3.2093,-3.2038,-3.2111,-3.2111,-3.2019,-3.1873,-3.1451,-3.1543,-3.1689,-3.1543,-3.1267,-3.0974,-3.0791,-3.0607,-3.0351,-3.0167,-3.0149,-3.002,-2.9727,-2.9489,-2.9499,-2.9535,-2.9855,-2.9957,-3.0429,-3.047,-3.045,-3.0138,-2.9766,-2.9437,-2.9071,-2.8938,-2.8602,-2.8494,-2.8313,-2.7939,-2.7636,-2.7408,-2.7327,-2.7214,-2.6883,-2.6393,-2.5968,-2.5493,-5.7742,-5.779,-5.7478,-5.7069,-5.6588,-5.6323,-5.5866,-5.5337,-5.5049,-5.476,-5.452,-5.4279,-5.4159,-5.4135,-5.3894,-5.3822,-5.3822,-5.3822,-5.3822,-5.3822,-5.3822,-5.3822,-5.3822,-5.3822,-5.3822,-5.3822,-5.3822,-5.3822,-5.3822,-5.3822,-5.3822,-5.3822,-5.3822,-5.3822,-5.3822,-5.3822,-5.3702,-5.3317,-5.2716,-5.1922,-5.1273,-5.0864,-5.0505,-5.003,-4.9204,-4.8146,-4.6813,-4.4817,-4.3228,-4.1737,-4.05,-3.9281,-3.8414,-3.8044,-3.7724,-3.7518,-3.7332,-3.716,-3.6966,-3.6629,-3.634,-3.5803,-3.5004,-3.406,-3.3002,-3.2181,-3.1598,-3.1396,-3.1377,-3.1506,-3.1689,-3.1873,-3.1983,-3.2074,-3.2184,-3.2166,-3.2038,-3.1854,-3.1708,-3.1873,-3.2001,-3.1708,-3.1451,-3.1267,-3.1102,-3.0956,-3.0699,-3.0552,-3.0424,-3.0167,-2.9965,-2.98,-2.9883,-3.0039,-3.0046,-3.0208,-3.0155,-3.0117,-2.9922,-2.9608,-2.949,-2.9297,-2.9087,-2.9093,-2.9044,-2.8747,-2.8426,-2.8195,-2.8016,-2.7898,-2.7799,-2.7412,-2.7009,-2.6446,-2.586,-5.6852,-5.7165,-5.6925,-5.6516,-5.6011,-5.589,-5.5361,-5.4664,-5.4471,-5.4183,-5.3918,-5.3846,-5.3846,-5.3822,-5.3846,-5.3822,-5.3822,-5.3822,-5.3822,-5.3822,-5.3822,-5.3822,-5.3822,-5.3822,-5.3822,-5.3822,-5.3822,-5.3822,-5.3822,-5.3822,-5.3822,-5.3822,-5.3822,-5.3822,-5.3822,-5.3798,-5.3726,-5.3437,-5.2692,-5.2018,-5.1465,-5.0936,-5.0531,-4.9961,-4.9251,-4.8235,-4.6766,-4.4733,-4.2912,-4.139,-3.9758,-3.854,-3.7936,-3.7604,-3.7435,-3.7204,-3.7158,-3.7118,-3.6961,-3.67,-3.6336,-3.5712,-3.4931,-3.3889,-3.2794,-3.2261,-3.2074,-3.1799,-3.1616,-3.1579,-3.1579,-3.1781,-3.1726,-3.1836,-3.1946,-3.1983,-3.2001,-3.1928,-3.1854,-3.1928,-3.2038,-3.2129,-3.1891,-3.1726,-3.1598,-3.1506,-3.1304,-3.1029,-3.0772,-3.0534,-3.0332,-3.013,-3.0254,-3.0237,-3.0073,-3.0062,-2.9993,-2.9842,-2.9587,-2.945,-2.9331,-2.9272,-2.9157,-2.9204,-2.9367,-2.9373,-2.9089,-2.8816,-2.8555,-2.8265,-2.8033,-2.796,-2.7592,-2.699,-2.621,-5.553,-5.5602,-5.6083,-5.5963,-5.5433,-5.4928,-5.4688,-5.4496,-5.4087,-5.3894,-5.3822,-5.3822,-5.3822,-5.3822,-5.3822,-5.3822,-5.3822,-5.3822,-5.3822,-5.3822,-5.3822,-5.3822,-5.3822,-5.3822,-5.3822,-5.3822,-5.3822,-5.3822,-5.3822,-5.3822,-5.3822,-5.3822,-5.3822,-5.3822,-5.3822,-5.3822,-5.3582,-5.3245,-5.2644,-5.2091,-5.1537,-5.0985,-5.0555,-4.9961,-4.9223,-4.8151,-4.6613,-4.4583,-4.2804,-4.1232,-3.9493,-3.8228,-3.7642,-3.7329,-3.7106,-3.7012,-3.6951,-3.6922,-3.6847,-3.6661,-3.6258,-3.547,-3.4611,-3.3711,-3.2825,-3.2618,-3.2496,-3.2386,-3.2093,-3.1983,-3.1854,-3.1708,-3.1653,-3.1689,-3.1818,-3.1818,-3.1928,-3.2148,-3.2074,-3.2038,-3.2056,-3.2129,-3.2331,-3.2166,-3.2056,-3.1964,-3.1726,-3.1469,-3.1139,-3.0882,-3.0626,-3.0486,-3.0569,-3.0451,-3.0195,-3.0069,-2.9942,-2.9736,-2.9465,-2.9309,-2.9094,-2.9094,-2.9094,-2.9353,-2.9517,-2.9601,-2.9661,-2.92,-2.8774,-2.8466,-2.8247,-2.8067,-2.7795,-2.7157,-2.6427,-5.5193,-5.4952,-5.5145,-5.5097,-5.4904,-5.4688,-5.4423,-5.4135,-5.3918,-5.3822,-5.3822,-5.3822,-5.3822,-5.3822,-5.3822,-5.3822,-5.3822,-5.3822,-5.3822,-5.3822,-5.3822,-5.3822,-5.3822,-5.3822,-5.3822,-5.3822,-5.3822,-5.3822,-5.3822,-5.3822,-5.3822,-5.3822,-5.3822,-5.3822,-5.3822,-5.3798,-5.3534,-5.3173,-5.2812,-5.2379,-5.1586,-5.1034,-5.0508,-4.9747,-4.9029,-4.7922,-4.6484,-4.4577,-4.2931,-4.1298,-3.9382,-3.8204,-3.744,-3.7052,-3.6812,-3.6738,-3.6754,-3.6769,-3.6705,-3.648,-3.5966,-3.5268,-3.4508,-3.3842,-3.3046,-3.2991,-3.2808,-3.2643,-3.2496,-3.2386,-3.2313,-3.2038,-3.1818,-3.1763,-3.1744,-3.1763,-3.1818,-3.2038,-3.2056,-3.1909,-3.2019,-3.2148,-3.2404,-3.2625,-3.2514,-3.2404,-3.2148,-3.1891,-3.1543,-3.1249,-3.1011,-3.0791,-3.0832,-3.0747,-3.0513,-3.0198,-2.9907,-2.9624,-2.9439,-2.9246,-2.9071,-2.9035,-2.9094,-2.939,-2.953,-2.9559,-2.9468,-2.9317,-2.897,-2.861,-2.8369,-2.8194,-2.7776,-2.7359,-2.6774,-5.4712,-5.4375,-5.4375,-5.4375,-5.4375,-5.4375,-5.4183,-5.387,-5.3822,-5.3822,-5.3822,-5.3822,-5.3822,-5.3822,-5.3822,-5.3822,-5.3822,-5.3822,-5.3822,-5.3822,-5.3822,-5.3822,-5.3822,-5.3822,-5.3822,-5.3822,-5.3822,-5.3822,-5.3822,-5.3822,-5.3822,-5.3822,-5.3822,-5.3822,-5.3822,-5.3798,-5.363,-5.3365,-5.2884,-5.2642,-5.1752,-5.0962,-5.0241,-4.9408,-4.8638,-4.7479,-4.605,-4.4326,-4.277,-4.1151,-3.9469,-3.8042,-3.7258,-3.6812,-3.6423,-3.6497,-3.6627,-3.6663,-3.6511,-3.6168,-3.5646,-3.5088,-3.4673,-3.4075,-3.3592,-3.3413,-3.3285,-3.3083,-3.29,-3.2771,-3.2753,-3.2423,-3.2203,-3.2166,-3.2074,-3.2056,-3.1836,-3.1891,-3.1836,-3.1744,-3.1854,-3.1928,-3.2386,-3.2661,-3.29,-3.2735,-3.2478,-3.2203,-3.1873,-3.1634,-3.1469,-3.1249,-3.1129,-3.0982,-3.0754,-3.053,-3.0205,-2.9688,-2.9425,-2.926,-2.9085,-2.9048,-2.9053,-2.9213,-2.9335,-2.9399,-2.9387,-2.9297,-2.9068,-2.8787,-2.8474,-2.814,-2.7887,-2.7488,-2.7163,-5.3822,-5.3846,-5.3798,-5.3822,-5.3846,-5.3846,-5.3846,-5.3822,-5.3822,-5.3822,-5.3822,-5.3822,-5.3822,-5.3822,-5.3822,-5.3822,-5.3822,-5.3822,-5.3822,-5.3822,-5.3822,-5.3822,-5.3822,-5.3822,-5.3822,-5.3822,-5.3822,-5.3822,-5.3822,-5.3822,-5.3822,-5.3822,-5.3822,-5.3822,-5.3822,-5.3822,-5.3798,-5.3654,-5.2812,-5.2471,-5.189,-5.0911,-4.9998,-4.9202,-4.831,-4.7121,-4.5596,-4.3868,-4.2385,-4.1062,-3.9135,-3.7912,-3.7404,-3.6664,-3.6275,-3.6275,-3.6275,-3.6256,-3.6201,-3.5812,-3.551,-3.5138,-3.4796,-3.4327,-3.3945,-3.3817,-3.3798,-3.3615,-3.3413,-3.323,-3.3065,-3.2863,-3.268,-3.2551,-3.2459,-3.2294,-3.2074,-3.1983,-3.1983,-3.1983,-3.1708,-3.1634,-3.2166,-3.2643,-3.3065,-3.3065,-3.279,-3.2514,-3.2239,-3.1928,-3.1744,-3.1579,-3.1359,-3.1157,-3.0992,-3.0846,-3.0523,-2.991,-2.9544,-2.9415,-2.925,-2.9159,-2.9163,-2.9131,-2.9135,-2.9297,-2.9303,-2.9329,-2.9032,-2.8648,-2.8381,-2.8087,-2.7853,-2.7618,-2.7239,-5.2788,-5.2788,-5.2788,-5.3004,-5.3341,-5.3702,-5.3822,-5.3822,-5.3822,-5.3822,-5.3822,-5.3822,-5.3822,-5.3822,-5.3822,-5.3822,-5.3822,-5.3822,-5.3822,-5.3822,-5.3822,-5.3822,-5.3822,-5.3822,-5.3822,-5.3822,-5.3822,-5.3822,-5.3822,-5.3822,-5.3822,-5.3822,-5.3822,-5.3822,-5.3822,-5.3798,-5.3702,-5.3267,-5.271,-5.2273,-5.179,-5.0875,-4.9936,-4.9158,-4.8117,-4.6831,-4.5352,-4.3556,-4.2086,-4.0913,-3.906,-3.7912,-3.7349,-3.6664,-3.6201,-3.6201,-3.6201,-3.6201,-3.6182,-3.6018,-3.5797,-3.5428,-3.5007,-3.4752,-3.4605,-3.433,-3.4257,-3.4128,-3.3835,-3.367,-3.3541,-3.323,-3.3028,-3.2936,-3.2808,-3.257,-3.2404,-3.2386,-3.2386,-3.2386,-3.2221,-3.2349,-3.2735,-3.2863,-3.3175,-3.3395,-3.3193,-3.3028,-3.279,-3.2258,-3.1909,-3.1781,-3.1598,-3.1377,-3.1194,-3.1029,-3.0846,-3.0387,-3.002,-2.9819,-2.9635,-2.9415,-2.9292,-2.9218,-2.9186,-2.9153,-2.9142,-2.9114,-2.8782,-2.8465,-2.81,-2.786,-2.7638,-2.7422,-2.7133,-5.2283,-5.2283,-5.2283,-5.2475,-5.286,-5.3341,-5.363,-5.3798,-5.3822,-5.3822,-5.3822,-5.3822,-5.3822,-5.3822,-5.3822,-5.3822,-5.3822,-5.3822,-5.3822,-5.3822,-5.3822,-5.3822,-5.3822,-5.3822,-5.3822,-5.3822,-5.3822,-5.3822,-5.3822,-5.3822,-5.3822,-5.3822,-5.3822,-5.3822,-5.3822,-5.3774,-5.3627,-5.3165,-5.2702,-5.2143,-5.1511,-5.0736,-4.9984,-4.8987,-4.7917,-4.6699,-4.5105,-4.3489,-4.1785,-4.0539,-3.9135,-3.7763,-3.7165,-3.6664,-3.6201,-3.6201,-3.6201,-3.6201,-3.6182,-3.6182,-3.6036,-3.5815,-3.5449,-3.5192,-3.5045,-3.4752,-3.466,-3.4513,-3.4238,-3.4092,-3.3963,-3.3633,-3.3431,-3.334,-3.323,-3.301,-3.2808,-3.2808,-3.2716,-3.2716,-3.2698,-3.2918,-3.3156,-3.3211,-3.3321,-3.3468,-3.3578,-3.3431,-3.3266,-3.2753,-3.2221,-3.2019,-3.1854,-3.1634,-3.1414,-3.1194,-3.1011,-3.0809,-3.0516,-3.0204,-3.0002,-2.9782,-2.9525,-2.9305,-2.9329,-2.9297,-2.8998,-2.8821,-2.8586,-2.8217,-2.7791,-2.7564,-2.7408,-2.7206,-2.7008,-5.2211,-5.2235,-5.2235,-5.2211,-5.2331,-5.2812,-5.3317,-5.3774,-5.3774,-5.3798,-5.3822,-5.3822,-5.3822,-5.3822,-5.3822,-5.3822,-5.3822,-5.3822,-5.3822,-5.3822,-5.3822,-5.3822,-5.3822,-5.3822,-5.3822,-5.3822,-5.3822,-5.3822,-5.3822,-5.3822,-5.3822,-5.3822,-5.3822,-5.3747,-5.3747,-5.3672,-5.3473,-5.3155,-5.2281,-5.1817,-5.1302,-5.0624,-4.9743,-4.8742,-4.7787,-4.6507,-4.4939,-4.3256,-4.1545,-4.0164,-3.8761,-3.7763,-3.6961,-3.6442,-3.6275,-3.6201,-3.6201,-3.6201,-3.6201,-3.6201,-3.6201,-3.6054,-3.5834,-3.5467,-3.5247,-3.5137,-3.5045,-3.4917,-3.4678,-3.4532,-3.4367,-3.4092,-3.3835,-3.378,-3.3743,-3.3541,-3.3285,-3.3175,-3.3046,-3.2955,-3.2863,-3.301,-3.3285,-3.3395,-3.3486,-3.3596,-3.3688,-3.3615,-3.3431,-3.3248,-3.2735,-3.2331,-3.2148,-3.1891,-3.1671,-3.1543,-3.1377,-3.1267,-3.0846,-3.0534,-3.0351,-3.0149,-2.9874,-2.9672,-2.958,-2.9457,-2.909,-2.8814,-2.8557,-2.8155,-2.7843,-2.753,-2.7436,-2.7118,-2.6899,-5.1153,-5.1153,-5.1153,-5.1369,-5.1778,-5.2283,-5.2812,-5.3245,-5.3293,-5.3461,-5.3822,-5.3822,-5.3726,-5.3822,-5.3822,-5.3822,-5.3822,-5.3822,-5.3822,-5.3822,-5.3822,-5.3822,-5.3822,-5.3747,-5.3822,-5.3747,-5.3747,-5.3747,-5.3822,-5.3822,-5.3822,-5.3822,-5.3822,-5.3672,-5.3521,-5.337,-5.3219,-5.283,-5.1864,-5.1395,-5.092,-5.0319,-4.9458,-4.8597,-4.764,-4.633,-4.481,-4.2993,-4.1283,-3.9938,-3.8686,-3.767,-3.6868,-3.6423,-3.6201,-3.6201,-3.6201,-3.6201,-3.6201,-3.6201,-3.6201,-3.6201,-3.6072,-3.6054,-3.5834,-3.5614,-3.5449,-3.5302,-3.5082,-3.4899,-3.4752,-3.4513,-3.4293,-3.422,-3.4128,-3.3908,-3.3707,-3.3596,-3.3468,-3.3358,-3.3248,-3.3285,-3.3541,-3.3596,-3.367,-3.3762,-3.378,-3.3707,-3.3615,-3.3431,-3.3175,-3.2753,-3.2533,-3.2294,-3.2166,-3.2038,-3.1873,-3.1671,-3.1231,-3.0882,-3.0736,-3.0516,-3.0241,-3.0002,-2.98,-2.9452,-2.9048,-2.881,-2.8663,-2.8462,-2.8171,-2.7825,-2.7456,-2.716,-2.6846,-5.0696,-5.0696,-5.0696,-5.0888,-5.1201,-5.1513,-5.197,-5.2403,-5.2668,-5.2956,-5.3173,-5.3173,-5.3317,-5.3485,-5.351,-5.3606,-5.3822,-5.3822,-5.3822,-5.3822,-5.3747,-5.3672,-5.362,-5.3521,-5.3446,-5.3446,-5.3446,-5.3521,-5.3596,-5.3747,-5.3822,-5.3822,-5.3822,-5.3521,-5.3295,-5.3044,-5.2698,-5.2189,-5.1512,-5.0955,-5.0365,-4.9889,-4.9314,-4.8329,-4.73,-4.6145,-4.4696,-4.2697,-4.1118,-3.9676,-3.8386,-3.7521,-3.6812,-3.6275,-3.6201,-3.6201,-3.6201,-3.6201,-3.6201,-3.6201,-3.6201,-3.6201,-3.6201,-3.6182,-3.6127,-3.5944,-3.5889,-3.5779,-3.5485,-3.5229,-3.5082,-3.4935,-3.4788,-3.4642,-3.4458,-3.4257,-3.4147,-3.4055,-3.3945,-3.3817,-3.3762,-3.3743,-3.3798,-3.3817,-3.3817,-3.3817,-3.3817,-3.3798,-3.3743,-3.3651,-3.3413,-3.3065,-3.2918,-3.2753,-3.2625,-3.2478,-3.2313,-3.2019,-3.1506,-3.1212,-3.1084,-3.0864,-3.0552,-3.0241,-2.9947,-2.958,-2.925,-2.903,-2.8865,-2.8682,-2.848,-2.8171,-2.7768,-2.7363,-2.7013,-5.0696,-5.0696,-5.0696,-5.072,-5.072,-5.0768,-5.1032,-5.1465,-5.1922,-5.2211,-5.2234,-5.2234,-5.2546,-5.2808,-5.3027,-5.3291,-5.3606,-5.3726,-5.3822,-5.3723,-5.3672,-5.3521,-5.3318,-5.3167,-5.3068,-5.2916,-5.2916,-5.3219,-5.3295,-5.3596,-5.3822,-5.3822,-5.3747,-5.3446,-5.3068,-5.2688,-5.2196,-5.1449,-5.1042,-5.0561,-4.9955,-4.9617,-4.9189,-4.7893,-4.6902,-4.5896,-4.4263,-4.2559,-4.0839,-3.9261,-3.816,-3.7465,-3.6645,-3.6201,-3.6201,-3.6201,-3.6201,-3.6201,-3.6201,-3.6201,-3.6201,-3.6201,-3.6201,-3.6201,-3.6164,-3.6146,-3.6072,-3.6054,-3.5779,-3.5669,-3.5559,-3.5302,-3.5119,-3.5009,-3.4844,-3.466,-3.4532,-3.4422,-3.4312,-3.4165,-3.4018,-3.3982,-3.3817,-3.3817,-3.3817,-3.3817,-3.3817,-3.3817,-3.3798,-3.3762,-3.3615,-3.3358,-3.3303,-3.3175,-3.301,-3.2863,-3.2716,-3.2368,-3.1836,-3.1616,-3.1561,-3.1231,-3.0846,-3.0552,-3.0241,-2.9855,-2.9525,-2.9305,-2.9104,-2.8883,-2.87,-2.8498,-2.8132,-2.7673,-2.738,-5.0696,-5.0696,-5.0696,-5.0696,-5.0696,-5.0696,-5.0768,-5.0888,-5.0699,-5.1105,-5.1701,-5.1796,-5.1844,-5.2011,-5.2419,-5.2756,-5.3171,-5.3485,-5.3774,-5.3576,-5.3401,-5.2981,-5.2996,-5.2575,-5.257,-5.2688,-5.2764,-5.2869,-5.3219,-5.3521,-5.3798,-5.3723,-5.3549,-5.3148,-5.2769,-5.2313,-5.1745,-5.0809,-5.0434,-4.9795,-4.8987,-4.8396,-4.7818,-4.6735,-4.5792,-4.4847,-4.3407,-4.211,-4.0472,-3.8918,-3.8386,-3.7445,-3.6348,-3.6219,-3.6201,-3.6201,-3.6201,-3.6201,-3.6201,-3.6201,-3.6201,-3.6201,-3.6201,-3.6201,-3.6201,-3.6201,-3.6182,-3.6164,-3.6127,-3.6072,-3.5962,-3.5687,-3.5467,-3.5357,-3.5265,-3.5082,-3.4899,-3.477,-3.466,-3.4477,-3.4293,-3.411,-3.3927,-3.3817,-3.3817,-3.3817,-3.3817,-3.3817,-3.3817,-3.3798,-3.3798,-3.3633,-3.367,-3.356,-3.3376,-3.3248,-3.312,-3.2716,-3.2166,-3.2038,-3.1964,-3.1524,-3.1066,-3.0846,-3.0571,-3.0204,-2.9874,-2.958,-2.936,-2.914,-2.8975,-2.881,-2.8572,-2.8168,-2.7893,-5.0696,-5.0696,-5.0696,-5.0696,-5.0696,-5.0696,-5.0625,-5.0412,-5.0175,-5.0221,-5.0477,-5.062,-5.0861,-5.1123,-5.1552,-5.2056,-5.2495,-5.2906,-5.2856,-5.278,-5.2601,-5.2084,-5.1855,-5.1623,-5.1181,-5.1251,-5.2061,-5.2533,-5.3001,-5.3309,-5.3461,-5.3411,-5.306,-5.2684,-5.2306,-5.1944,-5.14,-5.0329,-4.9857,-4.9055,-4.8139,-4.7619,-4.7025,-4.5986,-4.4964,-4.3956,-4.2759,-4.1563,-4.0356,-3.8935,-3.7986,-3.7163,-3.6347,-3.6201,-3.6201,-3.6201,-3.6201,-3.6201,-3.6201,-3.6201,-3.6201,-3.6201,-3.6201,-3.6201,-3.6201,-3.6201,-3.6201,-3.6182,-3.6182,-3.6127,-3.6127,-3.5925,-3.5889,-3.5815,-3.5742,-3.5614,-3.532,-3.5045,-3.4935,-3.4788,-3.4568,-3.4293,-3.4092,-3.389,-3.3872,-3.3817,-3.3817,-3.3817,-3.3817,-3.3817,-3.3817,-3.3817,-3.3817,-3.3817,-3.367,-3.356,-3.3505,-3.3046,-3.2533,-3.2111,-3.1854,-3.1579,-3.1286,-3.1084,-3.0864,-3.0607,-3.0277,-2.9965,-2.9635,-2.9397,-2.9269,-2.914,-2.8883,-2.8627,-2.8542,-5.0624,-5.0696,-5.0696,-5.0696,-5.0696,-5.0696,-5.0483,-5.0104,-5.0033,-4.9604,-4.9217,-4.9315,-4.967,-5.0122,-5.0526,-5.1076,-5.1531,-5.2011,-5.1939,-5.1792,-5.1571,-5.1096,-5.055,-4.9985,-4.9828,-5.0267,-5.1152,-5.1953,-5.2664,-5.2875,-5.298,-5.2906,-5.2583,-5.2159,-5.1902,-5.1664,-5.1139,-5.0168,-4.941,-4.841,-4.7694,-4.7068,-4.6301,-4.5473,-4.4505,-4.3295,-4.2132,-4.1012,-4.0097,-3.8909,-3.7625,-3.69,-3.6457,-3.6274,-3.6201,-3.6201,-3.6201,-3.6201,-3.6201,-3.6201,-3.6201,-3.6201,-3.6201,-3.6201,-3.6201,-3.6201,-3.6201,-3.6201,-3.6201,-3.6201,-3.6201,-3.6201,-3.6182,-3.6164,-3.6091,-3.6054,-3.5705,-3.5394,-3.5284,-3.5155,-3.488,-3.4605,-3.4367,-3.4128,-3.3963,-3.3908,-3.3835,-3.3817,-3.3817,-3.3817,-3.3817,-3.3817,-3.3817,-3.3817,-3.3817,-3.3762,-3.3688,-3.3486,-3.2955,-3.2294,-3.1781,-3.1689,-3.1543,-3.1322,-3.1102,-3.0882,-3.0681,-3.0406,-3.0075,-2.969,-2.947,-2.9342,-2.9177,-2.9035,-2.9157,-5.0287,-5.0696,-5.0696,-5.0696,-5.0696,-5.0696,-5.0459,-5.0104,-4.9723,-4.9389,-4.898,-4.8691,-4.8855,-4.9311,-4.9707,-5.0183,-5.0595,-5.1024,-5.1234,-5.1181,-5.0503,-5.0128,-4.968,-4.8974,-4.9148,-4.9691,-5.0485,-5.1221,-5.1997,-5.2325,-5.2451,-5.2427,-5.2119,-5.184,-5.1714,-5.1257,-5.0565,-4.9743,-4.8913,-4.8036,-4.6988,-4.6186,-4.5288,-4.439,-4.3515,-4.2261,-4.1113,-4.0409,-3.9634,-3.866,-3.7586,-3.6934,-3.6622,-3.6421,-3.6292,-3.6201,-3.6201,-3.6201,-3.6201,-3.6201,-3.6201,-3.6201,-3.6201,-3.6201,-3.6201,-3.6201,-3.6201,-3.6201,-3.6201,-3.6201,-3.6201,-3.6201,-3.6182,-3.6182,-3.6146,-3.6146,-3.5981,-3.587,-3.5815,-3.5614,-3.5394,-3.5119,-3.488,-3.4605,-3.433,-3.4238,-3.4055,-3.4037,-3.3927,-3.3872,-3.3853,-3.3817,-3.3817,-3.3817,-3.3817,-3.3817,-3.3743,-3.3633,-3.3395,-3.2735,-3.2258,-3.1983,-3.1799,-3.1579,-3.1377,-3.1194,-3.0974,-3.0717,-3.0406,-3.0039,-2.9709,-2.9507,-2.936,-2.9273,-2.9287]}]]